GFSSE_850_spd_003.txt.gz
Wind_Speed
9 5 8 7 8 8 5 6 6 5 4 5 5 6 8 9 12 16 17 17 15 6 2 3 6 8 9 11 10 9 9 11 12 16 14 7 5 6 7 8 11 9 7
8 8 9 8 10 9 6 6 7 7 7 6 6 6 6 10 12 14 14 11 3 4 17 20 16 10 11 12 11 11 10 10 11 12 12 11 9 8 7 7 9 9 8
3 7 9 10 9 9 9 7 7 7 8 9 7 4 2 4 7 7 9 7 10 10 16 28 15 13 13 9 11 12 12 10 8 8 8 9 10 6 8 7 10 7 11
8 5 7 10 9 10 9 9 8 6 6 5 4 0 1 4 6 9 11 17 17 12 17 21 18 14 19 8 9 13 14 13 10 7 5 2 5 6 7 8 13 11 12
9 11 11 12 12 12 10 9 7 6 5 3 3 3 2 0 3 4 6 10 14 12 11 13 14 15 14 14 14 13 15 15 12 9 7 6 6 7 9 7 16 16 14
11 11 12 11 11 11 10 8 8 8 7 6 4 3 3 4 3 1 1 5 8 14 12 12 15 14 5 8 12 12 17 14 12 12 8 7 6 14 12 9 13 16 16
6 9 8 7 8 8 9 9 8 7 6 6 6 5 4 5 6 5 3 4 5 8 10 15 18 17 20 14 14 23 18 18 18 13 10 12 11 19 19 15 12 16 16
6 7 7 8 10 9 10 9 8 7 6 5 4 4 2 2 4 5 3 4 7 8 7 10 13 13 14 15 13 22 20 21 20 15 13 16 14 19 16 18 15 16 15
7 7 10 12 13 12 11 10 8 6 5 5 3 2 1 2 3 3 2 3 7 7 9 11 12 9 10 9 9 12 16 17 20 19 20 22 15 15 16 15 15 18 18
7 7 4 4 7 14 13 11 10 7 7 7 5 1 1 1 0 3 4 4 4 7 8 10 11 12 11 13 15 14 12 14 15 19 21 22 18 16 18 17 18 18 21
9 7 8 3 8 14 6 6 8 3 4 4 4 4 2 3 1 1 2 4 6 7 8 9 12 12 12 15 15 16 15 15 14 14 18 22 22 20 19 17 16 18 20
9 9 8 5 8 9 2 4 7 3 5 6 3 2 2 3 3 3 3 2 2 6 9 12 12 10 13 15 16 18 19 17 18 16 14 17 21 22 22 21 19 20 22
5 5 10 11 11 2 3 7 4 5 4 4 4 4 2 5 6 6 5 3 4 5 6 7 8 15 20 21 18 15 15 15 15 18 18 20 18 19 21 21 20 19 23
2 7 13 13 7 2 5 5 8 8 8 9 7 7 7 7 8 9 7 7 7 7 8 9 9 8 10 11 18 28 28 21 18 22 21 22 23 23 23 25 25 23 23
5 9 12 15 9 4 6 8 9 11 10 12 12 11 11 11 9 9 9 8 7 8 9 10 11 12 14 16 15 14 16 23 29 23 26 24 26 28 29 27 28 28 27
13 13 15 16 13 9 11 11 11 13 14 15 15 13 12 12 11 10 11 10 10 7 10 11 11 12 14 15 16 18 18 18 22 25 24 31 28 27 32 30 27 28 29
12 14 16 17 15 12 13 14 14 16 16 16 16 15 14 13 11 12 11 12 12 11 10 9 10 13 14 16 18 19 21 23 24 24 24 26 28 34 28 30 31 33 34
13 16 15 17 16 14 14 16 15 16 16 16 17 17 14 15 13 11 12 12 11 11 9 10 11 12 14 15 16 18 20 23 25 29 30 27 26 28 29 31 31 29 33
18 19 18 18 16 17 17 16 15 16 18 15 15 19 18 15 15 12 12 10 8 7 8 11 13 16 16 17 17 18 20 23 25 27 29 30 31 32 32 28 28 28 28
17 18 17 18 18 19 19 18 17 18 20 17 18 19 22 18 15 12 11 10 10 6 6 10 16 17 17 19 19 20 21 24 23 21 25 27 28 30 36 37 33 34 32
13 14 16 17 19 21 20 21 22 23 24 20 22 24 20 19 17 15 13 8 7 7 10 12 14 14 16 20 21 21 26 26 17 21 15 12 14 19 28 34 37 37 33
10 13 14 15 18 19 20 22 22 22 21 21 19 24 23 24 23 19 19 15 15 13 13 13 9 10 14 15 17 21 23 34 31 15 22 22 18 20 18 18 24 35 36
12 13 14 13 16 19 22 23 25 21 22 24 22 24 27 29 27 25 21 17 15 16 15 10 11 13 15 13 14 21 24 23 33 33 31 30 27 25 24 23 23 26 25
10 10 11 13 17 18 22 26 28 30 30 29 28 27 28 29 28 25 21 20 16 14 9 10 13 15 17 22 25 25 27 29 29 34 31 30 32 28 23 20 21 23 25
7 8 11 14 21 25 25 25 29 31 32 33 27 23 24 23 20 29 23 24 20 17 16 22 21 21 23 26 27 26 27 28 31 33 35 30 29 28 27 27 26 26 25
12 12 14 17 21 24 27 29 30 33 35 34 35 31 31 22 20 24 26 25 23 20 19 16 16 23 24 28 32 33 34 34 34 32 31 30 31 32 30 28 25 25 28

GFSSE_850_spd_006.txt.gz
Wind_Speed
6 6 6 7 7 8 8 6 7 6 8 8 9 10 9 10 10 12 13 12 12 10 7 5 6 7 11 9 5 5 6 8 8 11 12 12 11 6 5 7 8 8 9
4 5 6 6 7 6 7 6 6 6 6 7 6 7 9 9 9 10 11 10 10 7 6 18 19 12 17 13 10 6 5 6 6 8 8 8 7 8 8 8 10 10 11
7 8 8 6 7 7 7 6 6 7 7 6 5 4 4 5 7 8 10 12 12 11 15 16 17 17 20 21 15 10 9 9 9 8 10 8 7 9 9 11 13 11 12
9 5 9 7 8 7 7 5 5 5 5 3 1 1 2 3 5 7 9 13 19 18 17 20 20 15 12 7 11 11 14 14 13 10 10 7 6 9 9 10 15 12 14
7 5 7 7 9 9 9 8 6 4 2 1 2 3 3 1 2 4 7 12 13 12 14 14 12 12 15 24 22 17 20 16 15 12 10 10 11 9 9 9 11 16 15
8 9 10 9 9 10 9 9 7 5 5 4 4 3 1 1 2 3 6 7 8 10 13 13 12 7 5 7 8 20 18 19 17 12 12 11 15 13 12 10 11 16 19
6 9 8 7 7 8 7 7 6 3 4 4 3 2 2 1 2 3 5 4 3 3 7 10 9 9 13 13 19 22 23 22 23 16 13 15 18 13 15 15 16 16 19
6 7 6 4 7 7 7 6 4 2 1 2 1 2 2 1 1 0 3 4 5 5 5 6 8 11 16 22 23 20 19 17 22 18 16 18 19 18 19 20 16 16 18
1 4 3 3 6 8 10 7 4 2 1 2 3 3 2 3 1 2 3 4 6 7 6 6 7 9 9 9 13 14 15 22 21 19 18 21 23 19 22 21 18 20 19
2 3 2 3 6 9 11 10 8 3 1 1 2 3 3 3 2 1 2 4 5 7 6 7 7 8 10 12 12 14 17 18 17 17 20 23 23 22 21 21 18 19 19
8 5 6 6 8 9 9 8 8 5 0 2 0 2 3 4 2 3 3 2 3 4 7 9 9 10 12 14 11 13 16 18 19 19 21 23 24 23 21 22 20 21 20
15 11 4 3 8 8 8 6 6 6 8 6 4 4 4 4 4 4 4 4 5 6 7 7 9 9 10 15 15 16 15 17 18 20 20 21 23 23 23 23 21 20 20
17 9 6 5 10 7 7 6 7 8 8 8 5 7 6 7 7 9 8 7 8 8 8 8 8 10 14 16 19 20 21 20 18 17 20 21 21 22 25 25 23 23 22
12 9 6 11 12 6 5 6 8 10 9 9 8 7 8 6 8 10 11 11 11 11 11 12 12 10 10 12 13 13 18 26 19 18 18 22 23 24 25 26 26 25 24
11 7 8 13 12 10 7 7 9 11 12 14 13 13 14 13 13 12 13 13 13 13 12 13 15 15 15 15 16 16 15 15 19 28 29 23 26 26 27 26 27 28 27
12 13 15 14 13 13 9 9 10 12 16 17 17 17 18 17 16 15 15 16 16 15 14 13 12 13 13 14 16 17 19 19 19 19 20 26 29 33 32 31 30 31 29
15 15 13 12 13 16 15 12 12 15 17 18 18 18 17 16 17 18 18 18 17 16 14 14 13 12 13 14 15 15 17 19 20 23 23 23 25 28 31 33 34 30 30
15 13 12 13 15 20 18 16 17 18 17 19 19 19 19 18 17 19 19 17 16 16 15 14 11 11 12 15 16 18 20 19 20 21 24 27 29 27 27 28 33 42 36
14 12 12 11 15 18 18 20 21 20 20 21 23 23 22 20 17 19 19 16 13 13 13 13 12 12 14 14 16 17 19 22 24 23 22 22 24 28 28 30 31 30 35
13 9 10 13 15 15 18 20 21 22 23 23 22 25 26 25 21 19 19 18 14 14 15 13 12 13 14 16 18 20 20 20 21 20 20 18 12 13 18 24 31 34 33
8 8 10 11 12 15 15 17 19 22 23 25 26 27 24 24 27 24 20 19 19 17 14 14 14 15 13 15 20 22 23 22 25 27 16 17 19 18 17 17 22 23 29
6 7 8 8 10 12 14 16 19 22 25 27 25 23 26 29 29 27 26 26 23 19 18 18 18 15 12 13 17 20 20 33 27 29 32 29 25 26 24 21 21 23 22
7 6 5 5 10 13 15 16 20 24 28 31 33 32 30 29 34 32 32 30 28 24 23 21 21 16 16 13 13 13 17 18 39 33 33 30 27 29 27 25 19 18 18
5 6 7 8 11 14 19 22 25 28 30 31 33 33 31 34 30 32 31 30 26 24 24 21 20 17 16 15 16 16 20 25 32 36 34 33 32 32 30 27 25 24 17
3 4 6 9 13 15 20 24 29 33 39 38 37 36 36 35 36 30 31 34 33 30 24 19 16 18 19 15 15 20 25 30 35 36 38 34 40 33 32 30 26 23 20
1 0 3 5 8 13 20 26 29 33 36 38 39 41 43 40 39 33 31 36 32 30 31 28 27 23 23 23 24 29 33 34 32 34 34 37 34 37 31 29 28 27 30

GFSSE_850_spd_009.txt.gz
Wind_Speed
4 6 6 7 8 7 8 10 11 11 10 8 8 7 8 10 11 12 11 9 6 3 5 8 7 10 12 13 12 12 8 5 5 7 8 8 8 10 5 6 6 6 7
5 8 7 7 6 5 7 6 8 8 7 8 8 6 6 6 8 9 9 7 9 10 10 7 8 12 17 15 14 12 11 7 6 7 9 9 8 8 8 9 8 9 9
8 9 6 7 5 5 6 4 5 6 6 4 4 5 5 5 6 6 7 10 12 12 14 16 17 17 19 16 14 12 8 7 10 10 9 10 9 9 10 10 11 11 11
8 8 7 9 6 5 7 5 4 5 4 2 1 2 4 6 6 8 10 13 17 19 20 20 16 8 15 16 13 12 13 18 11 10 12 11 10 8 10 11 12 13 12
8 9 8 10 9 8 7 5 3 3 2 1 1 1 2 5 8 11 13 14 17 20 24 13 8 9 17 14 16 13 16 12 16 15 13 12 11 9 12 13 12 13 15
12 12 11 9 9 8 6 5 5 3 2 1 1 2 3 4 6 7 6 6 8 10 12 11 12 9 9 16 18 14 21 18 19 17 16 14 14 14 14 14 11 11 16
13 11 10 8 7 7 6 3 3 1 1 0 2 3 5 6 6 6 5 5 5 5 6 8 9 9 8 8 9 10 15 17 20 15 18 17 16 15 16 16 13 13 16
6 8 6 6 6 7 8 7 5 2 3 3 3 4 5 5 4 4 5 5 5 5 7 6 8 8 8 12 18 24 21 21 21 24 19 17 17 16 18 18 15 17 18
4 3 1 2 6 9 11 9 7 6 5 5 4 4 4 5 4 4 4 4 5 4 6 7 9 10 9 10 11 13 13 14 13 15 16 20 19 17 19 19 20 18 18
2 0 2 4 5 8 9 9 8 7 5 4 3 5 5 6 5 4 4 5 6 6 5 7 9 11 11 11 11 13 13 12 13 13 17 18 19 19 21 24 22 20 19
7 6 3 4 6 9 11 9 7 6 3 6 5 6 6 6 5 5 5 6 7 8 7 8 9 10 11 12 11 12 15 16 16 16 15 14 17 19 23 23 21 21 19
12 9 4 4 6 7 8 7 5 5 6 7 7 7 7 7 8 7 7 8 9 10 11 10 10 9 10 12 14 15 16 18 18 17 16 17 18 18 20 22 21 21 21
13 12 7 3 7 8 8 7 7 8 8 8 7 9 9 10 10 10 11 12 12 12 12 13 13 14 12 13 15 16 19 22 21 23 23 19 18 19 20 22 23 23 23
17 13 8 6 8 11 11 9 9 10 10 10 10 10 11 12 11 12 13 14 15 15 16 15 15 16 18 16 14 15 18 16 17 24 22 21 19 18 20 20 22 24 26
17 15 11 7 10 12 13 11 10 11 12 15 15 14 14 15 16 17 16 15 16 17 17 17 17 17 18 20 19 17 16 17 17 16 20 27 27 25 23 23 23 24 24
17 14 9 8 10 11 12 12 11 12 13 16 17 16 17 19 19 19 19 19 19 18 18 16 15 15 15 15 15 16 16 16 16 17 16 18 23 27 28 26 27 29 29
15 11 9 9 10 9 11 11 11 12 14 16 17 18 18 19 19 19 20 21 21 21 19 17 16 14 13 12 12 14 15 16 17 18 19 20 20 23 25 27 26 27 32
15 13 10 9 8 11 13 13 14 16 18 18 18 20 20 19 19 20 20 21 21 21 20 19 17 15 13 13 13 14 16 18 18 19 19 19 21 23 23 25 26 25 25
17 14 10 8 7 9 12 14 15 16 17 18 20 22 22 22 23 22 20 21 20 20 21 19 18 18 16 15 15 15 16 17 17 17 15 15 18 15 13 15 19 23 26
17 13 8 6 6 7 7 10 12 16 18 19 19 20 22 25 27 26 23 22 21 22 22 21 21 21 20 18 17 18 17 17 18 17 19 13 14 17 17 16 13 16 17
13 9 5 5 6 4 6 9 12 15 18 22 23 23 23 24 26 28 28 27 25 24 25 24 23 23 23 20 19 19 21 22 21 23 22 26 21 20 20 21 20 20 19
4 5 5 6 6 7 10 13 16 19 21 24 27 29 30 31 29 29 31 33 32 31 29 29 29 28 26 23 20 19 18 24 27 26 32 28 29 23 23 24 22 22 19
5 5 8 10 11 11 12 15 19 23 26 28 30 34 36 38 38 36 36 38 38 38 37 36 33 31 30 26 23 18 7 9 24 28 31 34 31 33 34 31 28 25 23
7 8 11 12 14 13 16 18 20 24 29 29 31 35 35 36 39 42 41 40 41 41 37 34 33 32 30 28 24 19 15 14 10 21 36 34 37 35 35 32 30 26 23
8 10 12 13 13 13 14 18 26 33 35 38 40 37 34 34 36 41 43 43 42 39 34 33 32 26 24 24 19 16 16 18 23 26 29 37 37 36 33 32 29 25 21
9 11 10 6 6 12 20 27 32 35 39 41 38 33 32 32 32 32 38 43 42 38 29 26 24 26 21 15 16 18 19 19 21 27 31 35 33 38 36 33 28 29 28

GFSSE_850_spd_012.txt.gz
Wind_Speed
3 7 8 8 6 5 7 8 8 7 7 7 6 5 7 8 7 7 6 5 6 8 7 7 8 8 10 10 11 10 9 8 8 8 6 4 4 5 6 4 3 3 4
4 6 6 6 8 9 7 6 7 6 5 4 4 4 4 4 6 7 9 11 12 7 5 5 4 10 12 14 12 12 9 9 7 6 6 7 5 6 6 6 6 5 5
6 8 9 7 8 8 5 6 5 3 0 1 1 3 3 4 5 10 12 12 12 11 9 9 14 15 11 14 13 11 11 12 11 8 3 4 8 8 8 7 8 7 7
8 8 9 8 10 9 8 7 5 3 1 0 2 3 5 7 9 11 12 11 11 14 17 19 20 17 8 10 12 13 11 8 8 10 7 4 6 8 8 9 9 9 10
9 10 10 12 12 10 9 9 6 4 2 1 2 2 3 8 10 11 13 14 14 18 17 18 18 9 8 10 11 11 12 13 12 12 12 6 7 8 9 9 10 9 11
12 13 13 12 11 9 9 8 6 3 1 1 0 1 3 5 7 8 7 9 10 12 11 10 10 10 9 10 17 19 17 13 14 14 14 12 10 10 12 11 12 10 10
14 13 13 11 10 9 7 5 2 1 1 1 2 3 5 6 5 5 5 6 7 7 7 8 8 8 9 10 11 11 12 12 13 13 11 18 16 14 13 14 14 12 10
8 9 9 8 7 4 4 5 4 3 3 3 3 3 4 4 5 4 5 6 7 7 8 9 9 7 9 11 15 17 19 18 15 17 17 16 13 14 16 15 13 14 12
5 3 4 4 4 7 10 9 9 7 5 5 6 5 5 5 5 6 6 5 6 6 8 9 9 9 9 10 11 11 11 10 8 9 12 12 16 20 18 17 16 16 15
5 5 4 4 5 9 12 12 10 8 5 4 5 6 6 7 7 7 8 8 7 7 8 9 11 10 10 11 12 12 11 9 8 8 11 10 13 17 17 17 20 19 18
7 5 2 2 5 9 11 11 8 7 4 5 6 7 8 8 7 8 8 8 9 11 11 10 10 12 12 10 11 12 13 13 12 12 12 13 14 14 16 19 19 19 19
8 4 1 2 2 7 8 8 7 7 6 5 7 7 9 10 9 10 10 10 12 13 14 14 14 12 13 13 12 11 14 15 16 15 15 15 15 17 17 18 18 18 19
6 7 6 4 5 8 9 8 6 6 6 6 7 8 10 12 12 12 13 13 15 15 15 16 18 17 15 13 13 13 13 16 18 19 19 18 18 17 17 17 20 18 19
10 10 10 7 5 10 11 12 10 9 8 8 9 11 11 11 13 15 15 16 17 17 17 18 18 19 19 17 17 16 17 15 14 14 16 16 18 19 17 17 18 19 18
15 12 12 7 5 7 8 11 11 10 11 12 13 13 14 15 16 18 19 20 20 20 19 19 19 18 19 19 18 16 15 14 13 13 14 14 14 17 20 19 20 21 21
16 15 14 9 5 6 8 11 10 11 12 14 16 16 16 17 18 19 20 20 20 21 22 22 20 19 17 18 18 18 15 14 13 13 13 13 15 18 19 18 21 24 24
13 16 15 9 6 5 10 10 10 11 13 15 15 15 16 18 19 19 20 21 21 22 23 22 21 20 19 17 16 15 15 15 14 14 14 14 14 13 16 18 18 19 24
15 18 15 10 6 7 8 9 10 11 13 15 16 17 17 18 18 19 21 21 19 20 21 22 22 21 19 18 17 16 15 14 14 15 15 15 15 15 15 12 14 16 19
18 17 14 9 4 7 8 7 9 11 12 13 17 19 21 22 21 22 22 21 20 20 20 21 22 22 21 20 20 19 17 16 14 15 16 15 16 16 15 13 11 12 13
17 15 12 6 6 6 3 5 6 9 10 12 15 18 21 24 26 27 27 26 25 24 23 24 24 23 23 23 23 23 22 20 17 15 15 16 17 19 17 18 15 15 15
10 11 7 5 5 5 6 9 11 14 15 17 20 22 24 27 31 33 34 33 31 31 28 26 25 27 28 27 26 29 29 26 23 17 20 19 20 20 22 19 17 17 16
4 5 6 7 8 8 10 13 16 19 21 22 24 26 29 31 32 34 38 39 39 37 36 33 33 33 32 32 31 31 29 25 28 25 27 27 26 26 25 24 23 21 20
3 4 7 9 12 13 15 18 20 21 22 27 28 26 27 32 33 35 34 39 43 44 43 41 40 39 38 37 35 29 14 18 24 23 24 30 32 30 31 27 24 23 21
7 10 11 13 15 16 16 15 17 23 30 33 34 36 36 31 29 30 31 31 36 44 49 48 45 42 39 37 35 32 32 30 19 20 25 23 27 27 29 27 26 24 22
12 12 11 9 8 8 11 17 24 28 33 35 34 33 31 32 33 33 33 33 32 34 44 49 44 40 37 34 28 21 21 20 14 11 18 20 25 30 33 31 29 26 24
3 2 3 5 9 14 20 26 31 32 32 33 34 35 37 37 36 36 34 34 35 33 33 28 36 31 25 26 25 20 14 11 13 14 22 30 31 40 36 34 29 29 27

GFSSE_850_spd_015.txt.gz
Wind_Speed
4 8 9 8 7 7 6 6 5 4 1 2 3 5 7 6 5 6 8 9 8 6 5 5 5 5 7 9 10 9 8 7 5 5 4 3 3 2 3 3 1 1 3
7 9 9 6 5 5 4 4 1 2 2 1 2 3 4 6 7 11 10 11 9 8 7 5 4 7 9 11 9 8 8 8 6 4 4 4 3 3 3 4 4 3 3
6 9 9 8 8 7 5 2 1 3 3 4 4 4 6 9 12 12 13 14 13 9 8 7 10 13 12 8 10 9 9 10 7 7 6 4 4 2 5 4 5 4 4
11 12 12 12 12 12 9 6 5 4 3 1 1 2 5 7 11 11 12 10 11 12 12 16 17 15 11 8 10 10 11 11 9 9 9 8 6 4 3 5 7 7 6
15 16 15 15 14 13 11 9 7 4 1 0 1 2 3 7 9 9 11 12 13 15 17 14 14 10 8 8 10 11 13 12 12 12 12 10 9 7 5 4 8 9 10
16 17 16 14 12 9 7 5 3 1 1 1 2 2 3 4 6 7 8 9 10 11 11 9 9 11 12 10 11 15 17 18 16 13 14 14 13 9 10 7 7 11 11
16 16 14 12 9 7 6 6 5 4 4 4 4 4 5 4 4 5 7 7 7 7 8 9 8 9 10 10 11 11 12 15 13 13 12 12 16 14 12 12 12 11 12
14 14 13 10 8 8 7 7 4 2 3 4 4 5 5 5 5 4 6 7 8 9 11 10 9 9 9 10 10 11 13 15 17 17 16 16 16 15 15 14 11 10 13
13 11 9 7 6 6 8 9 6 3 2 3 4 5 5 7 7 8 7 6 7 7 8 8 9 11 11 11 11 11 10 8 7 8 10 12 13 16 16 14 15 13 15
10 9 7 5 5 6 9 8 6 6 3 3 3 4 5 7 8 8 8 8 7 8 10 11 10 10 11 12 12 11 12 9 8 8 9 9 10 11 14 19 18 17 15
9 8 6 2 3 6 7 7 5 5 4 4 4 5 6 6 8 8 9 10 10 11 13 13 13 13 13 12 12 14 12 11 10 11 11 11 10 11 14 16 19 18 16
9 7 4 2 2 6 7 6 5 4 5 5 6 7 7 9 9 10 11 12 12 14 14 15 16 16 14 13 12 12 14 13 12 12 14 14 13 12 13 15 17 18 18
8 8 5 3 1 6 6 7 4 3 4 5 7 8 9 10 11 12 13 14 15 17 18 17 18 19 18 16 14 13 13 14 15 14 14 13 14 16 15 15 16 18 17
7 6 7 7 3 1 4 9 7 6 6 7 9 10 11 12 12 13 15 17 18 19 20 19 19 21 21 20 19 16 14 14 15 14 13 12 11 12 14 14 14 17 16
12 11 10 10 6 3 3 8 6 6 7 8 10 11 11 12 13 15 17 18 19 20 20 21 21 21 21 20 18 16 14 12 11 11 11 11 11 11 11 13 16 18 18
12 13 12 13 9 5 4 7 6 5 6 8 9 10 11 13 15 17 17 18 18 20 21 21 22 21 20 20 19 17 15 13 11 10 10 11 11 11 11 11 13 16 20
14 15 14 14 10 6 6 5 6 5 6 8 10 12 13 14 15 17 19 19 20 20 21 22 22 21 20 19 19 18 17 16 14 12 11 11 11 13 14 13 12 13 16
16 16 17 15 10 6 6 6 4 5 6 8 11 13 15 17 19 20 21 21 20 22 22 23 22 22 22 21 19 18 18 17 16 15 13 12 12 11 12 14 14 15 14
13 15 17 14 9 7 6 5 3 3 6 7 9 12 14 17 20 23 25 26 26 26 25 25 24 23 23 23 23 22 21 21 20 19 16 14 13 13 13 14 15 16 16
11 13 14 12 9 9 7 7 6 8 10 12 14 17 19 21 22 24 28 30 30 31 31 29 29 28 26 24 25 26 26 26 25 24 22 19 15 15 15 15 15 15 17
5 11 12 10 9 8 9 10 10 11 13 16 18 20 24 25 26 27 30 32 33 36 38 38 36 34 32 30 29 29 31 30 30 28 28 24 20 18 21 16 16 17 18
3 5 10 11 11 11 12 14 16 17 18 21 22 25 27 27 29 33 33 34 35 36 36 39 42 42 40 36 35 26 21 23 26 28 29 28 24 22 23 22 20 18 18
5 8 10 11 12 12 14 15 15 16 17 21 27 32 34 33 29 28 29 31 32 32 34 35 38 44 46 41 41 32 17 23 19 22 25 28 24 22 22 22 21 19 18
6 7 9 9 10 9 7 10 14 21 25 27 30 31 30 29 30 32 33 32 33 33 36 35 35 38 40 44 37 43 41 38 23 23 22 24 27 26 25 22 20 21 20
1 2 1 3 6 10 15 20 24 27 28 29 30 33 35 35 36 36 35 34 34 34 35 36 35 34 33 33 32 31 32 33 30 21 26 20 19 21 23 23 25 25 22
4 3 4 8 15 21 25 28 29 31 32 33 35 39 40 39 38 36 33 31 29 27 26 25 24 20 13 18 22 24 17 23 21 11 11 14 18 20 18 25 26 20 22

GFSSE_850_spd_021.txt.gz
Wind_Speed
10 4 5 4 4 5 4 5 5 4 2 2 1 2 2 4 3 4 5 5 4 3 3 3 3 4 4 6 6 6 7 7 8 7 8 6 6 6 2 1 1 2 6
11 8 6 4 4 5 4 4 4 4 3 3 3 3 4 4 4 5 7 7 5 4 4 5 5 6 8 9 11 11 12 10 9 8 6 5 6 7 4 2 3 6 6
13 9 9 9 7 7 5 4 3 3 2 2 3 3 4 4 5 6 8 8 6 7 7 9 10 11 12 15 14 13 14 12 11 9 6 2 14 9 8 5 7 9 6
14 12 7 10 9 9 6 5 4 2 1 1 1 3 4 6 6 8 9 10 9 9 10 13 14 16 18 17 14 13 14 13 13 11 6 8 9 13 10 8 7 7 6
14 10 13 13 12 9 8 6 4 2 1 1 1 1 2 4 7 7 8 10 12 12 14 14 13 13 13 12 11 12 13 14 14 12 8 12 11 12 10 8 7 8 8
14 13 15 13 11 9 7 5 4 4 4 3 2 2 3 3 5 6 7 8 9 10 11 11 11 11 11 11 12 13 14 15 16 11 13 14 16 14 14 11 10 10 9
14 14 13 12 10 8 7 5 4 3 3 3 3 4 4 4 4 5 5 6 7 8 9 9 10 10 10 11 11 12 12 13 12 10 17 18 9 16 18 16 12 11 13
13 11 11 10 9 7 6 6 4 3 3 3 3 3 3 4 5 5 6 6 6 7 7 8 9 9 9 9 10 10 10 10 7 10 14 10 16 14 14 15 15 15 15
10 10 8 6 7 6 6 7 5 5 4 4 4 4 5 5 6 6 5 5 7 7 8 10 11 12 11 11 11 11 11 10 8 8 10 15 14 16 15 17 17 19 17
10 9 7 5 4 3 6 6 5 5 5 5 5 6 7 8 8 8 7 7 9 10 11 13 13 14 13 13 13 12 12 9 6 9 10 16 15 15 12 13 15 18 21
10 9 7 4 4 3 3 6 6 5 6 8 10 10 10 7 8 10 12 10 11 12 12 13 14 15 15 14 14 13 12 5 9 7 12 16 19 15 14 14 13 14 15
11 9 6 5 3 4 3 3 2 2 1 2 3 5 5 6 7 9 12 15 14 13 14 15 16 15 13 8 14 17 10 11 11 10 13 19 20 16 17 17 15 15 16
11 10 8 5 3 4 2 4 2 3 3 4 6 5 6 8 7 8 9 11 12 15 10 13 14 12 11 12 11 11 12 12 10 11 16 20 16 14 14 16 18 18 17
11 9 7 6 5 2 1 2 2 2 2 2 4 7 6 6 8 8 9 10 11 11 12 12 12 13 14 13 14 15 13 12 10 11 16 18 15 13 13 13 14 16 17
9 9 8 8 8 5 3 2 3 2 2 3 3 4 5 5 7 8 10 10 12 12 12 13 14 14 14 15 14 13 13 13 13 12 12 19 15 12 12 12 12 13 15
10 9 9 9 8 6 4 4 3 3 2 1 1 1 4 6 6 8 10 11 12 13 14 15 15 16 15 15 16 15 15 14 14 13 12 18 17 15 14 13 14 14 15
10 10 9 9 10 10 6 4 3 4 4 3 3 4 5 9 9 12 11 13 14 15 18 18 19 18 18 18 17 18 17 16 15 15 15 13 18 16 16 16 15 15 17
9 7 9 10 11 10 7 6 5 5 5 5 5 6 8 10 13 15 13 15 16 19 18 19 20 20 20 21 21 20 19 19 18 18 17 16 16 16 18 18 17 15 15
8 8 9 10 9 9 7 5 7 7 6 6 8 8 10 10 14 18 19 18 19 20 22 22 23 22 23 24 24 24 24 22 21 21 20 20 20 19 17 20 19 18 17
4 3 5 7 7 8 6 6 6 7 7 9 9 10 11 11 12 15 17 21 21 21 23 24 25 25 27 28 28 29 29 27 26 25 24 23 22 21 21 21 22 22 19
5 4 4 4 7 2 4 5 7 7 9 11 11 11 11 12 15 17 18 20 22 20 21 24 25 26 28 27 30 31 33 32 33 32 29 27 26 24 24 21 22 16 18
9 7 5 3 1 1 3 4 7 9 10 11 10 11 13 15 26 28 26 26 23 23 24 24 25 27 28 27 29 30 33 34 31 35 37 34 33 29 28 25 24 21 20
9 8 5 4 3 3 3 5 6 9 11 12 13 18 20 22 21 27 26 26 23 23 23 23 24 25 29 29 27 30 30 31 30 30 28 34 31 30 32 29 29 26 23
8 7 6 5 4 5 7 5 10 9 13 17 18 20 22 25 22 20 21 21 22 22 22 22 20 22 21 28 27 27 30 28 22 30 36 32 28 32 28 30 28 27 22
7 6 5 5 7 8 10 13 12 13 16 19 18 19 19 20 21 22 22 22 23 20 18 17 17 14 14 17 15 23 29 25 21 15 26 28 33 24 25 29 26 23 21
6 6 7 8 9 11 11 12 13 15 15 17 18 20 19 21 22 22 22 21 19 16 14 15 17 15 16 17 18 20 21 21 21 19 17 24 20 23 27 21 18 22 24

GFSSE_850_spd_024.txt.gz
Wind_Speed
8 6 9 10 10 10 9 8 7 6 5 5 5 3 3 2 3 4 5 5 4 4 6 5 6 7 8 8 8 9 9 10 10 8 8 7 8 6 5 2 3 3 3
8 11 10 9 8 8 7 6 6 6 5 5 4 2 1 2 3 4 5 6 6 5 6 8 10 10 11 13 14 15 14 13 12 9 7 7 9 9 6 5 3 2 3
7 12 10 10 9 8 8 7 6 5 4 3 2 2 3 3 4 4 6 7 6 6 7 10 11 12 15 17 18 19 18 16 14 11 8 6 12 11 11 8 5 4 2
17 8 12 12 12 11 10 9 8 6 5 4 3 4 4 5 5 6 7 9 8 9 10 11 12 12 13 12 13 13 14 14 14 13 9 8 13 6 6 10 8 6 3
10 12 16 15 14 13 11 9 7 6 5 5 4 4 4 4 5 5 6 8 9 10 10 10 10 10 10 11 11 12 12 12 12 12 9 10 11 6 3 7 9 5 4
13 17 17 15 13 11 9 7 5 4 4 4 4 3 3 3 3 4 5 7 8 9 10 10 11 11 11 11 11 11 11 13 13 12 6 14 13 19 8 10 11 9 6
16 17 15 13 11 9 8 7 6 5 4 4 4 3 4 4 4 5 6 7 8 8 9 9 10 11 11 11 11 11 10 10 10 7 4 11 21 16 9 14 15 11 9
15 14 13 11 9 8 8 8 7 6 6 5 5 6 6 6 6 6 7 7 7 8 8 9 10 10 10 10 10 10 10 10 8 3 11 11 17 14 13 16 14 13 13
11 12 12 10 9 9 10 8 8 7 8 7 8 7 7 7 9 8 7 6 8 8 9 10 11 11 11 11 12 11 10 10 8 2 8 13 13 17 19 18 16 16 16
12 10 5 7 10 9 9 8 7 7 8 10 10 11 12 12 16 13 10 13 11 11 11 12 13 13 13 13 12 12 13 9 5 6 12 15 15 17 19 17 13 14 17
11 10 9 8 6 4 7 9 7 9 11 11 12 14 10 13 10 14 16 17 16 15 15 15 15 16 15 10 12 14 13 4 5 9 14 14 18 19 19 17 14 14 14
10 8 9 5 4 8 3 7 10 10 8 7 6 9 3 8 5 10 13 16 16 19 17 14 20 17 11 9 11 12 10 9 16 16 16 18 21 21 19 17 16 15 15
11 8 10 9 5 8 2 6 3 3 3 5 1 8 4 10 5 4 8 12 15 15 13 17 16 15 14 21 17 14 16 17 13 10 18 19 22 22 18 16 15 16 17
14 15 10 4 5 5 5 2 4 2 2 2 4 4 4 2 5 5 4 7 6 9 12 12 14 14 18 17 19 22 18 16 13 11 17 18 22 21 17 16 15 14 14
15 13 14 10 5 3 1 2 2 4 2 6 1 6 5 4 7 7 8 8 8 10 12 13 17 17 17 17 17 19 22 19 16 15 19 21 22 21 18 16 15 14 14
12 13 13 14 8 5 3 7 3 2 2 2 3 7 5 6 8 10 11 13 14 11 15 20 20 21 21 19 19 17 22 24 20 17 17 19 23 21 18 18 17 16 15
13 11 15 12 7 7 8 6 2 4 6 4 5 9 10 7 8 11 13 15 14 15 20 24 19 21 22 22 23 23 21 25 25 21 20 22 25 23 21 18 20 19 19
8 9 7 6 4 8 5 7 2 5 7 5 8 8 10 13 13 15 15 15 16 20 24 26 27 24 25 25 26 25 25 26 25 25 24 23 24 24 24 22 19 21 22
4 3 1 2 7 4 6 7 7 9 9 2 9 8 12 12 12 19 19 19 20 23 26 25 25 26 26 26 27 27 27 27 28 28 27 27 26 24 25 24 23 22 23
2 3 2 3 6 10 8 6 6 7 7 8 8 10 15 17 17 18 21 27 28 31 34 30 26 28 32 32 31 32 32 32 32 30 27 30 29 29 27 31 28 26 26
9 9 9 8 8 2 3 5 7 6 7 6 9 12 15 15 22 22 27 23 25 29 26 27 29 31 31 29 30 30 30 30 31 33 34 36 34 33 34 34 35 32 32
11 10 7 4 2 5 1 4 7 8 10 10 10 11 13 19 22 28 28 30 21 24 28 29 24 25 26 25 26 29 31 31 28 29 34 37 38 39 38 35 36 35 30
12 11 9 6 5 6 3 2 6 8 7 10 13 19 29 25 25 27 20 21 24 26 32 30 26 26 29 27 21 22 25 25 25 28 29 23 22 28 34 34 36 37 33
10 10 7 5 4 7 9 7 8 7 10 13 17 18 22 25 22 19 22 24 27 28 31 27 20 23 25 27 30 28 25 21 12 25 27 30 30 27 25 28 30 23 30
6 7 5 4 7 9 10 10 13 14 18 20 16 18 19 18 19 23 25 26 28 31 31 22 22 22 21 22 25 29 28 29 25 19 26 25 26 26 19 24 32 29 20
7 6 6 7 8 10 13 15 15 17 15 17 18 19 17 22 26 27 28 28 28 21 20 21 22 26 24 24 25 22 23 23 21 20 25 33 30 31 34 31 26 28 31

GFSSE_850_spd_027.txt.gz
Wind_Speed
14 16 13 12 12 12 11 9 8 8 8 7 6 7 8 9 9 9 8 8 7 7 6 5 5 5 5 6 6 7 9 10 10 8 6 6 5 5 4 3 1 4 3
16 16 14 13 12 11 10 9 8 8 8 8 8 8 7 7 7 7 7 8 8 8 8 9 9 9 10 11 11 11 11 10 9 7 5 4 6 4 4 2 3 1 2
18 17 15 13 12 12 10 9 8 8 8 7 7 6 7 6 7 7 7 7 7 8 9 10 10 11 12 13 14 13 11 9 7 4 2 3 7 6 5 3 3 4 1
16 16 16 14 13 12 12 11 10 9 8 7 6 6 6 6 5 5 5 6 7 8 9 9 9 9 10 10 11 11 10 9 8 6 3 4 6 7 4 1 5 4 4
15 17 18 17 15 13 12 10 8 7 7 7 6 6 6 6 5 6 7 8 8 8 9 9 9 9 9 9 9 10 10 9 8 7 4 4 9 10 2 10 5 7 6
20 20 19 16 14 12 9 8 6 6 7 7 7 7 7 7 8 8 8 9 8 9 9 9 10 10 10 9 9 8 8 8 6 4 2 3 12 14 15 10 8 8 6
22 19 17 14 12 10 8 7 7 7 7 7 7 7 6 7 7 6 6 7 7 7 7 8 9 10 11 11 10 10 9 8 5 4 1 4 7 12 12 12 9 11 8
19 18 15 13 11 9 9 9 10 11 10 9 9 8 7 7 8 8 8 8 8 8 8 9 10 11 11 11 12 11 10 9 5 2 3 6 8 10 13 13 13 14 13
16 16 13 11 9 10 11 11 11 12 11 10 9 9 9 10 11 12 11 11 11 11 11 11 11 12 12 12 11 12 11 9 4 1 3 6 12 13 13 16 17 14 15
12 9 9 7 9 12 12 10 11 11 11 12 14 12 9 10 11 14 12 13 13 13 12 11 12 14 12 10 7 9 10 4 3 5 7 7 12 16 15 16 14 14 14
11 8 11 7 8 9 12 14 11 9 9 10 10 10 9 8 8 11 11 12 13 13 15 13 19 14 12 9 11 11 8 4 7 9 13 14 15 18 20 19 16 15 14
15 10 7 3 9 8 8 6 6 9 9 9 8 7 5 6 7 8 8 9 12 12 12 16 16 18 17 19 20 18 17 15 15 14 17 16 17 20 21 20 20 17 16
15 17 15 6 12 7 6 4 4 6 5 4 4 5 6 3 1 5 6 8 8 9 12 14 16 16 19 22 22 24 20 17 17 19 17 16 17 22 23 22 20 18 17
17 19 15 7 7 11 7 7 6 7 4 3 3 4 3 1 2 3 5 6 8 8 10 12 13 20 21 20 22 22 23 24 21 16 17 19 18 19 22 24 21 19 17
21 20 17 13 11 9 10 8 9 10 7 7 9 5 1 2 3 4 6 8 8 6 9 13 16 22 21 20 19 20 21 23 22 21 18 19 21 24 23 22 21 19 18
21 24 22 15 8 2 7 6 2 9 7 6 7 6 5 6 5 6 7 9 10 10 13 17 20 24 21 22 23 22 24 25 26 24 21 21 23 22 22 21 19 20 20
21 26 19 16 4 11 11 8 5 6 4 6 7 8 11 12 12 12 11 12 13 15 19 21 25 25 25 25 24 24 24 25 27 30 29 27 25 24 26 25 21 19 21
12 16 28 13 19 24 7 5 6 8 9 7 8 11 11 12 15 16 17 18 18 20 24 26 28 30 28 27 28 29 26 25 26 30 33 33 28 27 24 24 24 22 20
19 13 7 4 9 7 5 13 6 7 8 8 6 7 11 13 15 19 22 23 20 24 26 26 27 26 27 29 32 34 34 32 30 31 27 28 32 31 29 26 25 26 25
13 10 6 4 3 2 6 4 3 4 4 5 7 9 12 14 16 19 23 26 28 29 30 32 31 28 31 34 35 34 32 31 30 27 27 29 30 33 34 32 30 30 31
8 4 5 6 6 5 1 3 4 5 3 3 10 14 13 12 16 22 26 23 24 27 26 27 31 32 29 28 31 33 30 28 30 27 26 28 27 31 36 40 38 37 33
6 3 3 3 2 1 3 4 6 7 6 4 6 7 10 12 13 16 19 20 19 21 24 29 33 33 33 28 30 33 30 32 29 24 24 25 22 21 25 29 34 42 37
9 6 4 4 6 6 2 3 6 9 9 10 12 15 18 20 22 22 20 19 21 25 28 28 31 34 30 26 22 19 18 18 31 31 29 26 31 30 23 18 17 27 35
9 6 8 10 13 14 14 14 15 17 16 17 20 20 22 24 23 24 22 25 31 31 31 33 30 27 26 27 26 22 24 24 18 28 25 24 23 28 29 21 25 26 23
9 10 9 7 9 12 17 19 20 19 18 15 13 18 18 20 22 24 30 33 27 25 26 24 23 25 27 26 27 27 28 23 23 24 33 28 31 29 30 32 29 23 19
8 9 7 3 6 10 9 10 10 10 12 15 23 26 28 28 31 34 29 23 23 22 22 24 27 30 31 28 23 20 20 20 19 18 24 32 30 29 24 19 19 20 20

GFSSE_850_spd_033.txt.gz
Wind_Speed
21 20 15 14 14 11 10 9 8 9 9 9 10 10 9 8 7 7 6 6 5 5 5 5 5 5 5 5 5 6 8 8 8 7 7 6 5 5 4 4 3 4 3
24 21 17 14 13 12 10 9 9 8 9 9 9 8 7 7 7 6 6 5 4 4 4 5 5 4 4 5 6 6 6 6 5 4 7 8 6 5 6 7 5 3 2
24 22 18 14 12 10 9 9 8 8 8 8 7 7 7 7 7 6 5 5 5 6 7 7 6 7 6 5 6 6 5 4 3 3 7 6 6 7 10 7 7 6 5
23 21 17 14 13 11 10 10 9 8 7 7 7 8 7 6 5 5 5 6 7 8 8 9 9 9 9 9 7 6 5 4 4 4 5 6 5 4 9 3 10 7 5
23 19 17 15 13 12 10 8 8 8 8 8 8 7 6 6 6 6 7 8 8 9 8 8 9 10 11 11 9 7 6 4 3 4 5 5 5 5 4 12 12 9 8
22 19 16 15 13 11 9 8 7 8 8 7 8 7 7 6 6 7 8 8 8 8 7 8 8 8 8 8 7 6 5 3 3 4 4 4 5 5 7 9 11 13 9
22 20 17 13 11 9 7 7 8 9 9 8 8 7 6 6 7 8 8 8 7 6 6 6 7 7 7 7 7 7 6 4 3 3 3 4 5 5 6 9 10 10 11
23 20 16 12 9 8 8 9 9 10 9 8 8 7 7 8 9 8 9 9 8 8 8 8 10 10 9 8 7 8 9 8 5 5 4 4 4 4 7 8 8 9 12
19 16 14 11 10 9 9 9 9 10 9 9 9 9 9 9 9 10 9 10 10 10 10 10 12 13 12 11 9 10 9 10 6 6 6 6 6 8 8 8 12 11 13
17 13 11 11 11 10 11 11 10 11 10 9 10 10 9 9 8 9 9 9 9 10 10 10 13 14 15 15 14 13 13 9 9 10 10 11 11 9 10 10 11 13 15
16 13 11 12 14 13 13 13 11 10 9 9 8 8 7 7 6 6 7 7 8 9 9 9 11 13 15 17 17 16 14 12 12 12 14 16 16 16 15 13 13 14 16
16 14 12 11 12 13 12 12 10 9 9 6 6 4 4 3 4 4 5 5 6 5 5 7 9 10 12 16 17 16 16 15 15 14 14 15 15 17 17 16 15 16 17
15 17 14 13 12 11 9 8 7 5 5 3 2 3 1 2 3 3 3 3 4 5 6 8 9 10 13 17 19 18 18 18 17 16 15 15 16 16 19 21 21 19 18
20 17 16 15 13 12 8 5 3 2 2 2 3 5 5 7 6 5 4 4 6 7 8 9 11 13 15 18 20 18 18 19 19 19 18 17 18 18 17 18 21 23 23
22 19 17 17 15 9 7 5 4 4 4 5 5 7 9 9 9 8 8 8 10 12 13 14 16 18 20 22 23 23 24 23 20 20 20 19 19 20 21 20 20 21 22
25 22 20 20 15 9 6 6 4 5 7 8 8 9 10 11 12 12 12 12 13 14 16 18 19 20 22 24 27 30 30 27 25 23 22 22 22 23 23 24 24 23 22
27 24 23 19 16 8 9 8 6 5 5 6 8 9 12 13 12 12 13 13 14 17 18 18 21 24 28 30 31 31 29 28 27 28 28 28 29 28 24 25 27 27 24
30 29 27 24 19 14 6 11 8 7 9 8 9 12 14 15 13 13 14 15 17 19 20 23 27 30 31 30 32 32 31 29 27 26 24 25 27 28 28 30 26 28 28
33 32 33 27 18 9 8 11 9 7 8 9 10 14 17 16 15 15 16 17 18 22 25 28 30 31 33 35 35 35 33 31 30 27 25 25 26 27 27 27 26 28 28
30 34 25 18 13 11 9 10 8 7 7 7 8 9 9 12 13 15 18 20 24 27 28 29 30 32 33 35 37 36 32 28 23 14 15 17 20 23 24 24 22 25 28
22 22 18 9 0 3 6 6 6 6 3 4 5 7 9 12 15 19 22 26 27 27 29 30 32 33 36 38 39 36 36 16 17 22 17 20 23 23 23 22 22 22 22
9 9 9 8 6 4 3 4 4 4 7 10 13 15 19 23 25 27 28 30 30 32 35 34 32 31 28 24 25 26 18 33 16 29 26 19 23 28 29 29 27 24 21
12 11 11 9 7 5 4 5 6 8 14 19 20 20 20 20 22 25 25 26 28 32 27 22 21 19 21 21 22 22 18 14 35 29 34 18 21 24 27 30 31 31 30
13 10 11 10 8 9 11 11 14 15 17 17 18 18 18 20 22 24 25 28 26 22 22 20 20 19 19 20 22 20 19 21 26 26 20 26 21 22 21 20 21 19 20
9 7 5 3 1 5 9 13 13 14 16 15 13 15 17 23 28 30 30 26 27 27 26 22 18 17 17 18 22 19 17 16 19 20 21 17 29 24 21 15 15 13 10
8 4 1 3 7 9 11 13 16 17 15 13 14 18 23 26 28 27 27 29 31 29 27 22 20 18 18 20 16 15 19 19 23 21 24 31 30 31 29 18 10 8 9

GFSSE_850_spd_036.txt.gz
Wind_Speed
24 21 19 17 16 15 13 12 12 11 11 11 11 10 9 8 8 7 6 5 4 4 4 5 5 5 6 6 6 7 7 7 7 7 7 5 4 5 7 9 7 6 5
24 22 20 18 15 14 12 11 11 11 11 10 10 9 8 7 6 6 5 5 5 5 6 6 5 6 6 7 7 7 7 6 5 6 6 6 5 5 7 7 6 5 5
23 22 20 17 16 14 12 11 10 9 9 8 9 8 8 8 8 7 7 8 8 8 8 8 7 7 6 6 6 6 7 6 5 6 6 5 5 5 6 6 7 7 6
23 21 19 17 15 12 10 9 9 8 8 8 8 8 9 8 8 9 9 9 9 9 9 10 10 10 10 9 8 7 7 6 6 5 4 3 2 5 6 2 9 8 7
22 20 17 14 12 11 10 9 9 8 8 8 8 8 8 9 9 9 10 9 10 10 10 10 9 9 10 9 9 8 7 7 6 5 4 3 3 4 7 9 8 7 8
21 18 16 13 12 11 10 10 8 8 8 8 8 9 9 9 9 10 10 9 9 9 8 9 9 10 10 9 10 9 9 10 8 6 4 3 3 4 5 6 9 8 5
20 18 16 14 12 10 9 9 8 8 9 9 10 10 9 9 9 10 9 9 9 8 8 9 9 9 9 10 10 10 10 11 11 7 5 4 5 7 8 7 8 8 7
19 18 16 13 10 9 9 10 10 10 11 10 10 9 9 10 10 11 12 11 12 11 11 13 14 14 13 11 11 12 12 11 10 10 7 7 7 7 9 10 8 8 10
19 17 14 12 10 10 9 11 11 11 12 11 10 11 10 11 11 11 12 12 12 12 13 13 14 15 15 15 14 13 14 12 10 10 10 10 10 13 13 12 12 11 11
17 14 11 10 11 11 12 12 11 11 11 11 11 10 10 10 10 9 10 10 10 11 10 10 11 12 13 14 15 15 15 14 13 11 11 12 14 14 15 15 15 14 15
17 13 11 12 12 13 13 13 13 11 11 12 10 9 7 7 7 6 7 6 7 7 7 6 7 8 10 12 13 13 14 14 14 14 14 14 14 14 14 15 16 16 17
17 14 13 14 14 14 13 14 13 12 12 10 8 7 6 4 5 3 3 3 3 3 2 3 5 6 8 11 13 13 13 14 15 14 14 14 15 16 17 15 16 17 19
16 15 15 15 13 13 12 12 12 10 9 7 5 4 1 2 1 1 1 3 3 3 5 6 7 8 11 14 16 17 16 16 18 17 16 15 15 14 15 18 19 18 18
17 16 15 15 13 12 11 8 7 6 4 3 1 1 3 4 4 5 5 6 7 8 8 9 11 13 15 16 18 20 21 23 22 21 19 18 18 18 18 16 17 21 22
18 17 15 15 13 12 9 8 7 4 4 3 2 4 6 6 6 7 7 8 10 11 12 12 14 15 16 17 20 25 27 28 27 23 22 21 21 21 21 22 21 21 22
18 17 16 13 12 10 8 8 9 10 9 8 7 7 7 6 5 7 8 9 11 13 14 16 17 17 20 23 25 27 28 30 29 26 24 25 25 25 24 24 25 26 25
19 17 18 17 15 13 11 10 9 9 10 10 10 11 11 9 9 9 10 12 14 15 17 18 20 22 25 26 28 29 30 31 31 29 27 26 25 24 27 29 30 28 29
24 25 25 22 18 9 7 6 10 9 9 10 11 11 12 12 11 13 14 15 16 18 20 23 25 27 29 32 33 32 32 33 33 30 27 25 23 23 23 23 26 28 30
26 28 30 25 23 13 10 16 13 8 10 10 8 10 12 13 14 14 13 16 19 21 24 27 29 32 34 35 34 33 33 31 29 26 24 21 19 19 19 21 23 23 26
28 29 28 24 22 13 22 14 5 3 1 4 5 5 6 9 12 15 18 22 25 27 29 31 33 33 32 32 31 30 28 26 21 16 19 23 23 23 24 24 23 23 24
14 17 21 18 5 8 9 6 2 5 8 9 11 13 14 14 16 19 21 25 28 31 33 34 35 33 29 28 29 30 29 9 19 20 13 23 26 26 26 28 29 30 29
8 12 15 15 14 12 8 7 8 10 11 14 16 18 18 18 20 23 25 27 30 31 31 31 29 27 26 25 25 27 12 26 9 18 28 26 19 21 24 25 26 27 30
19 18 16 14 12 11 10 9 9 9 11 13 14 16 16 16 18 22 26 28 29 28 27 27 26 25 24 22 22 18 12 9 29 20 28 25 25 23 21 22 22 23 22
15 13 11 9 7 8 7 5 6 8 11 13 15 15 14 16 21 26 27 24 24 27 27 26 23 20 18 16 16 16 15 18 19 14 13 24 21 23 24 23 19 15 16
9 8 5 4 3 2 4 7 9 12 14 12 11 11 14 19 22 23 21 23 27 28 26 24 22 21 19 19 19 17 17 19 20 18 25 24 27 24 24 24 19 10 10
6 5 7 3 3 5 7 10 13 14 13 11 10 14 19 22 22 25 25 27 28 29 25 22 20 17 17 18 18 18 19 20 18 19 20 20 22 21 21 22 17 13 11

GFSSE_850_spd_039.txt.gz
Wind_Speed
23 22 21 19 17 16 15 15 14 13 14 13 13 12 10 9 8 6 6 4 3 2 2 2 3 4 3 4 4 5 6 6 7 6 6 5 5 5 7 6 6 6 5
23 22 22 19 18 17 15 13 12 12 13 12 11 9 8 8 7 6 5 4 4 5 5 5 4 3 4 4 4 5 6 6 7 6 5 4 3 3 6 7 6 4 4
23 22 21 18 17 16 15 14 14 13 11 10 9 9 8 8 8 8 7 7 8 8 8 7 6 6 7 7 6 6 6 6 6 5 4 4 2 3 5 5 8 7 6
24 23 20 18 16 15 14 13 12 11 10 10 10 9 9 9 10 10 10 9 10 10 10 10 9 10 9 9 9 8 8 8 7 5 3 3 3 5 3 3 7 6 5
23 21 19 17 15 13 12 11 10 10 10 9 9 10 10 10 11 10 10 11 10 10 10 9 10 10 10 10 10 10 10 9 8 7 5 3 2 4 5 6 5 6 6
22 21 19 15 14 13 12 10 10 10 10 10 10 10 10 11 11 11 11 10 10 10 10 10 9 9 9 9 11 11 12 12 11 9 7 5 4 4 6 8 6 5 5
22 19 17 15 14 12 10 10 10 11 12 12 12 11 11 11 11 11 10 10 10 10 10 11 12 11 11 11 12 12 12 12 11 10 8 7 6 8 9 8 9 7 6
19 18 17 15 12 10 10 11 12 13 13 13 12 11 12 12 12 12 12 12 12 12 12 13 14 14 14 14 14 14 14 12 11 10 9 9 9 9 11 12 11 10 9
18 18 16 13 12 12 11 13 13 14 14 13 13 13 12 12 13 12 13 12 11 11 10 11 12 12 12 13 14 15 16 15 14 12 11 10 11 13 14 14 14 13 12
19 16 14 13 13 13 13 13 14 14 13 12 13 12 12 11 10 11 10 8 8 8 8 7 7 8 9 10 11 12 12 12 13 14 14 12 11 11 13 15 15 15 15
17 15 13 12 12 13 13 14 13 13 13 12 12 10 9 8 7 7 7 6 6 5 4 3 3 5 7 9 11 12 13 13 14 14 14 14 13 12 12 12 13 14 15
18 15 13 13 13 13 13 13 12 12 12 10 8 7 6 5 4 3 3 3 2 1 1 4 5 6 8 10 12 13 14 15 17 18 17 17 17 16 15 15 14 14 15
16 16 15 14 14 13 12 12 10 11 9 7 6 4 3 1 1 0 2 2 2 2 4 6 7 9 11 12 13 14 16 19 22 22 22 21 20 19 19 18 18 19 18
17 15 14 14 14 12 11 9 7 6 6 5 3 2 2 2 3 3 4 5 5 5 7 9 11 12 13 14 15 18 22 23 24 26 27 26 24 23 22 22 22 22 22
16 14 13 11 12 11 9 7 6 5 6 6 7 6 5 5 5 6 5 6 8 9 11 12 13 14 15 17 20 23 25 26 28 29 30 29 27 25 24 25 24 25 26
15 14 13 14 12 10 8 6 8 10 12 14 13 11 10 9 8 8 8 9 11 12 14 14 15 17 19 22 24 26 28 30 31 31 31 30 28 27 26 26 28 28 28
17 17 17 16 14 12 10 5 3 10 12 14 17 17 14 11 9 10 11 12 13 13 13 16 18 20 23 25 27 30 31 32 33 33 31 28 26 25 25 26 26 26 29
19 21 20 17 14 12 10 10 16 7 15 15 17 13 11 8 7 8 9 10 11 13 17 21 23 26 29 31 32 31 31 30 29 27 27 25 24 23 23 23 25 27 27
16 19 21 21 20 14 9 9 16 11 11 8 5 6 6 7 7 8 9 13 16 19 23 25 27 28 29 28 27 26 25 25 24 24 22 22 23 24 25 26 26 26 26
19 22 22 21 21 17 6 7 5 1 1 3 5 6 8 9 10 12 15 17 20 24 26 27 27 26 25 25 25 23 24 22 16 15 19 24 23 24 27 28 28 29 28
11 10 13 16 11 3 9 11 10 5 4 1 5 8 10 10 10 13 15 19 24 26 26 25 25 26 24 27 25 18 16 10 10 20 17 20 25 24 26 26 27 27 28
7 8 8 11 13 15 12 10 6 3 3 7 11 11 13 14 13 14 19 23 23 20 21 23 24 24 23 23 19 16 11 13 8 9 22 20 22 21 23 23 24 25 25
23 22 20 20 19 16 11 6 2 0 3 7 10 12 12 10 12 18 21 21 19 22 24 24 24 22 19 18 18 10 11 10 20 12 17 16 21 24 25 25 24 23 23
22 19 17 15 13 10 6 3 4 5 7 9 10 10 8 11 16 18 18 17 19 21 23 23 22 20 19 12 12 11 12 14 14 16 14 18 20 20 20 25 25 21 19
18 16 12 11 9 6 5 4 7 8 8 8 8 7 11 14 17 17 19 19 21 22 22 23 22 21 17 13 11 11 12 13 15 14 22 20 20 20 18 16 20 22 17
15 11 10 8 10 7 4 5 6 7 6 6 7 11 14 16 18 20 20 21 22 24 25 23 22 21 16 15 14 14 13 14 15 14 15 20 23 22 20 18 15 16 16

GFSSE_850_spd_045.txt.gz
Wind_Speed
20 24 22 20 19 18 17 17 15 13 12 10 9 8 7 7 6 5 5 4 4 5 5 5 5 5 6 6 6 7 7 7 7 8 9 8 6 7 6 5 13 7 7
23 26 23 21 19 19 17 16 13 12 11 9 8 7 6 4 4 4 3 3 4 4 5 5 5 6 7 9 9 9 9 9 9 9 9 6 8 7 6 6 5 8 8
21 25 24 22 20 18 16 14 12 11 10 8 8 6 5 3 3 3 4 4 5 6 6 7 7 8 9 9 10 10 11 11 13 16 11 4 9 9 6 7 9 9 9
22 23 22 21 19 17 15 13 11 10 9 8 7 6 5 5 5 5 6 6 7 7 7 7 8 9 10 11 11 11 11 12 13 14 8 6 9 6 7 9 11 10 9
19 19 20 21 18 16 14 12 10 10 8 7 6 5 6 7 7 7 8 8 7 6 6 6 7 8 9 11 11 11 11 12 15 12 7 4 10 8 8 10 11 12 10
20 21 20 19 16 14 12 11 10 9 8 7 7 7 8 9 9 9 8 7 6 6 6 7 8 9 11 13 13 14 13 14 13 8 8 7 8 9 10 10 11 11 11
20 15 20 17 15 13 12 11 10 9 8 8 8 8 9 9 9 8 8 7 7 8 9 9 9 11 13 14 15 16 16 17 14 10 8 6 11 9 10 10 10 10 10
17 19 19 18 16 15 12 11 10 9 9 9 8 9 9 9 8 7 7 7 9 8 8 8 8 10 11 12 12 14 15 14 11 10 9 10 14 13 13 12 12 11 11
17 18 17 16 15 14 13 11 10 10 9 9 8 9 8 8 7 7 7 7 7 6 6 6 6 7 8 10 10 12 13 15 13 11 9 7 16 16 16 16 15 14 13
17 17 16 13 12 12 13 12 11 11 10 9 9 8 8 7 7 7 5 3 3 3 2 3 5 7 7 9 10 10 12 14 11 10 10 13 18 19 18 18 18 17 16
17 18 15 14 12 11 10 13 12 11 9 9 8 9 10 5 6 4 3 1 1 3 4 7 8 8 10 12 15 14 11 10 13 11 12 15 19 21 22 21 21 20 20
16 14 14 13 13 14 11 12 9 10 8 6 4 6 5 4 6 4 6 6 6 6 7 9 9 10 9 7 10 12 11 14 13 14 17 21 23 24 23 25 25 23 22
15 13 13 13 14 13 12 11 9 8 7 6 5 4 5 2 1 4 6 7 6 9 6 9 9 7 10 11 9 11 14 14 14 15 19 25 29 27 27 28 26 24 24
14 14 14 13 14 11 11 10 9 7 6 4 6 3 3 4 6 3 5 5 7 6 9 8 8 10 10 11 12 13 14 15 16 18 18 26 28 30 29 27 23 22 23
15 15 14 14 13 13 12 10 9 6 6 8 5 5 5 4 5 7 9 4 6 7 8 8 8 9 12 14 15 17 18 19 18 19 19 27 27 29 27 22 22 22 23
16 16 15 14 14 13 12 11 7 7 1 2 7 8 10 11 10 4 4 3 3 4 5 7 11 13 14 16 18 19 20 20 21 20 18 19 25 24 25 22 22 23 23
15 16 16 16 15 14 13 11 8 4 3 1 5 5 6 5 5 7 6 4 6 7 12 15 16 14 16 17 19 20 20 20 20 19 18 17 17 22 22 26 24 23 25
16 16 16 16 17 17 16 14 12 14 12 11 12 5 1 2 4 4 5 6 8 10 10 11 12 14 16 17 18 18 20 20 20 19 19 16 16 16 17 22 27 28 26
16 17 16 16 16 15 13 16 20 17 15 12 5 1 2 1 1 4 6 7 7 8 8 10 13 14 17 18 19 19 22 20 19 21 18 18 16 16 17 19 24 23 23
16 17 16 17 19 12 16 16 14 10 14 10 6 3 3 3 6 3 5 6 7 8 9 12 14 15 17 19 21 21 21 22 23 19 15 16 17 16 19 19 20 18 20
17 19 20 20 9 9 11 9 11 13 10 6 3 4 4 1 2 4 3 6 10 10 13 14 15 17 18 19 22 23 22 22 18 18 21 18 16 19 20 19 20 19 20
19 20 20 13 12 9 8 9 11 11 8 6 6 2 2 5 6 3 9 7 9 12 14 15 18 19 20 19 22 25 28 26 20 15 15 20 22 22 21 22 21 20 20
17 17 16 14 13 14 14 13 11 10 10 7 4 3 4 6 8 9 7 9 12 13 15 17 17 19 23 23 20 23 27 26 26 23 25 25 25 21 24 21 22 20 21
17 16 16 18 18 17 15 12 12 7 7 6 4 7 6 5 4 6 9 11 12 14 16 17 19 21 22 24 23 20 20 23 25 27 23 24 22 22 20 23 22 22 23
20 20 18 18 16 16 13 11 10 7 6 5 4 6 7 9 9 10 11 12 14 16 18 21 21 22 23 23 23 22 21 21 21 22 27 24 23 22 24 22 23 23 23
20 19 17 16 15 14 11 10 9 7 6 5 5 7 9 10 12 12 13 14 17 19 20 22 23 23 24 23 22 20 18 18 20 20 22 23 22 24 23 24 25 24 24

GFSSE_850_spd_048.txt.gz
Wind_Speed
21 24 22 21 21 21 20 18 17 15 13 11 10 9 8 8 7 7 7 8 9 9 9 9 10 10 10 10 10 11 11 11 11 10 10 10 9 8 7 7 8 13 11
23 25 22 21 21 21 20 18 16 14 12 10 9 7 7 6 6 6 8 9 9 10 11 11 11 12 12 13 13 13 14 16 15 11 10 9 9 7 7 8 10 12 12
24 26 24 22 22 21 19 17 14 12 10 9 7 6 6 6 6 7 9 9 10 10 10 10 11 12 12 13 13 13 15 17 16 10 7 3 10 10 8 8 11 12 11
25 27 24 22 22 21 18 15 12 11 10 8 6 5 5 5 6 7 8 9 9 10 10 11 12 13 14 14 13 13 15 16 16 16 16 13 12 12 10 10 11 11 11
21 26 24 22 21 19 16 14 12 11 9 7 6 5 5 6 7 7 8 8 9 10 11 12 14 15 16 17 17 15 16 17 16 13 4 5 12 12 11 10 11 11 10
22 22 23 20 20 17 16 13 11 10 9 7 7 6 6 6 7 7 7 8 9 11 12 12 14 15 17 18 19 19 15 16 17 11 6 8 13 12 13 12 11 10 10
23 21 20 18 18 15 14 13 12 10 8 7 7 7 7 7 7 7 7 8 10 11 12 12 13 14 15 15 16 17 16 17 16 13 10 10 15 15 16 15 14 13 11
26 20 19 18 17 15 14 12 11 10 9 8 8 7 8 8 8 8 8 9 9 10 11 11 11 12 12 13 13 15 16 14 13 13 8 9 17 18 18 18 17 16 15
21 19 19 18 17 14 12 12 11 10 10 9 9 9 8 8 9 9 7 7 7 8 8 8 8 9 10 12 12 12 13 12 11 15 14 15 15 19 19 19 19 18 17
22 19 16 18 16 14 12 12 11 11 10 10 11 10 9 9 9 7 6 5 5 6 6 7 8 9 11 12 15 15 9 9 14 12 16 18 20 22 24 22 20 19 18
23 20 15 14 14 13 13 13 11 11 11 12 12 13 10 11 9 6 9 7 5 5 7 9 11 11 9 11 11 13 9 10 11 12 16 20 22 24 26 24 24 24 21
23 17 20 15 13 12 13 13 13 13 12 11 12 12 8 5 3 5 7 10 8 8 7 10 12 8 5 4 8 11 13 15 10 10 17 20 24 27 28 28 28 26 24
23 19 20 20 18 14 13 12 13 13 10 8 8 7 5 4 3 4 4 7 7 9 7 8 10 7 14 14 15 16 18 19 13 12 17 22 24 26 30 29 28 23 22
21 19 19 23 20 18 18 15 11 9 8 5 7 9 7 8 6 6 3 3 5 2 7 5 5 9 7 11 13 16 17 18 19 19 17 21 24 26 29 28 25 21 20
20 16 17 23 19 20 16 18 16 18 11 8 5 4 5 6 4 5 6 3 5 7 5 8 10 12 15 15 15 16 20 21 20 20 19 23 22 25 23 25 25 23 22
20 19 18 19 23 19 19 17 17 17 14 11 6 5 5 6 8 3 4 7 7 13 12 13 14 15 16 16 17 17 19 19 19 17 19 22 23 22 21 21 24 25 24
19 21 21 21 21 22 22 23 18 12 5 4 2 4 5 6 8 10 9 10 10 12 13 14 15 16 18 18 18 17 16 21 20 19 22 20 23 18 19 22 20 26 29
21 21 21 22 21 22 18 15 12 7 7 9 2 4 1 2 3 6 6 7 9 11 10 15 17 19 18 17 17 17 19 23 22 18 20 18 16 19 19 21 20 24 26
22 22 22 22 24 18 13 12 12 11 16 12 10 4 1 1 2 6 7 7 6 7 12 14 19 18 18 18 17 18 22 23 19 21 22 21 18 18 16 19 19 21 19
21 24 19 24 21 16 14 14 14 13 17 21 12 5 2 2 2 4 9 10 8 4 10 16 15 17 16 17 20 20 19 20 18 18 18 15 16 16 15 18 23 19 15
20 22 22 21 18 15 12 12 11 12 10 12 11 7 1 1 4 3 6 5 10 9 11 12 15 18 17 20 21 27 24 19 17 15 16 12 11 15 16 17 18 20 22
22 24 23 20 14 11 7 7 8 12 10 6 5 5 8 6 3 5 7 5 9 13 12 14 18 19 21 16 25 26 27 28 16 17 21 24 23 24 24 22 23 21 18
23 24 18 17 14 15 14 12 12 12 14 14 10 6 8 4 5 4 7 11 14 16 14 15 16 17 23 27 21 20 24 17 28 25 25 28 28 27 25 18 18 19 22
23 21 16 18 14 16 16 16 17 17 11 9 7 8 9 9 9 8 10 13 15 14 15 17 19 24 23 22 23 27 30 26 25 27 19 24 20 21 23 22 24 22 23
19 20 19 20 19 19 18 16 15 10 16 15 12 11 8 9 12 11 12 13 12 13 15 20 20 23 26 26 24 24 26 25 27 23 25 20 26 24 23 22 23 23 23
19 18 24 21 21 19 18 15 14 15 11 9 10 9 7 8 7 9 9 14 16 18 19 22 25 25 25 25 29 29 27 22 23 20 22 24 23 25 18 18 22 23 25

GFSSE_850_spd_051.txt.gz
Wind_Speed
24 21 21 26 25 24 23 21 20 19 18 17 15 13 12 11 11 12 12 13 13 14 14 15 16 16 16 17 17 19 17 15 15 13 12 12 12 11 11 10 12 14 14
30 23 23 25 24 23 23 21 20 18 16 16 14 11 10 11 12 12 14 15 15 15 16 16 17 17 17 17 19 20 19 16 14 11 11 10 13 12 13 13 12 13 13
29 26 23 26 26 24 22 21 19 16 15 15 12 10 11 12 13 13 15 15 15 15 15 16 17 17 18 18 19 19 17 15 12 10 10 18 17 14 14 14 14 13 13
34 32 29 28 28 24 20 19 17 16 15 13 11 11 12 12 13 14 14 14 13 14 16 18 19 21 21 21 20 20 19 15 10 12 13 13 14 15 13 13 13 12 12
35 34 30 28 27 25 19 17 16 14 12 12 12 12 12 13 13 13 13 12 13 16 18 20 22 22 23 24 21 19 21 22 15 13 11 13 16 15 14 12 12 12 11
36 36 32 28 26 23 19 16 15 13 12 11 12 12 13 13 13 13 12 13 14 16 18 20 20 20 21 21 20 17 18 22 13 13 10 11 17 17 16 16 15 14 12
35 35 31 27 25 21 18 17 15 13 12 12 12 13 13 13 13 12 13 14 14 16 16 17 17 17 18 18 18 15 13 16 16 11 10 11 16 18 19 18 16 15 14
27 30 27 22 20 20 18 16 14 13 13 12 13 13 13 12 12 12 13 13 13 13 13 13 13 13 13 13 14 14 11 12 16 13 15 16 18 18 19 20 19 18 16
26 23 22 18 19 18 17 15 14 14 13 13 14 14 13 13 13 12 12 11 11 10 10 9 10 10 10 13 14 12 9 9 14 16 18 18 19 20 21 22 20 18 18
30 27 19 19 19 17 16 14 14 14 14 15 15 15 14 14 13 12 10 9 8 7 7 8 10 8 8 8 10 7 4 7 9 10 16 17 19 22 24 24 23 22 21
23 24 24 21 18 17 15 16 15 15 15 16 17 16 14 13 13 12 10 8 7 7 7 9 10 5 5 5 5 4 6 11 11 11 12 14 19 23 24 25 27 25 22
28 21 20 18 17 17 17 17 16 16 18 18 16 14 10 9 8 7 5 8 9 8 6 8 5 4 4 7 11 13 15 16 16 13 16 20 21 22 24 26 26 24 20
22 20 19 18 19 17 17 19 19 19 20 19 14 13 7 6 4 1 3 10 6 5 5 5 4 3 9 12 10 10 15 16 14 15 21 19 21 23 25 26 24 22 19
27 23 20 18 18 18 19 18 16 14 13 15 11 14 12 12 9 5 5 4 6 5 8 6 6 8 10 10 10 11 13 12 16 18 18 19 21 23 23 24 22 21 21
29 26 26 22 22 16 18 19 19 19 17 17 14 12 10 10 9 7 6 9 11 10 10 10 11 12 14 15 14 14 15 16 15 15 16 17 21 23 26 21 19 21 22
24 24 28 24 22 23 24 21 24 20 15 12 9 11 12 10 9 7 8 11 11 10 10 10 12 14 15 15 16 15 14 16 18 17 19 19 21 23 22 18 20 23 21
22 25 28 28 28 23 25 23 18 17 13 13 11 10 5 7 7 8 8 9 8 10 12 13 14 13 14 17 16 14 10 14 18 20 13 14 18 19 19 20 21 22 22
19 22 27 30 26 24 21 22 21 16 15 13 10 5 3 6 6 5 5 5 6 10 13 14 16 18 19 19 19 15 13 17 19 17 20 18 17 21 17 15 16 17 18
18 23 27 26 25 22 19 18 20 19 11 10 5 2 6 6 5 4 3 3 6 8 11 14 18 19 20 22 20 19 20 18 15 14 17 12 9 4 8 9 15 17 18
22 24 25 25 24 23 24 23 18 13 11 12 10 6 6 4 1 2 4 6 7 9 10 15 15 17 22 21 16 18 26 20 9 10 10 5 5 8 9 11 13 13 13
28 31 25 25 26 24 23 19 18 15 14 13 10 9 7 5 1 3 5 8 8 9 11 13 16 21 21 21 25 31 30 12 15 11 13 15 18 23 24 22 21 21 20
33 32 26 23 21 20 18 16 14 13 11 10 11 10 7 5 3 4 4 8 12 14 16 18 19 20 20 22 27 29 17 30 11 24 25 25 28 30 28 24 22 13 16
35 31 24 22 16 17 16 9 12 15 16 16 14 8 7 7 5 8 15 15 15 17 17 18 19 21 23 26 24 23 19 13 36 27 29 20 27 25 25 23 20 21 20
28 26 19 16 14 20 17 18 18 21 18 10 4 7 8 7 8 12 14 16 17 16 17 18 20 24 24 24 28 28 27 28 30 30 15 28 26 22 26 25 22 17 17
23 18 17 15 21 18 23 19 18 12 11 14 15 14 10 6 10 12 12 10 11 14 16 19 24 24 25 27 26 26 27 29 30 30 31 27 25 24 24 21 12 17 22
26 25 21 24 21 21 23 19 17 15 18 18 15 15 10 4 6 11 13 12 12 15 19 24 27 26 25 25 25 25 27 26 27 26 29 28 26 26 21 13 15 20 23

GFSSE_850_spd_054.txt.gz
Wind_Speed
30 29 30 32 28 26 24 23 22 21 19 18 16 14 12 14 14 15 16 17 18 19 19 19 19 20 20 19 20 20 18 16 16 17 17 19 18 17 15 14 14 14 14
33 31 32 32 29 26 24 23 22 19 18 16 15 13 14 15 16 18 19 19 20 19 19 19 19 19 20 20 19 17 14 14 14 18 20 19 19 18 16 15 14 14 12
33 32 33 32 31 26 25 24 22 19 17 15 14 15 16 16 18 19 20 20 20 20 21 22 22 22 22 20 19 19 18 19 18 17 19 20 19 14 13 13 13 13 13
33 33 35 33 30 28 25 23 21 18 16 14 14 16 17 18 19 19 19 19 20 22 24 25 26 25 24 21 22 22 23 21 19 18 19 21 20 18 15 13 13 13 12
32 32 34 33 32 28 25 21 20 18 15 14 15 18 18 18 19 18 19 19 21 24 25 26 26 26 23 21 24 24 20 19 17 16 17 18 20 20 18 17 15 13 12
31 33 31 35 33 29 24 21 18 16 15 15 16 18 19 19 18 17 19 20 22 23 23 24 23 23 22 18 20 20 18 16 14 15 15 17 17 19 20 20 17 15 13
30 32 31 30 28 25 23 19 16 14 15 16 17 18 18 18 17 18 19 20 20 20 20 20 19 18 17 16 14 14 16 15 13 14 15 16 17 17 18 19 19 17 14
27 27 25 24 23 20 19 16 16 15 16 17 18 18 18 18 18 17 17 18 17 16 16 15 13 13 13 12 10 9 12 11 10 11 13 15 16 17 18 19 19 17 17
30 29 25 21 21 17 15 15 15 17 17 18 18 18 18 18 17 16 15 14 13 12 12 10 8 9 8 8 8 8 8 9 11 11 12 15 18 18 19 20 20 20 20
31 28 28 29 18 18 17 15 16 17 17 18 18 19 19 19 17 14 13 12 11 10 9 7 7 7 5 5 8 6 5 7 10 11 13 14 17 21 22 23 22 23 20
30 30 21 20 19 18 17 17 17 17 18 19 19 19 19 17 15 14 12 11 10 11 10 8 6 5 4 2 6 7 7 10 11 12 12 15 20 21 23 24 24 23 20
26 24 28 21 19 21 19 19 19 19 20 20 19 18 17 14 12 11 12 12 12 10 7 5 2 1 3 5 8 10 14 13 13 13 15 17 17 19 23 23 23 26 20
30 28 27 23 19 18 20 20 20 21 22 20 17 15 14 12 10 10 11 10 9 7 5 5 3 4 5 7 9 11 12 13 12 15 16 17 15 17 19 22 25 22 20
24 23 19 21 19 19 20 20 21 22 20 18 16 13 11 11 10 10 10 7 9 7 5 5 5 6 6 9 12 11 12 13 11 11 12 12 13 16 16 19 21 19 20
25 24 20 20 21 22 22 21 21 20 18 17 14 12 10 7 7 7 6 6 6 6 6 7 8 11 12 13 13 13 13 14 14 14 14 16 15 15 16 16 15 15 18
25 26 24 21 23 23 23 21 20 18 16 15 13 12 11 11 10 8 7 8 9 9 10 11 12 13 13 14 13 11 11 12 13 14 16 16 13 13 16 16 17 15 11
29 27 25 27 25 25 22 19 17 16 15 15 14 12 11 10 9 10 9 9 9 10 11 12 12 11 13 11 12 12 12 13 15 17 16 16 13 9 7 8 9 11 12
34 30 30 29 27 22 20 20 21 20 17 15 12 10 8 9 9 9 8 8 9 9 10 10 12 13 13 15 16 15 14 13 12 13 13 13 8 3 2 2 5 7 9
30 32 35 32 31 26 26 24 20 18 16 12 11 9 8 9 9 8 7 7 7 7 8 11 13 15 18 18 17 16 18 19 5 8 9 6 4 3 2 4 8 10 10
31 35 34 35 31 28 25 22 21 22 17 12 10 7 8 10 10 8 7 6 6 7 10 12 14 15 17 19 20 22 23 6 2 7 12 8 12 15 18 20 20 21 16
31 29 30 30 29 26 26 24 24 22 17 14 12 11 13 11 9 7 5 5 8 9 10 12 14 16 19 22 24 27 16 2 21 10 8 18 21 23 23 23 20 15 13
31 29 26 26 24 25 25 24 22 19 16 13 13 15 13 10 7 5 6 9 10 10 12 15 16 18 20 22 23 24 12 22 4 27 13 25 16 14 23 21 20 18 18
35 30 25 25 24 25 25 24 21 18 15 18 18 16 13 11 8 6 7 10 13 15 16 16 18 20 22 24 23 20 12 8 31 16 29 15 16 27 23 18 20 20 19
36 31 26 25 23 22 26 25 22 22 24 21 16 14 13 12 9 8 11 11 14 17 19 20 20 21 24 25 25 23 21 21 24 23 17 27 21 24 22 21 20 15 13
36 33 30 27 24 21 26 25 18 18 17 15 17 17 15 11 8 7 10 13 15 17 16 17 19 23 27 26 23 23 23 22 24 27 30 24 28 20 18 22 20 18 18
28 27 30 25 21 22 28 23 19 17 18 20 22 21 17 14 11 13 13 15 15 16 16 19 23 26 27 25 25 23 22 21 23 25 30 30 30 26 27 21 20 18 22

GFSSE_850_spd_057.txt.gz
Wind_Speed
26 25 31 31 28 27 26 24 21 20 20 19 17 15 14 15 15 17 18 19 20 21 20 20 20 21 22 21 20 19 18 20 20 20 19 20 18 17 16 16 16 15 14
30 27 33 31 29 27 27 27 23 19 19 18 17 16 17 18 20 21 21 21 21 21 21 21 21 22 20 19 19 20 20 20 20 21 22 21 19 17 15 15 15 17 16
30 30 35 31 28 28 26 27 23 18 17 16 17 19 19 22 23 23 22 23 24 25 25 24 24 23 23 22 24 23 22 20 20 21 22 24 23 21 19 16 15 14 14
29 32 33 31 29 27 26 25 23 19 16 16 18 20 21 23 23 24 25 25 27 27 27 25 24 23 23 22 21 21 21 20 20 20 21 22 23 22 22 20 18 16 13
29 32 33 32 29 26 24 24 21 18 15 16 19 20 21 22 23 24 26 26 28 27 27 25 22 21 22 21 19 18 18 18 19 19 19 19 19 19 20 20 19 17 15
28 30 30 29 29 28 21 21 20 16 15 16 19 21 21 22 23 25 26 26 26 26 26 24 20 17 17 18 18 17 17 14 13 13 14 15 16 17 18 18 19 16 15
28 30 29 27 27 28 22 19 19 16 15 17 20 21 20 22 24 24 24 24 23 23 21 19 18 14 14 13 13 14 14 11 10 11 12 14 15 16 17 17 19 17 16
28 29 28 27 22 22 20 17 16 14 16 18 20 20 20 22 23 23 22 21 19 18 16 14 13 11 11 12 11 10 9 10 12 13 13 14 15 16 17 18 20 18 17
24 29 30 25 21 21 16 11 11 15 17 18 19 20 21 22 21 21 20 18 16 13 12 10 10 9 10 10 9 8 7 9 11 13 14 16 16 18 18 20 20 19 18
29 30 28 25 23 27 14 13 14 16 17 18 19 20 21 21 20 18 17 16 13 10 9 8 8 7 5 4 5 6 6 7 10 11 13 14 18 21 20 20 20 19 19
28 26 27 35 26 17 15 15 16 17 18 19 20 21 20 19 18 16 15 13 11 9 7 6 5 5 3 5 7 9 11 12 12 12 12 13 16 18 20 21 21 21 21
30 32 26 30 21 18 19 18 19 21 20 20 22 21 19 19 16 14 14 12 10 7 2 2 1 2 4 6 8 11 14 13 13 13 14 14 14 15 19 18 21 22 19
32 22 25 30 21 21 20 19 19 20 21 22 21 20 17 16 14 13 12 10 8 4 2 3 2 3 5 7 9 12 12 12 11 11 11 10 9 10 15 16 17 21 19
26 27 36 22 17 17 18 19 20 22 22 21 19 18 15 14 10 9 10 7 6 6 7 6 3 5 6 9 11 12 12 13 13 12 11 11 13 11 10 13 14 15 17
34 31 27 19 20 19 19 21 23 24 22 20 18 16 12 11 8 7 7 8 8 9 9 6 5 7 9 10 11 12 14 13 14 14 14 14 14 11 7 7 5 5 7
26 26 23 20 22 21 23 22 24 22 20 16 14 11 9 7 7 6 10 7 9 11 8 7 8 9 10 10 11 12 10 11 13 15 15 13 11 9 3 4 2 4 4
26 25 24 23 23 23 24 23 23 21 19 15 13 9 9 8 8 10 10 9 11 10 8 8 9 9 10 10 11 11 10 11 14 16 17 13 6 6 7 8 6 3 5
27 27 24 23 24 24 24 23 21 21 16 15 12 12 12 11 13 13 11 10 10 9 8 9 9 11 12 13 13 12 12 13 12 10 10 9 5 2 5 7 9 11 12
26 27 27 26 24 24 23 22 23 21 17 16 15 13 12 13 13 11 12 10 8 8 8 9 12 13 14 15 16 17 17 9 5 4 6 6 3 3 6 10 13 15 15
27 27 26 26 26 27 24 25 23 22 21 18 15 13 12 13 13 12 10 8 6 5 8 11 12 12 13 16 18 20 18 3 1 12 12 9 11 17 19 19 19 14 10
32 34 32 30 29 28 27 28 26 25 23 19 14 14 14 14 13 11 9 5 5 8 10 11 11 11 15 20 23 25 13 3 20 8 4 19 19 16 15 18 19 17 15
34 33 33 32 31 31 31 29 28 24 21 16 15 13 13 14 12 10 7 7 8 9 10 11 12 14 17 21 23 21 10 18 4 9 10 23 9 12 18 19 18 18 19
39 35 32 33 34 35 31 29 26 24 20 19 19 17 16 15 13 11 9 9 9 9 11 13 16 17 18 20 22 20 9 6 23 10 21 8 21 20 19 21 17 17 18
45 38 32 33 35 34 30 29 29 28 25 25 21 18 17 16 13 11 10 10 9 11 13 14 15 16 19 22 23 18 17 17 14 15 10 23 23 22 22 18 18 19 16
44 41 36 35 34 31 28 29 30 28 24 19 19 19 18 15 14 13 12 11 10 10 10 14 15 17 21 23 21 21 21 20 19 20 26 21 27 28 23 19 21 20 18
43 42 39 32 31 30 29 27 30 25 19 19 20 21 18 16 16 17 15 13 9 8 11 14 19 22 24 23 23 23 22 20 20 21 26 29 32 33 27 21 18 16 20

GFSSE_850_spd_060.txt.gz
Wind_Speed
31 29 29 27 26 25 24 26 28 28 26 23 20 17 15 15 16 18 20 20 19 20 21 20 21 22 22 21 22 23 22 21 21 22 22 21 19 18 17 16 16 15 12
34 32 31 27 26 24 23 23 22 21 19 17 15 15 17 19 21 22 22 21 20 22 22 22 21 21 21 22 22 21 22 21 22 24 24 25 24 22 19 18 16 16 15
31 31 32 29 27 25 24 24 23 20 18 16 15 18 20 22 24 23 23 23 24 24 23 23 23 24 24 22 21 20 20 20 19 20 21 22 23 21 20 19 18 16 13
31 32 34 31 29 27 26 25 22 20 17 16 18 21 23 24 24 25 27 26 26 26 25 24 23 22 21 20 20 19 18 17 17 17 18 18 18 18 18 18 17 16 14
30 32 33 31 30 29 27 24 21 19 18 18 21 24 24 25 27 28 29 28 27 26 24 23 21 19 18 18 18 17 15 15 15 15 15 15 15 16 16 16 16 15 14
27 30 30 29 27 27 25 22 20 17 19 20 23 24 25 27 29 30 29 28 26 24 22 20 19 18 17 16 15 14 12 12 13 13 14 14 13 13 14 15 16 14 12
25 29 28 28 27 27 24 21 19 17 18 21 23 23 25 28 30 30 28 27 24 22 20 18 17 16 15 14 14 11 10 11 13 13 13 14 14 14 14 15 15 15 14
26 28 29 28 28 25 21 17 17 16 18 21 21 22 25 28 29 28 27 25 24 20 16 15 14 14 14 12 10 9 9 10 12 13 13 14 14 15 17 17 17 16 14
22 26 31 31 31 25 29 15 15 15 16 18 20 22 25 26 27 25 22 20 18 17 14 12 12 11 10 9 8 8 8 9 12 13 14 15 16 16 18 19 18 16 15
20 27 26 27 32 33 22 14 11 8 16 19 21 24 25 25 24 21 18 16 14 14 13 10 7 6 6 6 8 8 9 11 11 12 13 14 15 17 18 18 18 18 17
27 28 29 31 34 34 30 15 14 16 18 20 22 23 23 23 21 18 16 14 12 10 9 8 7 5 5 6 9 9 12 13 11 12 12 12 13 15 17 18 18 18 16
26 23 31 37 38 33 21 14 16 19 21 22 23 23 21 20 18 16 14 11 9 7 5 4 3 3 5 8 11 12 15 14 13 12 11 10 10 13 15 18 19 17 16
20 22 34 31 33 21 18 19 20 22 23 23 22 22 20 18 16 14 12 10 7 4 3 1 2 3 5 8 11 14 15 15 14 13 10 8 9 6 9 13 13 12 14
26 29 32 38 30 20 17 19 20 21 23 24 23 21 18 15 14 12 11 10 5 4 3 3 3 4 7 10 12 13 13 13 12 13 12 11 11 9 5 5 5 7 7
43 43 36 26 19 18 17 18 21 23 23 22 21 19 16 13 10 10 10 9 6 6 6 6 4 8 11 10 11 11 10 12 13 14 13 13 11 8 1 1 3 4 4
35 37 30 21 18 18 20 21 22 24 23 20 17 15 13 11 9 9 10 9 6 8 8 6 6 7 8 9 10 10 11 12 13 13 12 9 7 6 7 6 6 4 6
26 30 25 18 17 16 19 20 22 23 21 18 16 13 11 11 11 9 9 8 9 10 9 7 7 7 8 9 9 8 10 12 12 12 10 9 4 4 7 8 8 7 9
24 25 21 19 19 19 21 22 24 21 19 16 15 12 10 9 9 9 11 10 10 9 9 8 7 8 8 7 8 11 14 12 8 7 8 8 5 3 6 8 10 11 12
25 25 23 21 20 22 22 22 21 20 19 17 14 12 10 11 13 12 12 11 11 10 7 6 7 8 7 9 12 14 13 6 4 7 8 7 8 10 12 14 15 16 16
25 23 23 22 21 21 23 22 22 21 21 17 15 12 13 14 13 13 14 12 10 8 6 7 7 7 7 10 14 18 15 7 7 14 10 6 18 16 16 16 16 18 17
28 26 26 24 24 25 25 25 25 24 22 19 17 15 14 13 15 15 13 11 9 7 5 5 5 6 10 15 19 18 11 6 13 11 6 21 18 11 16 16 20 17 17
30 27 26 25 25 27 26 26 24 22 22 19 18 17 16 16 16 14 12 10 8 6 4 4 5 9 13 16 19 18 10 12 5 12 18 16 11 17 16 16 18 19 18
32 30 28 27 26 28 27 27 25 25 24 23 22 21 19 18 16 14 13 10 8 7 6 5 8 11 14 16 19 18 9 6 21 12 17 15 14 20 19 19 19 17 17
34 31 30 31 31 32 32 31 30 30 30 28 24 19 19 20 18 16 14 10 10 10 7 7 12 13 16 19 21 17 16 16 11 10 7 9 19 19 20 22 20 18 19
36 33 32 33 33 35 34 33 33 33 29 22 18 20 21 21 19 16 15 14 14 12 7 7 10 15 20 22 19 17 16 16 15 17 22 15 20 22 24 25 22 17 17
38 35 35 37 36 36 35 37 36 35 26 24 22 22 24 23 20 18 18 17 16 12 11 8 16 20 20 19 19 18 17 16 16 17 20 24 26 29 27 26 14 17 18

GFSSE_850_spd_063.txt.gz
Wind_Speed
28 31 32 32 31 30 30 30 30 27 25 23 21 19 16 14 14 14 18 19 20 21 22 24 24 22 22 23 22 21 22 23 23 23 22 20 19 18 16 15 14 14 12
32 32 33 33 32 31 30 30 29 27 23 20 18 16 16 18 19 20 21 21 20 22 23 23 23 22 22 21 21 20 20 19 20 21 21 21 20 20 19 17 15 13 11
32 33 32 32 32 32 31 30 28 25 22 19 17 18 20 22 22 22 22 22 23 24 23 23 22 22 22 21 20 19 18 18 18 18 18 18 18 18 18 17 16 15 12
32 33 33 32 32 32 32 30 27 24 21 20 21 22 23 23 22 22 23 23 24 25 24 23 22 21 21 19 18 17 16 16 15 15 16 15 16 15 15 15 14 13 11
32 33 34 32 31 30 28 26 23 21 20 22 24 26 25 23 24 24 26 26 26 25 24 22 20 19 18 17 16 15 15 14 14 14 15 14 13 14 14 14 13 11 10
31 32 33 33 31 29 27 25 22 20 21 24 26 26 26 25 26 26 27 26 26 24 23 20 18 17 16 15 13 12 12 13 13 13 13 13 12 13 14 14 13 12 9
29 32 32 31 30 31 30 27 24 23 26 26 26 27 28 28 27 27 27 24 23 22 20 18 16 15 14 13 11 10 10 11 13 12 12 12 13 13 14 15 14 12 11
27 28 28 29 29 32 29 25 24 25 26 27 26 28 30 29 26 25 24 23 22 20 18 17 16 15 14 11 10 9 9 10 12 11 12 9 12 13 15 15 14 14 12
25 28 31 30 31 34 35 23 24 24 26 24 26 28 30 29 26 24 22 21 18 17 17 15 15 13 11 9 8 8 10 13 12 12 11 8 13 12 13 16 15 15 13
22 26 28 35 28 31 36 25 24 22 25 24 26 28 29 28 26 23 19 16 15 14 12 12 11 9 7 7 8 8 11 13 12 13 12 8 12 8 13 14 15 15 13
17 28 29 32 30 30 21 30 24 19 18 23 26 28 28 27 24 21 18 16 13 11 11 9 8 6 4 6 7 9 12 12 12 12 11 11 13 14 15 15 15 12 12
26 29 30 37 35 38 35 30 19 20 23 24 26 28 27 24 21 18 16 13 12 11 9 6 5 3 3 6 9 11 14 13 13 10 10 9 10 12 14 15 14 11 12
27 33 41 38 35 30 26 18 21 22 22 24 26 26 25 22 20 16 13 13 12 9 5 4 3 0 6 9 11 13 13 12 11 10 8 6 5 5 11 13 11 9 9
30 26 33 30 34 33 24 19 18 20 23 25 25 24 22 21 17 15 14 12 9 6 6 4 2 5 10 12 12 12 13 12 11 10 9 8 8 5 4 4 9 11 5
29 32 32 38 33 23 22 20 21 22 23 26 25 23 20 18 15 14 12 12 8 8 6 4 3 8 10 13 11 10 11 10 11 11 10 10 8 4 4 1 1 6 7
31 38 40 36 29 19 17 17 19 21 23 24 23 21 18 15 13 13 13 12 10 7 8 6 7 9 10 9 9 9 10 11 11 10 8 7 4 5 8 9 8 5 6
34 38 31 23 18 18 16 18 20 22 24 23 21 19 17 15 15 14 11 10 11 10 8 7 8 8 8 7 7 9 11 11 9 7 8 6 3 4 7 10 11 10 9
34 33 24 17 16 17 17 18 20 22 23 21 20 18 16 16 13 12 11 11 9 10 8 9 7 6 5 5 7 9 11 9 6 7 8 4 4 4 7 10 12 13 14
27 25 23 19 15 16 16 18 20 23 23 21 18 18 15 14 13 10 9 11 11 12 8 7 5 5 5 6 9 11 10 6 4 5 8 7 6 12 12 15 16 16 17
26 26 23 18 16 16 17 20 22 24 23 21 20 17 16 12 10 10 12 13 12 10 8 7 6 5 5 7 8 12 10 6 5 7 9 5 16 14 11 12 15 17 17
29 27 26 23 20 21 23 25 26 26 24 22 20 19 13 12 12 14 15 13 12 12 9 8 6 6 6 7 10 13 8 7 8 9 12 13 15 14 16 16 16 17 18
32 31 27 25 23 23 23 24 25 23 24 21 21 19 15 16 16 16 15 14 15 12 10 9 8 7 6 8 10 11 3 7 8 13 15 16 16 16 20 18 19 19 18
31 32 29 26 26 26 26 26 26 25 25 25 25 18 19 18 17 16 16 16 15 12 12 12 9 6 6 9 12 10 5 4 13 8 16 15 17 18 20 21 22 21 20
34 34 32 29 28 28 28 29 28 29 29 28 23 18 19 18 19 20 20 19 17 16 15 13 10 7 8 11 15 14 13 13 7 11 9 13 18 19 17 17 19 23 20
32 32 30 28 27 28 28 28 29 30 30 27 23 21 22 21 23 24 22 21 20 20 18 15 13 10 11 13 13 15 15 15 15 15 18 14 13 15 17 18 19 23 18
32 31 30 28 28 27 27 28 30 32 32 30 25 25 25 26 27 27 25 24 24 23 21 19 17 17 14 15 18 17 15 13 11 12 16 17 18 18 17 15 15 17 19

GFSSE_850_spd_066.txt.gz
Wind_Speed
23 27 30 28 29 31 33 32 30 27 25 23 21 19 17 14 12 13 16 18 18 20 22 23 22 22 22 21 20 21 20 20 21 21 20 19 19 17 16 15 17 14 11
28 29 32 30 30 32 33 32 30 27 25 24 21 18 16 14 15 18 19 20 22 24 23 23 22 21 21 21 19 19 19 20 18 19 21 19 19 18 17 15 13 12 11
28 30 33 33 32 33 33 32 30 29 26 23 21 18 17 19 21 21 21 22 24 24 24 24 21 20 20 20 18 18 17 17 17 21 19 16 17 16 16 15 14 12 10
28 29 31 34 34 34 34 34 31 29 25 23 21 20 21 23 23 22 22 23 23 23 23 22 21 19 19 18 16 17 16 15 16 21 13 14 15 14 13 12 11 11 12
31 31 32 36 36 35 35 33 31 28 25 23 23 24 25 24 24 24 25 24 24 24 22 21 19 18 18 17 15 14 14 14 20 14 13 13 11 13 12 10 10 8 7
30 33 36 36 35 35 34 32 29 26 25 25 26 27 26 26 27 27 27 25 24 23 22 20 18 17 16 14 12 12 13 15 15 12 12 13 11 13 13 12 10 9 8
33 31 37 36 36 36 34 32 29 27 27 28 28 28 28 29 29 28 27 26 23 21 20 19 18 16 14 12 10 10 12 14 10 10 10 10 11 13 13 13 12 11 9
19 29 33 33 35 37 35 31 28 28 30 31 30 30 29 29 29 28 26 24 22 20 19 18 17 14 11 10 9 9 12 13 10 10 9 8 12 12 13 13 13 12 11
23 25 29 27 30 30 30 28 29 30 30 30 31 30 29 29 27 26 24 22 20 19 17 16 14 12 11 9 8 9 11 12 8 8 9 5 11 9 12 13 13 12 11
29 33 34 30 36 37 33 22 24 27 28 29 30 31 30 28 25 23 21 19 17 17 16 14 13 11 8 8 7 9 11 13 6 8 7 6 11 7 11 11 12 11 10
27 30 35 31 31 36 39 37 24 25 26 27 28 30 29 27 23 22 19 17 15 14 13 12 10 8 6 6 7 9 10 5 7 6 4 9 8 9 11 11 9 9 10
23 30 35 35 33 39 43 42 27 22 25 25 29 29 26 25 18 19 17 14 13 12 11 10 8 6 6 6 8 8 7 8 6 6 5 8 8 9 10 10 8 8 9
28 31 34 34 42 42 41 41 33 32 26 26 29 27 25 24 21 18 17 15 14 12 11 9 6 4 3 6 7 8 10 8 7 5 8 7 6 5 7 9 9 9 8
33 35 37 37 39 40 39 37 30 23 24 28 29 28 26 24 21 17 16 15 14 12 10 7 4 1 3 7 9 10 10 7 5 5 7 7 4 2 5 6 10 12 12
28 29 32 39 35 36 42 36 24 25 26 27 26 26 25 21 19 17 16 16 14 11 9 7 4 2 5 10 9 9 9 9 9 5 4 6 3 3 5 2 3 9 10
27 36 35 35 35 30 23 22 24 24 24 26 26 24 21 19 18 16 15 15 13 11 10 9 3 4 5 7 8 8 7 9 8 4 3 5 3 3 8 9 9 6 6
24 27 37 35 27 19 17 18 19 17 22 24 24 23 20 19 16 17 16 15 14 14 10 7 6 8 7 7 6 8 9 8 6 3 3 1 4 4 7 11 13 14 13
28 30 25 18 19 18 15 20 19 20 23 24 23 22 21 18 18 17 16 16 16 12 11 9 7 7 5 1 2 5 6 5 4 5 2 1 1 3 9 11 14 15 16
28 24 20 15 15 15 14 14 16 19 22 22 24 22 20 19 18 17 16 15 14 13 12 10 9 5 3 2 1 6 6 3 4 3 3 5 6 7 6 13 12 15 17
24 20 18 16 14 14 15 16 18 20 19 20 22 21 19 19 17 17 16 15 16 15 14 12 9 7 5 3 3 6 5 5 5 5 6 5 7 8 6 8 10 11 19
24 23 21 19 16 15 17 17 18 19 19 20 23 22 20 21 20 19 18 18 18 16 15 13 10 7 4 7 6 8 8 7 8 8 9 8 9 9 8 9 9 11 12
26 26 23 21 18 17 17 18 17 19 18 19 23 23 24 24 19 18 20 19 19 18 17 14 11 8 5 8 3 7 6 9 9 11 12 11 11 9 10 11 12 13 13
27 27 25 22 20 20 18 17 16 16 16 19 25 26 25 21 20 20 20 20 21 19 18 16 14 12 8 8 7 5 3 8 13 11 10 10 11 11 12 13 14 15 15
27 26 27 23 22 22 23 19 20 19 18 18 23 23 23 22 22 22 22 24 22 22 20 18 17 13 13 6 10 13 9 11 9 11 9 12 12 13 13 15 16 16 16
25 26 26 26 24 23 24 25 23 22 19 19 22 23 24 24 25 25 26 26 25 24 22 20 20 19 14 15 15 12 13 11 13 13 16 13 15 16 15 16 17 17 17
27 27 27 27 26 26 28 29 28 24 22 26 27 26 26 26 29 28 27 27 26 26 26 25 24 19 13 18 16 18 11 12 13 15 17 17 17 17 16 16 15 15 16

GFSSE_850_spd_069.txt.gz
Wind_Speed
21 26 29 28 28 31 31 31 29 26 24 22 21 19 17 15 13 14 16 17 18 20 22 23 22 21 20 20 21 21 21 22 23 21 20 19 19 17 16 14 16 15 13
28 29 30 28 28 32 33 32 30 27 24 22 21 19 16 14 15 18 20 21 23 24 23 23 21 21 21 21 21 21 20 20 22 24 22 17 18 17 15 14 14 14 11
26 28 30 28 30 33 34 33 30 27 24 23 21 19 16 17 20 22 23 24 24 23 23 22 22 21 21 21 21 20 20 24 25 23 17 16 16 15 14 14 13 13 12
25 28 28 29 31 34 35 34 31 28 25 23 20 18 18 21 22 23 25 24 24 24 22 22 21 21 20 20 19 19 21 25 22 18 12 14 15 15 13 12 11 11 13
28 26 29 31 31 34 35 34 31 28 25 23 20 20 23 24 24 25 25 25 24 23 22 20 20 19 18 18 18 20 22 23 20 13 12 13 14 14 12 10 11 9 8
28 31 31 34 33 35 36 33 30 28 25 22 23 24 25 26 25 26 26 25 24 23 21 19 19 17 16 16 16 18 20 20 18 12 13 12 14 14 13 12 11 10 9
26 32 32 36 34 36 37 34 30 27 25 25 27 27 26 27 27 27 27 26 24 21 19 19 17 15 14 13 14 15 15 18 13 11 10 12 13 14 14 13 12 11 10
28 24 28 32 34 34 34 33 30 27 26 28 28 27 28 28 28 27 25 24 22 20 18 17 15 13 11 12 13 14 15 16 10 10 8 7 12 12 13 13 13 12 10
19 22 27 29 28 32 30 29 30 29 29 29 29 29 30 29 27 25 23 21 19 18 17 15 12 11 9 10 12 13 16 15 11 9 6 6 10 10 12 13 12 11 11
15 24 34 29 27 32 27 27 27 30 30 29 28 30 29 28 26 24 21 20 18 17 15 13 10 8 8 10 11 13 15 14 7 7 4 7 8 8 10 11 10 10 11
17 24 34 33 40 35 36 24 25 24 25 26 28 29 29 27 24 23 21 18 16 15 14 12 9 7 7 8 9 11 13 5 5 5 2 8 7 6 9 11 9 10 10
23 25 32 29 39 42 39 35 25 26 25 27 28 28 24 24 18 22 19 16 14 14 12 10 8 8 10 9 9 9 4 6 5 5 6 7 5 7 9 11 10 8 8
25 29 31 27 32 35 40 40 34 32 30 28 29 22 22 20 19 20 18 16 15 13 12 11 8 7 5 2 1 2 5 5 3 3 9 6 5 6 9 9 9 8 10
26 29 31 34 36 39 41 38 34 32 31 27 26 18 21 18 16 18 17 16 16 11 11 8 7 4 1 3 4 6 5 3 2 3 11 5 3 3 4 5 7 9 10
27 30 31 34 41 42 40 43 42 31 27 23 25 20 17 16 14 14 13 13 12 11 11 9 7 3 3 3 3 2 6 7 5 2 9 3 1 3 5 3 3 7 11
34 34 33 37 34 36 36 34 33 34 29 26 27 24 18 17 17 13 14 13 14 12 10 9 7 3 4 1 3 5 4 2 2 5 1 7 2 4 7 8 10 9 9
27 34 30 29 27 32 34 38 30 19 18 19 18 20 20 14 15 13 14 14 13 12 12 11 9 7 4 3 3 2 3 4 1 2 3 2 7 4 7 12 13 13 14
33 31 29 34 36 26 23 22 16 19 19 19 18 16 16 18 17 16 17 18 16 14 12 12 8 7 6 4 3 1 1 2 2 1 2 3 3 4 12 13 14 13 15
25 36 37 32 21 18 19 17 18 19 18 17 18 20 20 20 19 17 17 14 17 13 14 12 9 8 7 6 5 3 3 4 4 4 5 4 5 4 4 12 14 13 13
31 29 22 19 18 18 17 18 17 16 16 15 16 16 19 19 20 17 15 16 16 15 13 12 11 9 8 7 6 6 6 6 7 6 6 6 6 8 7 8 9 11 15
27 24 21 18 17 16 15 16 16 17 18 17 19 20 20 20 20 19 15 18 17 14 14 16 14 13 8 8 6 6 9 10 9 8 10 9 8 10 10 10 9 8 10
27 22 21 19 17 15 15 16 16 17 18 18 20 20 18 20 21 21 18 19 18 15 16 17 15 11 9 9 5 6 7 5 10 11 10 11 12 11 11 12 11 12 12
27 25 23 20 18 18 16 16 16 17 16 18 19 19 23 22 20 21 22 20 19 17 17 18 17 14 11 9 9 4 3 6 10 11 12 12 11 11 12 12 14 14 14
28 26 25 23 21 20 21 19 19 18 19 18 20 20 21 21 23 22 23 22 22 21 19 19 17 15 14 14 7 12 11 11 8 10 7 12 13 12 12 13 15 16 15
28 28 26 25 24 23 23 22 20 20 19 16 19 18 20 23 22 25 23 22 25 25 23 21 18 16 19 11 12 12 14 10 12 13 16 14 14 16 15 14 15 16 16
29 29 27 28 27 25 24 25 24 22 21 19 21 20 20 22 23 26 26 30 28 26 22 20 19 20 20 14 13 13 12 11 12 15 18 19 20 18 17 16 16 17 14

GFSSE_850_spd_072.txt.gz
Wind_Speed
27 36 35 36 37 35 32 31 29 27 24 22 20 19 17 15 15 17 19 21 21 23 24 24 23 22 22 24 24 24 25 28 26 21 21 21 19 16 16 16 16 15 14
14 34 34 35 35 35 34 32 29 27 25 22 20 18 16 15 17 20 22 23 24 24 25 24 24 25 24 24 24 27 31 29 27 26 17 19 19 18 17 17 17 15 13
41 29 29 32 35 35 34 33 30 27 25 23 21 18 16 17 20 23 25 25 24 25 24 24 25 25 24 24 25 28 27 25 25 23 18 16 17 16 16 15 16 16 17
18 27 29 27 34 35 35 33 30 27 25 23 21 18 18 21 23 25 26 25 24 25 24 24 24 24 23 23 26 27 25 24 19 20 11 11 17 15 14 14 11 12 12
21 23 28 27 29 33 34 32 30 26 25 23 21 20 21 24 25 26 26 25 23 24 24 24 23 22 22 23 25 26 22 18 13 5 5 13 16 15 14 13 12 11 10
24 25 29 30 32 33 34 32 29 26 25 23 21 23 25 26 27 26 26 25 23 24 24 23 21 19 19 21 22 22 19 18 18 7 13 15 16 15 15 14 13 12 11
26 22 26 30 32 34 34 32 29 27 25 22 23 26 27 27 27 27 26 25 23 22 22 20 19 17 17 17 18 18 21 20 12 7 9 16 15 15 15 14 14 13 12
27 13 23 25 28 33 34 33 31 28 25 24 26 28 28 29 28 28 27 24 23 21 20 18 16 15 16 15 16 18 18 19 15 7 9 11 14 14 14 14 14 14 13
23 11 22 9 22 36 36 32 29 26 25 27 28 28 28 28 27 26 25 23 22 20 18 17 15 14 14 13 15 18 19 18 13 7 6 13 13 14 14 14 14 14 12
21 16 26 23 22 27 30 29 28 27 27 28 29 29 30 29 28 26 24 22 21 19 17 15 13 12 11 12 15 16 16 16 11 1 5 11 13 14 14 13 13 14 13
16 16 20 28 22 26 25 25 23 25 25 25 28 29 29 29 26 25 21 20 19 17 16 13 10 9 10 11 12 12 10 12 3 5 8 10 9 11 12 11 12 13 12
12 16 23 26 31 33 32 29 25 23 24 25 27 27 26 26 24 23 20 19 17 16 14 11 9 12 11 9 7 6 8 11 1 5 6 8 6 7 9 11 11 10 10
25 24 24 28 30 37 33 39 40 38 25 26 27 25 26 22 22 21 21 19 17 14 13 11 10 8 9 6 1 3 7 5 2 7 8 6 2 4 7 10 10 11 10
20 29 35 35 36 39 39 34 34 36 31 31 26 21 19 17 19 20 19 17 15 14 13 11 8 6 4 2 1 2 5 6 8 6 5 6 3 3 6 7 9 9 9
23 26 29 33 36 39 37 37 35 32 35 31 26 22 18 17 17 18 16 17 16 11 12 10 9 6 2 2 1 3 4 4 8 5 7 5 4 5 4 3 4 6 9
22 28 31 36 36 39 40 37 40 39 35 30 31 25 17 15 11 12 12 13 12 13 11 12 8 4 1 3 1 0 2 2 1 2 7 5 4 5 7 7 9 9 9
28 31 29 27 32 35 38 38 36 39 32 35 28 21 18 13 16 15 14 13 17 14 13 10 8 6 6 4 7 1 1 4 2 9 4 8 6 5 6 9 12 11 13
24 27 25 28 29 32 34 34 33 35 29 24 26 27 23 19 17 17 18 20 18 16 17 14 12 10 9 7 6 2 3 5 5 3 7 4 5 5 8 11 11 13 12
26 25 27 27 29 30 31 36 34 30 25 17 17 18 19 23 20 23 21 18 18 19 16 13 12 12 12 9 7 8 7 5 9 2 10 10 13 9 8 10 13 14 10
24 33 39 36 31 29 32 28 25 21 20 21 23 26 24 25 25 23 18 16 18 18 16 17 15 14 13 10 9 10 13 9 10 12 13 12 8 14 14 9 13 12 11
38 41 32 28 23 23 26 25 23 27 28 27 32 30 26 24 23 21 17 17 19 19 18 16 18 17 17 18 16 12 11 15 11 13 13 14 12 12 12 15 19 7 11
38 29 22 17 20 23 23 22 24 23 22 21 21 26 24 24 24 21 20 21 20 21 18 20 21 21 17 15 12 10 7 11 12 15 13 15 16 17 17 14 14 17 18
30 29 27 28 20 19 19 23 23 21 21 22 26 27 25 24 22 21 20 23 22 22 23 25 22 20 16 19 15 11 5 6 10 12 17 17 15 18 19 15 17 20 16
31 26 28 29 29 20 23 27 26 26 27 26 26 26 23 26 24 22 22 24 25 22 24 27 22 23 21 20 20 15 12 13 9 8 6 10 18 18 18 17 16 17 18
35 33 29 30 27 28 24 24 27 24 23 24 25 26 24 23 25 25 26 27 30 26 27 30 26 24 23 24 21 19 14 11 10 11 14 16 14 14 15 16 15 13 17
36 36 34 31 30 28 32 27 24 25 25 24 24 26 28 26 26 24 24 30 28 27 29 31 25 24 28 26 25 20 14 12 10 12 16 17 17 20 22 22 21 22 26

GFSSE_850_spd_075.txt.gz
Wind_Speed
23 17 29 34 36 35 34 32 32 30 28 27 25 23 20 19 21 23 25 26 28 29 28 26 23 24 25 27 29 31 31 29 25 20 20 20 20 20 19 17 16 16 14
25 9 23 30 32 34 34 34 33 31 27 25 24 22 20 22 24 25 27 28 29 30 28 26 27 27 30 33 32 31 29 28 23 20 17 19 19 19 19 19 18 17 14
21 18 18 27 31 32 34 33 32 30 27 25 22 20 21 25 27 28 28 28 30 29 29 29 28 29 31 30 28 25 21 18 12 19 16 17 18 16 15 16 16 19 21
23 36 23 29 32 32 33 32 32 29 27 25 22 20 23 27 29 29 28 29 30 30 30 29 28 28 29 29 29 26 20 15 13 12 14 16 17 16 15 14 13 14 18
14 26 42 26 34 35 35 33 32 30 28 25 21 22 25 28 31 28 28 29 30 29 28 27 27 27 29 28 25 21 15 13 12 15 13 16 17 17 15 14 13 13 16
10 14 35 46 44 39 39 36 33 31 29 26 23 26 29 30 31 29 29 29 29 28 27 25 25 26 27 26 23 16 14 11 10 11 16 15 17 16 16 16 15 14 13
15 15 16 42 43 42 40 38 35 33 30 26 26 29 30 31 31 29 29 28 27 26 25 23 23 23 24 24 26 25 14 11 9 10 14 15 16 16 15 15 14 13 13
14 18 21 32 28 40 42 38 35 32 30 28 30 32 32 32 31 29 29 28 26 24 23 21 21 20 20 22 23 21 17 9 7 10 15 13 14 15 15 15 14 13 14
13 7 2 22 29 30 45 42 38 33 30 29 31 32 32 31 30 28 27 26 24 22 21 19 19 18 18 21 21 21 12 6 4 7 10 12 13 14 14 15 14 14 14
9 14 21 29 22 23 44 43 38 34 30 32 32 32 31 30 29 28 25 23 21 20 19 18 17 17 17 20 20 18 11 8 6 7 9 12 11 13 13 14 13 14 14
14 21 22 23 18 1 25 30 31 30 30 31 31 32 32 32 30 27 24 22 20 18 17 15 15 15 15 15 14 14 8 7 3 4 8 10 10 12 12 12 12 13 13
13 12 20 22 24 29 27 22 24 26 29 30 31 31 32 31 29 26 22 20 19 17 15 14 14 12 12 10 10 13 8 4 1 5 8 10 9 9 10 10 11 11 11
17 18 18 25 26 23 29 33 32 28 28 28 29 30 30 29 27 22 21 20 18 17 14 12 11 7 8 8 5 8 6 2 1 5 9 9 7 8 8 8 9 9 9
17 24 26 24 24 29 37 37 38 38 32 28 27 26 27 27 24 22 21 19 17 15 13 12 7 6 5 3 4 6 4 1 2 4 5 6 4 6 6 6 8 8 9
22 23 32 39 43 41 36 38 41 42 32 30 28 26 24 23 22 20 18 17 16 14 13 10 7 6 5 4 4 6 6 3 4 3 3 5 4 4 4 6 9 12 12
17 26 29 31 35 39 39 42 44 39 34 31 30 23 19 18 18 18 17 16 15 13 15 10 8 7 4 3 1 1 1 3 4 3 1 4 4 4 6 6 8 10 12
24 28 28 30 35 37 39 41 44 40 36 34 31 24 18 16 14 17 15 15 16 14 13 11 10 8 4 3 4 3 5 3 4 4 6 7 5 5 6 8 9 9 12
19 25 28 31 31 37 41 42 47 47 43 39 32 29 23 16 15 16 14 14 15 18 16 14 12 9 8 6 6 5 4 3 1 5 10 9 9 8 9 10 10 12 12
22 28 29 30 34 36 37 38 43 45 36 32 38 33 26 19 20 20 18 18 22 22 20 17 15 14 13 10 9 8 7 8 7 7 7 8 13 14 15 15 15 17 14
26 26 26 27 26 27 28 28 33 39 35 35 39 25 22 24 23 24 23 22 25 23 21 20 19 16 14 11 12 13 12 10 9 10 10 13 14 14 13 13 17 17 17
20 25 28 31 29 28 31 32 35 37 33 28 23 23 24 25 29 24 23 24 24 25 24 22 19 18 19 17 19 13 13 13 13 13 13 15 13 14 14 16 18 17 19
35 36 35 33 33 35 37 36 33 28 27 26 24 26 27 27 25 28 28 27 26 24 23 23 23 23 22 23 22 23 16 19 20 18 16 14 14 16 17 19 20 20 21
39 34 29 27 28 29 31 29 26 24 23 27 30 31 32 32 28 28 26 27 26 24 25 26 26 25 25 25 25 20 10 11 14 16 16 14 17 18 19 20 21 19 20
35 30 27 26 27 25 26 28 30 31 35 33 34 34 33 29 28 29 28 26 28 28 27 29 29 25 24 27 26 24 25 13 10 8 14 14 17 19 19 21 19 19 20
32 30 29 30 28 26 28 27 30 31 29 28 29 31 32 30 27 29 30 27 29 29 26 28 30 30 27 27 33 31 27 26 17 14 13 11 12 16 16 20 19 19 19
34 31 31 32 32 29 29 30 31 37 33 33 31 35 34 33 30 29 30 29 28 30 30 33 30 33 34 32 31 28 29 26 16 12 12 18 19 18 18 18 19 14 17

GFSSE_850_spd_078.txt.gz
Wind_Speed
21 35 36 31 29 32 34 37 34 34 29 27 27 24 21 22 23 25 26 26 27 27 27 28 27 26 26 28 28 26 25 22 20 19 23 24 22 20 18 17 16 17 16
23 34 34 36 30 33 34 37 34 33 31 29 27 25 24 26 27 27 28 32 32 30 29 28 27 28 28 26 25 24 25 24 20 17 17 18 20 20 19 18 19 18 15
30 29 35 34 24 27 30 34 36 33 31 29 27 25 27 29 30 30 32 32 32 30 29 30 29 28 26 23 18 18 23 21 19 16 15 18 18 16 17 18 21 22 22
27 24 30 29 28 24 30 32 33 33 31 30 27 28 31 33 32 34 34 32 32 31 29 29 28 27 24 19 19 18 19 20 17 15 15 17 18 16 15 16 19 20 21
23 19 29 35 27 34 32 34 33 32 31 28 28 32 33 34 34 35 35 34 32 30 29 29 29 28 22 17 17 17 18 17 18 15 16 17 18 16 15 14 15 17 18
15 30 32 35 38 46 43 37 35 34 32 30 32 35 35 35 36 36 36 35 33 31 29 30 28 25 17 15 14 14 15 15 15 17 17 18 18 16 16 15 14 13 14
11 32 35 34 26 36 40 41 39 36 33 31 35 36 35 36 37 36 36 33 31 30 29 29 29 24 17 16 16 14 13 14 17 19 17 16 16 15 16 15 14 14 13
4 26 33 25 24 39 52 46 42 38 34 34 37 38 38 36 36 36 35 32 30 28 27 26 26 24 19 15 15 14 12 13 13 16 16 14 14 14 14 14 14 14 14
8 17 30 17 17 8 59 50 48 42 36 37 38 38 38 38 36 35 33 31 28 26 25 23 22 23 21 15 13 11 11 9 10 13 15 13 13 13 13 13 14 14 15
14 15 13 10 27 20 49 50 44 43 38 40 41 39 37 37 36 34 31 29 27 25 23 21 20 22 19 14 11 8 9 9 8 10 12 13 11 12 13 13 13 14 14
6 13 18 15 16 3 47 40 38 37 39 39 40 38 36 36 35 32 30 27 25 24 21 20 19 18 18 13 9 7 7 6 7 9 11 11 9 12 12 12 12 12 13
9 13 13 21 14 28 10 27 29 31 36 37 37 37 36 36 34 31 29 26 24 21 19 17 17 17 15 10 8 6 3 5 5 8 10 9 9 8 9 10 11 11 11
10 14 13 16 16 24 35 39 30 25 29 33 33 35 36 35 33 31 29 26 24 20 17 15 14 12 12 9 7 6 3 2 5 7 7 8 7 7 7 8 9 9 9
16 16 17 21 27 39 43 41 37 35 28 32 32 33 33 33 31 29 27 25 20 18 16 13 10 9 8 7 5 5 3 2 3 5 6 6 6 6 5 6 8 9 9
21 20 19 25 32 31 32 34 39 38 37 35 32 33 32 31 30 29 25 23 20 17 14 12 10 6 4 5 6 4 3 1 2 2 2 3 4 5 5 6 8 11 10
24 23 20 27 30 32 33 40 46 42 39 36 34 33 31 30 28 26 23 21 18 16 14 10 8 7 5 7 7 6 4 2 2 1 2 2 4 4 3 4 6 9 11
19 24 28 32 32 30 37 45 45 40 38 38 34 29 28 26 24 22 19 17 17 16 14 11 10 10 9 6 6 5 6 5 3 4 4 6 5 5 6 8 9 10 11
18 21 30 35 38 41 41 46 45 42 41 37 34 29 25 21 22 18 18 18 17 17 14 14 11 11 11 7 7 7 8 7 6 5 6 6 6 9 10 11 12 12 13
19 19 26 33 36 40 44 48 41 35 38 37 34 29 29 22 19 20 19 16 16 18 17 13 13 13 13 10 9 9 9 9 7 8 8 8 9 11 12 13 15 13 13
21 24 22 24 30 35 41 44 45 41 40 38 38 38 26 22 19 21 18 17 18 19 18 17 17 15 15 14 12 13 12 11 10 12 12 11 11 13 13 14 13 13 15
19 22 25 26 29 32 39 44 44 42 41 31 40 35 21 21 19 21 21 21 22 22 21 20 20 20 21 19 17 18 18 18 18 16 16 15 14 13 15 15 13 14 16
23 22 26 29 31 34 37 39 42 44 42 35 36 40 34 24 23 24 25 24 24 23 23 25 25 23 23 23 24 20 19 24 25 23 21 19 18 19 19 17 16 18 19
25 28 28 29 31 33 34 34 38 41 36 35 39 40 36 29 25 25 27 28 26 26 27 28 26 25 26 27 28 24 14 18 18 24 25 23 22 22 22 21 20 21 21
33 35 32 31 31 33 35 37 41 42 40 37 35 35 31 28 30 30 28 29 29 30 31 29 27 26 28 30 30 32 31 20 15 12 20 22 23 22 23 21 21 21 23
34 33 31 31 33 35 37 37 36 36 36 32 33 33 33 32 32 31 31 29 32 32 33 31 29 28 31 30 32 37 38 36 19 11 10 17 19 20 23 24 25 26 25
34 33 33 33 34 36 38 36 35 35 34 33 35 37 39 38 38 36 32 31 34 34 34 30 30 30 33 32 34 38 40 30 28 22 21 20 19 21 24 25 23 23 25

GFSSE_850_spd_081.txt.gz
Wind_Speed
25 30 29 31 34 35 35 35 36 35 26 26 31 31 29 27 26 26 29 30 29 27 25 23 22 22 21 22 23 23 21 20 21 23 23 21 20 19 18 16 18 19 19
19 28 30 32 29 29 28 30 32 31 30 28 30 29 29 27 26 28 31 31 28 28 27 26 24 24 24 24 26 25 22 19 17 17 21 22 24 23 22 21 18 21 19
18 30 30 31 32 33 30 25 22 27 30 29 23 26 25 27 28 30 32 32 31 29 27 27 25 23 24 24 23 22 20 19 17 16 18 20 21 23 24 24 23 23 23
22 34 33 34 36 35 35 32 24 26 28 28 27 25 27 29 32 35 35 33 30 28 28 27 24 22 23 24 23 23 23 19 17 16 17 19 21 21 23 22 21 21 21
18 27 35 38 40 41 29 34 30 29 30 29 27 27 29 33 37 36 34 32 32 31 30 26 23 24 23 22 21 21 20 20 17 17 19 19 19 18 19 19 20 20 20
20 20 29 38 37 30 21 39 32 32 32 28 22 28 32 36 37 36 36 35 33 32 30 25 23 21 21 21 20 19 20 21 18 19 19 19 19 17 16 15 15 15 17
24 27 26 37 38 26 30 43 45 38 34 32 28 32 36 38 38 38 36 33 33 32 29 23 20 19 19 19 18 17 18 18 18 19 18 18 18 17 16 16 16 15 15
17 16 27 36 35 34 38 44 44 44 38 32 29 35 37 39 40 39 35 33 33 32 28 23 18 18 20 19 16 16 14 15 17 19 17 17 16 15 16 17 17 16 17
7 9 16 26 26 35 36 37 44 41 40 37 38 37 38 40 40 39 36 33 32 31 27 23 19 17 19 16 13 12 13 14 15 17 15 15 15 15 16 16 16 16 17
8 16 8 18 17 30 28 31 41 44 43 36 37 39 40 40 40 38 35 32 31 29 26 22 17 16 15 14 12 12 11 12 13 14 14 15 14 14 14 14 15 15 14
18 14 15 17 13 27 36 48 35 51 40 41 40 39 41 40 39 37 34 32 30 28 26 23 19 15 14 11 11 10 9 10 11 13 12 12 12 12 12 13 13 14 14
16 16 18 15 11 14 15 49 59 45 46 42 42 41 41 40 38 36 33 31 28 25 23 22 19 15 11 10 10 8 7 8 9 11 11 10 10 10 11 11 12 13 14
15 20 22 18 19 8 32 51 49 46 41 42 42 41 40 39 38 36 34 31 28 22 21 20 17 13 11 9 9 8 5 6 8 9 9 9 8 8 8 9 10 10 11
14 18 20 23 23 22 27 20 31 41 43 44 41 40 39 38 38 36 33 29 25 22 20 18 15 13 11 10 8 7 6 6 6 7 6 7 7 5 5 5 6 7 8
19 19 20 24 24 26 29 39 42 38 34 34 36 36 36 36 35 33 30 26 23 20 17 14 13 10 8 8 8 6 5 4 4 4 5 6 6 5 3 4 7 8 9
20 22 24 23 26 33 42 47 48 49 42 37 35 38 35 32 32 31 28 25 23 19 15 12 10 8 6 6 7 6 5 4 2 2 2 4 5 3 4 4 7 8 9
17 28 21 30 35 42 45 45 45 47 47 48 43 37 36 33 31 30 26 24 21 18 15 14 12 9 7 8 7 7 7 5 3 3 2 3 4 3 3 4 4 6 7
16 24 24 30 39 40 39 41 46 45 43 43 43 39 35 33 30 27 23 23 20 17 15 14 11 9 10 9 8 7 8 7 6 5 5 5 5 5 6 7 7 10 9
15 19 25 31 36 36 40 44 44 43 43 37 35 33 32 29 27 23 21 22 19 17 17 14 12 11 12 11 9 9 8 8 8 9 8 7 7 7 8 9 9 10 9
12 13 18 28 36 40 45 45 38 37 37 33 33 31 30 28 24 20 20 19 19 18 17 15 13 14 13 11 12 11 12 11 13 13 11 11 10 9 9 10 11 10 10
16 14 18 24 30 35 40 39 33 38 36 35 33 30 26 24 25 27 21 20 19 18 17 16 15 16 16 16 15 17 17 17 18 18 16 15 14 13 13 12 13 12 12
21 20 18 19 27 32 39 41 38 42 40 37 31 32 31 31 31 22 21 21 20 19 18 18 19 20 20 20 22 21 16 22 25 24 23 22 19 18 18 16 17 17 15
21 23 20 20 21 29 40 41 43 40 39 37 38 37 37 31 25 22 21 21 21 22 21 22 24 25 24 25 27 23 10 15 17 22 28 29 25 22 21 21 21 20 19
24 25 24 24 26 28 34 40 44 43 42 44 42 39 39 35 30 25 25 24 25 26 25 27 28 30 28 29 29 30 32 27 17 9 16 25 27 24 24 25 25 23 22
24 26 26 27 30 30 32 35 37 40 45 45 39 34 45 41 39 36 31 28 27 27 29 33 33 33 33 31 31 33 35 34 35 24 14 15 17 20 22 21 21 25 25
26 27 26 26 29 33 36 39 39 42 45 46 40 39 40 43 40 38 35 31 30 31 34 34 33 33 35 33 31 33 36 35 35 32 27 30 30 29 28 20 23 28 27

GFSSE_850_spd_084.txt.gz
Wind_Speed
21 29 31 29 35 33 30 29 28 27 32 32 31 29 28 26 24 27 29 28 27 24 22 20 18 19 19 21 22 21 20 20 21 20 20 20 19 19 18 18 21 23 22
27 27 34 30 36 36 33 29 27 30 30 30 30 30 27 25 24 26 28 27 26 24 22 20 20 21 22 23 23 21 20 19 20 23 24 25 24 21 20 20 21 20 21
25 28 33 33 33 36 35 32 30 31 32 33 34 32 26 24 24 28 29 28 27 24 23 23 23 25 26 25 24 22 20 18 19 19 21 26 27 24 24 26 24 24 24
15 25 35 35 34 34 35 34 31 32 34 33 33 28 24 23 26 30 29 28 27 25 24 26 25 26 24 25 24 22 21 19 19 19 21 27 26 24 23 24 21 21 23
14 25 30 31 33 36 38 36 35 37 36 35 29 22 24 26 29 31 30 30 27 26 27 25 25 25 24 24 23 23 22 20 20 20 21 23 25 24 23 22 22 22 21
14 21 29 31 31 34 37 38 38 37 36 31 28 25 25 29 32 33 32 30 28 27 27 27 26 25 23 23 23 24 22 20 20 20 21 22 21 20 19 19 20 19 20
16 21 26 26 33 35 35 33 37 35 33 32 26 23 28 32 35 34 31 30 28 26 27 26 25 24 22 21 23 22 21 20 20 20 20 21 21 20 19 19 19 19 18
16 19 22 25 29 35 36 34 33 33 32 31 31 26 33 34 36 34 32 30 28 27 25 24 23 23 22 20 20 19 19 19 19 18 19 20 19 19 19 19 19 19 19
17 14 12 23 33 38 31 29 34 36 34 34 31 32 36 37 37 35 32 31 29 26 24 24 24 23 20 19 16 16 17 17 16 17 17 19 18 18 19 19 19 18 17
11 10 7 12 25 39 41 31 35 33 36 35 34 38 38 40 37 33 32 31 27 24 22 22 23 20 17 16 14 14 14 15 15 16 16 17 17 18 18 17 17 17 17
15 16 15 15 24 30 29 29 29 36 37 38 40 41 41 41 37 34 34 31 27 24 21 21 21 19 18 15 13 12 13 13 13 14 14 15 15 15 15 15 16 16 15
11 16 17 17 14 21 28 38 46 46 42 38 40 45 44 42 38 35 33 30 27 23 20 19 18 17 14 12 11 12 10 11 13 13 14 13 12 12 13 13 13 14 14
16 11 18 18 15 13 25 46 41 51 43 39 41 44 45 43 40 36 33 31 28 23 20 17 15 15 13 11 10 10 8 10 11 12 12 11 9 9 10 10 11 11 12
16 20 21 17 13 8 7 46 48 55 46 39 41 43 46 46 41 37 33 29 26 23 21 18 16 14 12 12 10 8 7 7 8 9 12 11 8 6 7 8 9 9 10
13 15 22 21 15 11 16 39 56 54 51 42 38 42 44 43 40 37 32 28 26 23 20 17 15 12 11 11 9 7 6 6 6 8 9 9 7 5 4 5 7 8 8
17 15 19 22 21 14 16 44 51 47 43 39 39 41 41 40 38 35 31 28 25 22 19 16 13 11 10 9 8 7 5 5 5 6 5 5 5 4 4 4 6 8 9
18 14 18 20 22 19 21 30 35 43 45 39 37 36 35 36 36 31 29 26 23 20 19 17 12 10 9 9 6 6 6 5 4 4 2 2 2 1 2 3 5 6 7
13 21 18 19 22 27 32 43 43 45 41 37 36 36 34 36 31 28 28 24 22 21 18 14 10 10 9 7 5 6 6 6 5 5 4 3 2 2 3 4 5 6 6
9 22 23 22 28 31 39 40 44 44 39 40 40 38 36 29 32 32 28 23 23 20 16 13 10 8 7 7 7 7 8 9 8 8 7 6 6 6 5 5 6 7 7
7 13 19 26 29 32 36 38 35 44 38 38 40 36 38 30 28 28 27 26 23 19 17 14 12 10 8 8 9 10 11 11 13 12 11 11 11 11 9 8 8 8 8
10 10 13 20 33 38 37 35 38 40 36 37 40 35 35 37 34 30 27 25 20 19 17 15 15 12 11 12 12 14 16 16 18 17 18 17 16 14 14 13 11 11 10
12 13 13 15 27 35 36 38 38 40 36 33 36 34 31 32 31 29 27 22 22 19 18 18 17 16 15 16 18 19 18 22 24 23 23 22 22 20 20 18 16 14 14
15 16 15 17 23 29 33 37 36 36 35 33 35 35 34 31 29 26 22 22 21 18 19 19 20 20 20 19 21 19 8 14 15 17 19 24 26 26 25 23 21 20 19
16 19 19 18 22 26 33 42 38 41 44 38 40 38 34 31 29 27 24 24 21 20 22 22 23 24 24 24 25 28 29 30 17 13 19 20 25 29 30 28 25 22 23
21 22 21 22 21 27 35 39 40 41 43 44 41 38 34 34 35 32 31 26 22 26 25 25 27 29 29 29 30 31 32 34 34 35 29 27 24 22 26 29 27 26 25
20 21 22 24 26 27 31 38 43 45 45 42 45 43 43 40 39 38 36 32 31 31 31 29 30 30 32 31 34 35 35 33 34 36 38 34 31 31 22 23 25 27 26

GFSSE_850_spd_087.txt.gz
Wind_Speed
20 33 33 30 32 31 33 35 34 33 32 31 30 32 28 24 23 24 23 23 24 23 22 19 18 17 17 18 19 20 21 21 21 21 20 20 19 19 20 21 22 22 22
18 33 35 36 35 32 33 36 37 35 34 34 34 34 20 24 25 25 24 24 22 22 20 18 17 19 22 22 21 21 21 21 21 21 20 19 18 17 16 17 21 22 20
15 30 34 34 27 33 34 34 37 36 36 35 34 33 26 28 25 27 25 25 23 21 20 19 20 22 23 22 21 21 20 20 22 23 25 22 22 22 21 19 18 19 18
9 24 34 31 38 37 37 38 38 39 37 39 37 32 27 28 27 27 27 25 23 21 21 22 23 22 22 21 20 19 18 17 20 24 23 22 21 21 20 21 20 20 20
13 25 28 33 35 36 37 38 39 41 40 41 37 30 28 26 27 28 28 26 23 23 24 26 24 22 22 22 21 20 19 19 19 20 22 22 22 19 19 21 19 20 20
13 18 27 31 34 40 37 38 40 41 42 41 36 32 29 26 32 30 29 26 24 21 24 25 24 24 22 23 23 21 21 20 20 20 20 21 18 19 19 18 19 21 20
14 18 19 24 20 29 42 41 42 43 44 40 36 32 30 31 31 30 29 26 25 24 24 27 25 23 24 24 23 22 21 20 20 20 19 19 18 19 18 19 19 20 20
16 18 22 21 25 30 32 43 43 44 43 40 35 33 34 34 31 32 30 28 25 26 27 27 25 23 23 23 23 21 20 19 19 19 19 18 19 19 19 20 20 21 21
16 17 16 14 28 28 28 31 37 41 41 38 38 37 35 34 34 33 30 27 26 27 26 25 24 22 21 20 20 21 19 18 18 19 19 18 19 20 20 20 20 19 19
10 13 12 13 17 24 32 28 32 35 41 40 37 37 37 37 37 33 28 27 27 24 25 24 23 21 19 19 19 19 18 17 18 18 18 18 19 19 18 18 17 17 16
12 14 15 10 13 25 34 31 29 35 36 38 39 41 41 39 37 32 30 28 26 25 25 25 23 21 19 17 17 17 16 16 16 17 17 18 17 17 17 16 15 14 14
10 15 15 13 11 18 23 41 30 42 37 40 38 43 44 40 36 34 32 29 26 24 25 24 21 20 18 17 16 14 13 14 15 16 16 15 15 14 14 13 12 12 12
9 15 18 19 15 14 18 32 36 38 43 39 39 42 43 40 38 36 34 30 26 25 26 24 21 18 14 16 15 13 13 14 14 14 13 11 10 11 11 10 10 10 10
14 17 18 17 19 16 20 26 40 51 42 42 41 43 44 42 39 38 35 31 27 26 25 23 20 17 15 14 12 12 13 12 13 14 12 10 8 7 7 7 8 8 9
15 17 21 20 18 19 21 15 37 45 53 44 44 43 43 42 41 37 34 30 27 25 23 23 19 17 15 14 12 10 11 10 11 14 12 9 7 6 5 5 6 7 6
11 14 15 20 18 13 13 15 42 55 51 47 42 40 44 43 40 37 33 30 27 24 22 19 15 16 15 14 12 11 9 9 9 11 9 8 6 5 3 2 3 4 4
10 15 15 14 17 8 8 28 42 55 49 48 43 44 43 39 36 33 33 30 26 23 20 17 16 15 14 14 12 10 9 7 7 8 6 5 4 3 1 1 1 1 2
6 13 10 11 12 10 14 37 49 47 45 45 41 41 39 35 33 33 31 28 26 24 20 17 15 15 13 11 10 10 9 9 8 8 8 7 5 5 4 3 3 3 4
8 13 13 10 13 17 23 30 37 40 41 44 37 38 36 35 33 31 30 28 25 23 20 15 15 12 12 12 10 10 9 10 9 10 10 9 8 8 7 6 6 7 6
6 11 16 9 14 21 27 28 32 41 43 40 38 35 39 36 34 28 26 26 26 22 19 17 15 14 12 11 11 11 11 11 12 13 13 13 12 11 11 10 9 9 10
9 11 14 14 15 21 28 32 34 34 35 34 40 43 32 35 34 30 29 25 26 22 19 17 16 17 16 15 14 14 14 14 16 17 17 17 16 15 16 16 15 13 13
13 12 16 16 21 25 29 33 34 38 30 33 36 47 37 28 27 28 27 29 25 23 22 21 20 20 18 17 17 16 12 17 21 22 22 22 21 21 21 20 20 19 16
17 17 16 17 22 28 30 34 33 39 28 31 34 35 45 41 30 30 29 29 27 25 25 22 23 22 21 19 19 17 7 10 11 14 20 24 23 25 26 25 24 24 22
18 17 17 18 20 28 33 34 31 46 40 37 41 41 34 37 42 40 34 30 27 30 25 25 22 21 22 24 23 25 26 26 14 12 18 18 22 24 25 30 30 28 26
21 23 20 19 21 25 28 30 34 41 38 38 37 42 41 39 34 36 34 31 31 27 26 24 24 24 25 27 28 29 28 30 31 30 21 22 25 26 23 24 26 29 27
20 21 24 23 24 26 30 32 38 40 39 37 36 39 42 45 37 35 33 34 29 28 26 25 24 26 28 29 31 33 33 31 31 32 34 35 33 30 28 26 27 26 27

GFSSE_850_spd_093.txt.gz
Wind_Speed
6 8 11 19 21 20 25 25 25 25 26 26 26 24 24 24 23 22 20 18 18 17 18 18 18 19 19 21 20 19 19 21 22 23 23 23 24 24 23 23 22 23 22
4 5 13 22 21 22 24 24 25 25 28 28 28 27 26 24 23 23 21 19 18 19 18 18 18 18 19 18 19 20 21 21 20 20 23 24 23 22 21 19 21 22 21
6 3 15 19 26 24 25 23 24 25 28 29 29 29 28 25 24 23 22 21 21 20 17 16 16 17 20 18 19 19 19 18 21 21 19 15 17 18 16 15 17 16 16
6 7 10 17 29 27 22 25 24 25 30 31 31 30 29 26 25 25 24 25 21 18 16 15 16 19 19 18 17 19 22 24 27 21 16 17 15 13 12 13 14 12 11
7 5 9 19 23 27 23 24 18 32 34 35 34 32 30 27 26 26 26 23 19 16 16 17 18 19 19 20 21 25 27 27 25 15 16 16 16 14 13 12 11 11 10
7 7 13 20 22 27 28 31 27 34 35 39 38 34 32 29 28 29 25 23 17 16 16 18 18 19 20 20 21 27 31 24 19 12 14 15 14 17 17 15 14 14 14
12 9 16 18 21 23 29 32 20 34 40 41 40 37 33 30 28 27 24 21 21 19 19 19 20 20 19 20 24 27 28 23 16 15 14 15 14 16 15 16 16 16 16
16 13 15 15 21 24 30 32 42 51 45 39 42 39 35 31 29 28 25 23 21 21 21 20 20 20 20 21 24 27 28 22 16 15 15 16 17 16 17 17 18 17 17
14 18 16 16 17 19 22 26 25 39 29 31 43 41 37 31 30 28 26 24 23 23 23 22 22 22 22 22 24 24 27 22 15 15 15 16 18 19 19 18 18 18 17
11 14 16 15 15 18 19 24 28 32 51 51 44 43 38 34 30 29 28 23 25 25 24 24 23 23 23 23 23 24 27 20 15 15 14 17 20 20 19 18 17 16 15
12 9 12 12 14 14 18 17 22 29 54 46 46 44 39 36 33 30 27 24 27 27 26 25 24 23 22 23 23 24 18 12 14 13 14 19 18 18 17 16 15 14 13
12 15 11 10 9 10 13 13 14 22 44 30 49 44 38 36 35 29 27 27 30 28 27 25 22 22 22 24 24 21 14 12 12 13 16 18 17 16 15 14 13 12 11
8 14 11 8 7 6 8 12 13 21 32 43 44 43 36 38 35 31 31 32 31 28 27 25 24 20 16 16 16 9 12 12 12 12 15 16 15 15 13 12 11 10 9
8 13 13 13 13 10 10 8 13 22 15 35 46 43 37 37 39 31 37 36 34 28 29 26 23 15 15 14 10 12 12 11 11 11 15 13 12 11 11 10 8 7 7
8 11 15 11 10 11 12 14 15 15 24 35 43 41 37 37 35 34 32 29 28 24 24 23 18 16 15 13 12 12 12 12 12 11 13 12 12 10 9 8 6 5 5
7 8 14 10 8 10 12 14 14 18 20 29 35 34 34 36 36 31 30 28 27 24 22 20 18 17 15 14 13 12 11 11 11 11 11 12 11 9 8 7 5 4 3
8 9 7 6 7 10 13 14 16 17 30 34 36 40 39 35 33 27 30 28 27 25 23 20 19 17 14 13 12 12 11 12 12 11 10 10 10 10 10 7 6 5 5
5 7 9 4 6 10 16 18 22 21 22 33 43 45 41 39 38 32 26 26 25 25 23 20 19 16 15 14 13 12 11 10 11 11 10 10 10 11 10 9 9 8 7
6 6 7 4 4 7 11 14 21 26 33 39 51 51 45 38 37 29 26 26 29 25 23 21 22 18 16 14 12 11 11 10 11 10 12 14 13 12 11 11 9 11 11
6 7 7 5 4 4 7 7 10 19 29 54 51 52 44 41 39 31 31 34 33 30 28 24 20 18 15 14 11 12 11 10 11 12 14 14 15 15 15 14 17 17 17
9 11 8 8 9 6 11 23 29 38 48 50 51 47 44 41 42 34 30 32 31 28 25 23 21 18 14 15 13 12 10 13 14 14 15 16 16 17 17 18 18 16 18
13 14 13 9 12 15 19 26 38 37 37 47 46 47 43 36 32 32 29 30 28 25 22 18 17 13 14 15 12 9 8 10 15 19 17 17 18 18 19 20 20 20 18
15 15 16 13 13 17 21 22 26 27 33 40 42 46 41 39 34 32 28 25 22 22 18 18 19 17 17 15 15 9 7 10 10 14 15 20 20 22 21 22 26 24 25
16 16 18 17 16 18 20 20 23 28 38 42 46 45 42 41 40 35 28 22 23 23 23 21 21 21 15 13 11 20 19 11 8 6 10 16 19 24 25 25 28 29 30
18 18 16 20 19 21 22 25 27 31 41 45 45 46 46 43 47 34 34 26 30 28 26 23 25 25 20 19 17 13 13 15 18 17 20 19 19 20 24 27 28 32 32
19 19 18 19 23 22 20 24 25 32 40 42 46 47 44 42 41 39 34 32 28 27 29 28 27 26 24 21 21 20 20 17 16 20 21 24 24 24 23 24 28 26 29

GFSSE_850_spd_096.txt.gz
Wind_Speed
9 11 11 5 11 16 17 18 17 17 18 18 19 20 20 20 19 19 19 17 16 16 20 20 19 20 21 19 18 15 14 20 21 23 24 24 24 23 23 23 23 24 22
6 8 10 8 13 16 17 17 18 18 19 20 20 20 20 20 19 18 17 17 17 19 21 20 19 20 22 20 18 16 19 20 21 22 25 24 24 23 20 21 23 22 20
6 7 11 9 13 18 18 20 19 19 20 21 21 21 21 21 20 19 17 17 18 20 20 19 18 20 21 19 19 19 17 18 19 18 21 22 21 18 16 18 18 16 16
4 4 10 10 10 19 20 22 20 20 21 24 23 23 22 21 20 18 19 19 18 19 18 17 17 18 18 18 19 20 26 28 23 16 12 17 15 13 11 12 12 12 11
3 2 9 12 10 16 21 22 21 20 21 26 26 26 24 24 22 20 20 20 20 17 15 16 18 19 18 19 23 28 26 24 18 15 15 16 15 13 12 14 13 11 11
1 4 12 11 12 12 22 23 23 23 29 27 29 29 28 27 25 22 22 20 19 18 16 17 20 22 22 25 28 29 26 22 11 13 15 15 18 18 14 12 10 9 11
8 6 13 15 13 14 19 24 27 28 25 21 21 32 31 30 22 24 23 21 20 19 16 19 20 23 25 33 32 27 21 20 14 12 13 12 18 16 14 14 14 14 14
8 8 12 16 15 16 20 27 32 27 23 19 28 33 37 33 22 26 25 23 20 19 17 18 22 24 27 33 30 25 25 23 19 12 10 16 17 17 16 17 17 16 16
8 10 11 14 14 17 23 24 27 30 27 28 39 37 40 35 32 27 26 22 18 19 21 22 23 25 28 31 30 29 23 23 13 11 11 17 17 18 18 18 18 18 17
8 8 10 10 12 15 20 22 26 23 29 30 41 32 42 38 33 30 27 22 23 22 23 23 24 26 28 30 28 26 23 20 12 8 10 17 18 18 18 18 17 17 16
10 11 8 9 9 14 19 21 23 24 26 34 30 40 41 40 33 30 26 24 25 25 25 25 25 26 27 28 27 27 20 13 17 11 9 17 18 17 17 17 16 15 14
10 12 10 8 7 14 15 17 21 21 25 26 36 29 42 41 37 31 28 28 27 26 26 25 25 27 27 30 27 21 21 15 12 9 15 17 17 17 16 16 15 13 12
11 14 13 7 10 13 10 11 14 18 21 24 31 36 41 42 37 33 32 30 29 28 28 27 27 27 30 31 24 16 19 10 9 8 16 15 15 15 15 13 12 11 11
11 10 9 9 12 11 9 9 9 12 16 27 28 40 48 43 39 34 35 34 32 31 30 28 27 24 28 25 15 15 19 12 9 7 14 15 14 13 12 11 10 9 9
7 8 11 12 10 14 10 9 5 9 18 9 38 34 44 43 39 36 36 38 35 32 30 29 24 20 20 19 14 21 17 12 9 6 15 14 12 11 10 8 7 7 6
7 9 10 12 10 12 8 10 12 14 10 11 38 50 45 43 39 38 38 39 35 31 31 26 23 22 18 18 18 19 15 10 7 5 13 14 12 11 10 7 6 6 5
10 12 8 11 9 9 9 11 13 12 18 30 39 43 46 42 39 37 38 38 28 27 26 23 20 21 19 18 19 18 15 17 11 8 7 13 12 11 9 7 6 6 5
8 10 9 7 7 11 13 14 14 14 17 25 36 39 38 41 35 36 34 35 29 28 24 24 22 22 20 17 18 18 15 18 14 11 9 8 10 12 9 8 7 8 7
8 9 10 8 8 10 13 16 17 19 22 25 32 35 37 36 36 33 32 32 31 30 27 27 23 23 21 17 14 14 13 14 15 16 11 11 11 9 10 10 10 10 10
10 9 10 11 10 9 9 14 20 24 28 31 36 42 40 40 38 33 31 33 33 34 28 26 25 23 21 17 12 14 15 14 13 14 18 19 16 14 14 13 11 13 14
10 12 13 12 9 6 3 5 10 23 32 35 32 38 46 46 41 35 31 29 31 36 30 30 28 23 20 19 17 13 15 16 15 15 17 20 19 20 20 18 18 19 19
13 15 13 13 11 11 11 10 13 24 32 36 47 52 50 48 45 38 36 33 30 32 31 29 29 28 27 22 7 15 9 12 17 21 21 20 19 19 20 18 25 24 23
17 17 16 15 15 16 16 23 20 32 43 49 48 52 49 49 41 35 30 31 34 30 30 28 24 18 15 15 15 12 7 7 8 13 14 18 19 19 21 23 25 26 26
18 18 18 18 18 18 18 24 29 41 44 46 48 51 43 43 41 34 29 32 30 27 24 23 19 16 15 13 16 22 16 11 7 5 9 12 13 21 24 24 28 31 31
17 19 20 21 21 20 20 20 25 30 34 40 51 51 50 44 45 41 33 35 32 28 27 25 22 20 15 17 16 15 15 22 22 19 16 20 19 23 25 28 26 30 33
21 20 22 22 23 23 22 19 24 27 33 40 44 47 49 48 42 37 35 31 33 27 27 26 24 21 23 22 24 22 18 15 15 14 16 19 21 23 26 31 34 30 32

GFSSE_850_spd_099.txt.gz
Wind_Speed
8 9 10 7 3 9 15 18 19 18 18 17 18 18 17 16 16 15 14 13 14 14 18 21 20 19 20 18 16 15 15 20 23 23 24 24 24 24 23 23 24 23 22
7 8 9 5 3 9 14 16 15 17 18 19 20 18 18 17 17 17 16 16 15 18 20 20 21 21 20 18 16 13 17 20 23 24 24 24 24 23 22 21 21 20 20
4 7 8 5 3 9 15 18 19 20 18 19 19 19 20 20 19 18 17 16 18 20 21 21 21 22 21 19 18 21 21 20 19 22 25 26 23 21 21 21 20 20 20
6 9 9 8 5 7 15 19 19 19 19 19 19 20 22 22 21 18 16 17 19 20 21 22 22 23 22 21 22 20 21 21 20 21 22 22 20 18 19 19 17 15 13
5 9 9 8 6 6 14 19 22 22 22 22 22 22 24 24 22 19 18 18 20 20 20 21 24 23 22 22 23 26 21 18 19 18 19 19 18 16 15 14 13 11 12
6 8 9 9 8 10 12 19 23 22 21 22 23 24 26 23 21 20 18 20 21 19 17 19 24 24 25 28 29 26 21 14 10 13 16 16 17 18 15 13 12 12 12
8 10 11 11 10 11 13 19 21 23 25 23 22 23 26 27 24 23 20 21 20 19 19 22 24 27 32 31 29 23 20 15 8 11 18 20 19 18 16 13 12 13 14
9 12 12 12 12 13 16 20 27 30 27 30 31 27 24 21 27 22 21 20 20 19 22 25 28 31 34 33 28 22 19 18 10 11 12 20 20 18 17 14 14 14 14
8 9 11 13 13 15 19 22 26 31 31 27 28 24 14 19 23 23 22 22 20 21 26 29 32 36 37 31 27 20 20 22 11 6 13 21 18 17 16 16 16 15 15
6 6 7 13 16 17 18 23 23 26 30 30 27 26 31 31 26 24 26 23 20 21 26 29 34 37 35 30 25 23 23 18 8 5 13 18 18 17 18 18 17 16 15
10 9 12 12 13 13 14 21 25 28 28 24 24 28 27 27 37 34 30 24 23 24 27 30 30 36 35 32 26 24 21 13 6 7 13 17 19 19 17 17 16 15 13
12 13 14 13 12 13 14 17 23 26 27 25 25 29 28 30 45 38 31 26 26 27 27 30 33 36 35 33 29 22 14 9 7 6 13 18 18 18 17 16 15 14 12
12 13 14 15 11 13 13 15 18 22 25 27 28 36 29 31 45 41 34 31 30 29 30 32 36 37 35 33 28 19 18 13 6 3 15 17 17 17 16 15 13 12 11
11 13 14 15 11 13 12 13 15 19 22 21 27 28 36 44 46 43 38 37 34 33 33 34 35 37 37 30 27 18 16 11 6 10 16 17 17 17 15 13 11 10 9
14 10 11 12 12 16 13 12 12 14 16 15 22 28 33 50 51 46 42 39 36 35 34 34 36 38 33 30 28 16 13 11 7 11 16 16 16 14 13 11 10 9 7
16 16 13 11 14 14 13 10 10 8 6 22 18 39 30 50 50 46 43 41 38 36 34 33 34 36 27 24 27 18 12 13 9 7 15 16 15 13 11 9 8 7 7
17 17 16 14 13 12 14 10 13 13 9 21 16 31 38 50 48 46 43 41 39 37 34 30 26 30 23 20 28 13 13 12 10 9 14 14 14 12 10 8 7 7 7
15 15 16 11 12 13 13 12 15 10 12 24 27 44 37 55 48 44 44 42 39 37 33 29 25 24 23 22 29 21 13 11 9 7 10 11 11 10 9 9 8 8 8
17 14 9 11 13 13 15 15 15 14 17 20 30 40 50 45 43 44 45 41 38 38 32 30 26 26 23 25 24 22 19 11 9 8 7 9 8 9 9 10 8 9 9
14 11 10 11 11 15 16 17 17 16 18 21 35 41 41 44 40 39 43 38 34 36 32 31 28 26 24 19 20 17 14 15 11 12 9 9 8 10 9 11 11 12 13
12 11 13 14 14 13 14 17 22 23 21 26 32 39 41 36 37 38 41 37 34 35 32 31 27 27 26 20 23 20 17 12 13 13 15 15 14 14 14 14 14 15 16
12 15 17 15 13 11 12 13 18 27 28 28 35 36 41 40 38 38 41 37 37 37 34 33 32 32 29 26 26 23 19 18 21 19 19 21 21 19 19 18 18 19 20
16 18 19 16 13 11 8 11 15 22 30 35 39 46 47 45 42 35 39 36 38 36 37 34 34 33 30 27 26 15 9 6 13 21 23 23 23 23 22 21 21 20 21
17 21 19 18 15 11 7 8 12 23 31 38 39 40 48 50 39 40 38 37 36 34 35 35 32 32 32 32 25 15 10 11 10 7 13 17 16 17 17 18 21 23 24
18 24 23 19 17 17 12 11 12 27 31 33 40 46 52 54 46 38 37 38 36 37 34 30 33 32 29 24 24 19 17 15 13 13 11 16 15 19 20 20 21 24 28
18 25 26 23 21 20 18 18 16 23 32 38 45 47 53 54 54 48 46 45 33 34 35 31 32 29 24 20 19 20 20 19 20 22 21 19 18 18 19 21 25 28 30

GFSSE_850_spd_102.txt.gz
Wind_Speed
4 5 5 4 5 12 18 21 23 22 20 18 19 17 17 22 25 24 22 20 17 20 20 21 21 26 21 19 18 18 19 20 20 22 22 22 23 23 23 22 22 21 19
4 5 5 2 4 11 18 20 20 21 18 18 18 19 18 18 20 20 19 17 18 18 19 22 23 23 22 19 17 15 19 21 22 22 22 22 21 22 22 22 21 21 20
6 6 4 3 3 9 17 20 21 21 16 20 20 19 20 20 20 19 18 17 16 18 21 22 22 22 19 18 17 17 19 23 24 24 24 24 21 21 20 20 20 19 20
2 5 5 3 1 6 15 20 20 21 23 22 20 20 21 22 21 19 18 18 18 21 22 23 23 22 21 20 21 23 24 22 20 23 24 23 21 21 20 19 20 17 16
1 5 6 5 5 5 11 20 22 23 23 23 23 22 23 23 21 20 18 19 21 21 22 23 24 24 23 23 24 24 22 22 22 23 23 21 19 18 18 17 16 13 14
3 7 8 8 7 8 10 18 23 23 24 22 25 26 24 23 20 18 17 19 21 23 24 25 27 27 24 24 24 23 21 21 20 19 19 18 16 16 14 13 12 14 13
8 9 11 11 10 10 12 16 22 23 23 25 25 25 24 19 13 15 16 20 22 23 24 26 28 28 27 26 24 21 20 16 15 15 16 16 17 17 15 13 13 13 13
11 11 14 14 13 12 14 16 20 23 27 26 26 27 31 16 14 15 14 19 21 20 23 30 28 30 31 27 23 19 17 13 12 15 19 20 18 19 16 15 14 13 13
11 9 13 15 15 15 16 18 23 27 30 31 29 28 16 22 24 17 19 20 18 18 26 30 31 35 31 27 25 19 16 14 12 12 18 21 20 20 17 16 15 16 14
9 7 7 10 14 16 17 21 24 27 31 31 31 33 31 21 20 30 21 21 17 20 29 32 38 34 31 25 21 18 15 12 7 9 18 21 20 18 17 16 16 15 15
11 8 7 9 10 13 18 19 23 25 28 31 28 30 28 22 33 30 24 24 19 22 30 34 38 35 28 23 19 17 16 12 7 9 16 20 20 19 18 17 16 15 14
12 10 10 9 11 12 15 17 22 27 28 33 32 33 22 22 26 24 30 27 23 25 31 37 39 34 26 24 22 21 16 11 7 12 15 18 20 19 18 16 15 13 12
9 12 13 13 14 12 14 15 18 26 29 32 34 31 28 32 33 29 33 32 28 29 35 40 40 34 28 25 25 22 16 12 10 10 15 18 18 18 17 15 13 11 10
14 14 16 16 14 12 14 15 17 24 31 34 32 32 32 35 39 38 42 39 34 33 38 41 42 37 30 24 23 20 16 11 6 9 15 16 17 16 16 14 12 11 10
19 19 18 16 14 13 14 14 17 21 25 28 31 32 37 40 36 44 51 45 37 36 38 42 41 40 32 22 22 19 15 10 5 13 15 16 16 16 15 13 11 10 9
19 18 18 17 15 15 16 16 18 20 21 26 32 37 43 41 35 54 50 44 39 38 39 42 44 41 32 26 23 19 14 10 7 11 14 16 16 14 13 11 9 9 9
21 19 17 16 17 15 16 17 18 17 14 16 28 33 39 44 53 56 51 44 41 39 40 42 43 38 34 26 22 17 15 12 7 7 13 14 14 13 11 10 10 9 9
20 16 14 14 18 14 16 17 15 16 14 14 12 27 37 52 55 51 48 44 41 41 41 43 46 39 37 29 23 19 16 13 8 7 13 13 13 12 12 11 9 9 8
18 13 12 13 12 13 16 14 15 15 12 17 21 24 40 52 53 52 47 45 43 42 42 45 46 40 34 29 25 20 16 12 9 8 10 11 11 10 10 10 9 8 9
17 13 12 12 15 16 18 16 15 13 13 15 28 27 31 52 51 47 46 46 46 45 43 42 43 36 30 31 23 19 15 13 10 8 7 8 10 10 10 10 11 11 10
19 15 11 17 17 18 20 19 20 18 17 16 29 39 33 43 45 46 47 48 47 45 41 38 34 32 27 32 28 20 16 14 12 11 10 11 12 11 11 11 11 12 12
20 16 14 18 17 18 19 21 23 21 17 17 31 41 44 48 42 44 48 49 48 43 40 37 34 33 30 30 32 26 20 17 18 17 12 14 15 15 15 13 15 15 14
23 18 17 19 16 15 15 15 18 23 22 20 28 48 47 46 42 45 48 48 47 43 39 40 34 35 36 32 30 25 12 11 23 22 20 18 18 19 18 18 17 16 16
24 20 19 19 16 12 12 16 18 23 28 28 27 47 47 45 42 40 48 44 42 44 40 41 33 35 36 36 34 26 16 10 14 13 18 23 23 22 19 19 19 17 16
24 21 19 19 16 12 11 11 16 20 27 29 34 37 40 42 42 42 46 40 41 40 39 42 37 36 35 34 34 32 19 15 13 9 11 14 16 16 18 20 20 20 19
25 23 19 20 17 14 12 11 15 20 26 30 38 44 44 45 48 47 46 44 44 45 47 40 36 34 34 33 29 26 29 20 15 16 15 18 20 18 18 19 20 21 24

GFSSE_850_spd_105.txt.gz
Wind_Speed
8 6 6 3 6 12 18 22 22 20 18 17 20 23 25 25 24 23 25 24 23 21 20 21 22 22 19 18 21 23 21 19 20 22 22 22 22 21 21 22 21 21 19
8 7 8 5 8 12 18 22 21 21 20 19 20 24 26 25 23 21 23 22 22 21 21 21 22 23 21 21 21 20 19 20 21 21 20 20 21 20 20 19 18 18 18
7 8 9 7 6 12 17 20 19 18 18 17 18 16 23 25 24 23 23 21 21 22 21 21 24 22 21 19 19 18 20 20 23 23 22 21 20 19 19 19 19 18 17
10 11 8 6 6 11 18 20 20 21 20 20 22 26 25 23 23 23 21 19 20 20 23 23 23 23 20 19 16 18 20 22 24 23 24 22 21 21 18 16 16 17 16
9 6 4 5 7 11 18 21 23 24 21 20 22 24 24 25 24 22 20 19 19 18 22 22 24 22 20 19 19 21 22 22 21 22 25 24 21 20 18 17 16 15 15
6 4 5 7 9 11 16 22 26 24 24 23 22 20 25 26 19 17 18 18 17 18 22 23 23 22 22 21 22 23 21 19 20 22 22 20 17 17 16 14 14 14 15
7 8 10 9 10 10 14 20 24 25 24 25 24 20 19 23 21 13 16 16 15 18 22 23 25 26 24 24 23 22 20 19 19 19 19 18 15 16 14 13 12 13 14
11 11 11 11 12 12 14 17 22 24 23 25 30 37 28 18 13 16 15 14 16 18 21 23 27 25 24 23 22 20 20 17 16 16 16 16 13 15 16 13 13 13 12
12 12 12 12 13 14 14 16 20 23 25 24 27 33 31 26 26 23 9 12 15 18 21 26 27 25 24 24 22 19 16 14 15 17 16 15 16 16 15 14 14 13 14
14 12 10 12 13 15 15 17 18 21 23 26 28 27 30 30 35 29 25 15 15 17 23 28 27 27 25 24 20 17 15 13 11 13 17 18 18 17 17 17 15 15 14
17 13 11 10 10 12 15 18 21 25 26 27 27 29 32 31 26 28 28 25 22 19 29 30 29 30 26 22 20 17 15 11 9 12 16 19 19 17 17 17 16 14 13
20 15 13 11 10 11 12 16 21 26 28 30 32 31 33 26 30 32 27 26 26 20 30 32 34 31 28 23 20 18 14 9 6 12 14 20 20 18 17 16 15 14 12
19 17 15 14 13 14 14 14 18 23 29 33 35 34 32 32 30 36 35 24 29 25 32 36 37 33 27 24 23 20 14 8 8 11 15 18 19 18 16 15 14 13 12
23 20 18 18 17 16 15 16 16 20 27 32 32 32 33 31 33 36 30 37 37 28 35 40 37 32 26 23 22 21 13 11 8 12 15 18 18 16 15 13 12 12 11
25 23 22 20 19 17 17 17 18 20 24 33 32 33 39 31 35 31 32 36 36 30 37 42 38 31 26 25 23 18 14 10 7 12 15 16 16 14 13 12 11 10 9
27 25 25 23 19 18 17 18 19 20 22 30 34 34 39 35 37 36 36 37 34 33 39 44 41 34 28 24 23 20 15 10 8 14 15 14 13 13 12 10 9 8 7
29 27 27 22 19 18 16 19 20 19 20 23 27 34 38 41 41 44 44 43 43 37 42 46 41 34 28 23 23 20 15 12 10 14 14 14 13 11 10 9 8 7 6
32 30 25 20 18 16 17 18 19 19 20 22 23 31 41 45 43 47 48 50 47 40 44 48 43 37 29 27 26 21 17 13 11 12 13 12 11 11 11 10 8 6 6
32 28 22 17 15 15 15 18 18 17 19 20 20 17 32 40 45 48 49 46 48 42 46 49 47 39 32 29 26 20 18 14 11 11 14 12 11 11 10 9 8 7 7
31 25 19 16 15 15 16 18 17 17 16 19 21 25 21 37 43 46 45 48 43 45 48 51 48 39 34 28 24 22 17 13 10 9 11 11 12 11 10 10 9 8 7
30 26 21 16 17 19 18 20 18 16 16 14 16 17 26 28 43 46 42 45 45 47 49 51 49 40 31 28 26 22 18 15 12 11 12 12 12 10 10 10 10 10 10
32 28 21 17 20 21 18 18 19 19 15 16 13 22 28 32 44 46 43 47 47 48 50 52 51 43 34 31 31 27 21 18 18 16 14 13 12 10 11 11 11 11 11
35 29 22 19 22 21 19 21 21 20 19 15 16 27 34 42 46 44 46 46 47 48 50 50 51 45 38 34 31 22 12 10 21 20 20 16 15 12 14 14 13 13 12
37 29 22 20 23 20 17 19 21 24 22 21 15 32 38 36 42 44 44 45 48 48 46 45 44 42 39 39 34 27 18 13 12 12 21 19 16 16 16 16 15 14 14
36 30 23 22 23 18 17 16 15 16 17 22 18 31 35 41 48 44 44 45 48 47 43 43 39 39 36 39 38 35 24 12 11 9 12 18 20 20 17 15 15 16 17
35 29 25 24 23 19 16 14 17 17 20 21 24 33 44 47 44 39 36 41 44 43 39 40 37 33 34 35 35 34 31 20 15 14 5 5 14 14 15 18 17 17 18

GFSSE_850_spd_108.txt.gz
Wind_Speed
12 9 6 5 3 8 13 16 18 18 18 20 23 25 26 25 24 24 25 23 21 21 19 20 23 24 23 20 17 18 18 20 22 23 24 23 23 22 21 20 20 21 20
10 7 7 6 5 8 13 17 19 18 18 21 23 26 26 25 26 25 25 23 22 22 21 21 22 21 18 17 20 20 20 21 22 22 23 23 21 21 20 19 18 19 17
10 8 10 8 8 10 14 17 19 17 16 19 24 27 27 25 26 26 24 23 22 21 20 20 21 20 20 22 23 21 19 21 21 20 20 21 21 22 20 18 17 17 17
9 9 10 9 10 12 15 18 19 19 18 20 22 26 25 20 24 26 24 22 20 20 19 20 21 22 22 22 20 16 17 20 21 21 20 21 21 20 20 20 18 16 15
11 11 10 9 10 14 18 20 20 21 21 23 27 28 28 28 27 25 22 20 20 18 18 20 22 22 21 20 17 17 19 20 22 20 22 23 22 21 19 17 15 16 16
12 10 11 10 10 14 18 21 22 23 23 22 23 19 27 27 24 18 17 17 16 17 20 21 21 20 19 18 17 18 21 22 21 22 24 22 21 18 16 15 13 14 16
13 12 12 10 11 13 17 21 23 23 23 24 22 25 20 21 16 14 15 14 13 16 19 22 22 21 20 20 20 21 19 18 20 22 22 19 18 17 13 12 10 11 14
13 11 11 9 11 13 15 19 23 24 22 22 27 31 20 23 23 15 13 12 12 17 20 22 23 22 21 21 22 20 18 18 19 19 18 16 14 11 10 11 12 13 13
15 13 12 11 11 13 14 16 19 22 21 24 27 26 28 35 21 23 17 12 14 19 20 22 23 23 22 22 21 19 18 18 17 19 16 14 12 11 13 12 14 13 14
18 15 13 13 12 14 14 16 18 19 23 26 26 31 31 28 31 25 26 17 16 16 18 22 25 22 21 21 20 18 17 15 15 16 15 14 13 14 15 15 13 13 14
22 20 16 14 13 14 14 15 17 20 24 25 28 24 30 31 28 28 26 25 22 20 20 24 25 22 21 21 19 17 14 12 13 15 15 16 15 17 16 14 14 15 15
27 23 19 16 14 14 13 13 17 22 26 28 31 30 31 26 29 33 35 23 30 24 22 28 25 24 24 23 20 16 15 11 12 15 17 18 18 17 16 16 15 14 13
28 24 20 17 17 16 15 13 16 23 28 31 31 29 33 26 31 33 29 29 31 25 23 30 29 29 26 23 21 18 14 10 12 16 15 19 18 16 17 17 15 14 13
30 25 21 19 21 19 17 15 16 20 27 32 34 36 36 32 37 30 35 33 29 26 22 32 32 30 27 22 18 18 14 10 12 15 15 18 17 17 17 16 14 14 12
32 28 25 23 24 21 18 18 18 19 21 28 32 35 36 39 35 38 39 36 34 31 28 35 35 33 29 22 20 19 14 10 12 13 16 17 17 17 16 15 13 12 11
32 32 28 28 26 21 19 19 19 20 20 23 29 33 33 35 37 40 45 37 31 36 32 35 38 34 30 22 23 21 14 10 9 14 15 16 16 16 15 14 13 11 9
36 34 32 29 25 21 19 18 18 20 19 22 27 31 29 34 40 40 47 39 37 35 32 36 39 32 28 24 25 20 15 12 10 16 15 16 16 15 14 12 10 9 8
39 38 33 29 24 20 20 19 19 19 20 21 25 29 31 35 41 41 45 38 40 38 33 38 40 34 29 27 25 22 17 13 11 15 15 14 15 15 13 11 9 7 7
39 39 35 30 24 21 19 19 18 18 20 21 23 27 31 39 43 46 44 40 40 38 36 38 41 38 32 27 25 23 18 14 12 14 14 14 14 13 11 9 8 7 6
38 38 32 28 24 21 19 18 17 18 18 20 24 27 28 32 43 50 47 45 42 41 40 40 44 38 32 27 28 23 19 14 11 10 14 14 13 11 11 10 9 7 7
35 37 33 30 26 22 21 20 22 22 19 21 22 26 29 26 30 45 53 51 47 43 43 43 46 41 31 31 30 24 21 16 14 13 16 15 15 13 12 12 10 9 8
33 36 34 32 26 22 21 19 21 21 21 21 18 19 18 24 29 39 52 48 48 47 50 48 50 42 35 35 33 29 21 18 19 18 17 15 13 13 12 12 10 9 9
35 37 35 31 25 21 20 18 18 17 19 19 22 13 23 28 27 34 42 47 45 45 49 50 50 48 42 38 34 24 14 10 21 21 19 16 15 15 14 12 10 11 11
39 38 33 28 23 20 21 21 21 22 22 23 17 19 22 29 29 32 35 31 42 45 45 47 48 47 44 40 37 27 23 15 16 13 20 20 17 18 15 14 13 14 13
40 36 32 28 22 21 22 21 20 23 20 19 19 18 25 36 34 33 32 33 43 42 42 46 49 47 43 41 37 32 25 14 16 10 13 20 22 16 17 15 15 14 14
36 34 33 28 23 22 21 21 18 16 15 15 16 19 29 36 41 37 36 36 42 41 41 45 49 47 44 40 37 35 32 22 16 15 10 6 9 10 12 15 14 16 15

GFSSE_850_spd_114.txt.gz
Wind_Speed
12 9 9 8 5 1 6 10 12 14 15 16 18 20 21 21 19 19 20 20 19 18 17 18 17 17 18 17 15 15 16 19 21 20 21 20 20 21 21 20 19 21 20
14 9 8 7 4 1 5 7 10 13 15 16 19 21 22 22 21 22 22 21 20 18 18 17 17 16 17 17 16 17 19 21 21 20 20 21 21 21 21 21 20 21 20
13 8 5 4 6 5 6 7 9 12 13 15 19 22 24 25 24 24 24 22 20 18 17 19 18 17 17 17 17 17 19 19 19 19 19 17 19 19 16 16 18 17 16
12 10 7 8 8 8 8 9 10 11 13 15 19 22 24 26 26 26 25 23 19 18 18 20 18 17 17 16 17 18 19 19 19 20 16 18 18 18 17 16 15 14 15
16 13 11 10 10 10 10 11 12 14 15 16 20 21 23 26 24 23 23 22 20 18 18 17 16 16 17 18 19 18 19 20 20 16 16 16 16 16 16 16 15 14 15
16 17 13 12 11 10 11 13 15 16 15 17 19 23 26 22 19 15 16 17 19 17 16 15 14 15 19 20 18 16 18 18 16 15 16 17 17 18 17 16 14 14 14
19 18 14 13 11 9 11 13 16 17 17 17 17 21 21 26 6 15 13 17 16 16 15 15 14 18 20 19 14 15 17 17 13 15 16 18 17 16 14 12 13 14 14
20 17 15 14 11 9 10 13 17 17 16 18 19 19 26 24 11 14 19 18 16 15 14 15 14 20 19 17 15 16 17 18 16 15 16 16 17 15 11 12 12 14 14
22 19 17 15 13 11 11 12 16 17 19 20 23 23 25 24 18 16 26 22 19 15 16 17 17 19 21 18 16 17 17 17 15 16 13 14 13 10 8 11 10 15 16
23 22 19 17 15 13 13 13 15 18 20 21 24 24 24 22 21 25 26 24 21 14 14 16 17 19 21 19 18 18 15 15 13 13 11 12 12 10 9 9 12 15 15
23 24 22 19 17 14 15 14 14 17 21 24 25 26 25 24 28 24 27 24 13 12 18 17 21 22 23 20 20 17 14 12 13 10 11 12 11 11 9 13 14 14 15
22 25 25 23 20 17 17 17 16 18 21 24 27 27 26 26 27 25 29 20 17 15 16 20 20 22 22 22 20 16 14 12 9 7 10 11 11 10 12 14 15 16 16
18 22 26 25 22 20 20 19 19 21 21 23 25 28 27 27 26 29 22 19 22 20 23 21 21 25 24 20 19 16 10 10 9 9 11 11 9 13 15 16 17 16 15
18 21 26 26 25 22 22 21 22 24 25 27 28 29 33 31 27 25 22 22 31 24 26 24 27 26 21 18 18 15 13 11 10 10 12 12 14 15 15 16 16 15 15
19 21 25 28 28 27 25 25 25 24 25 27 28 31 33 33 29 26 22 23 27 27 27 26 29 25 22 18 17 15 14 12 12 12 11 18 16 15 16 15 14 14 13
18 23 24 29 31 31 29 27 25 25 24 27 28 29 33 34 35 29 27 26 28 30 29 30 27 27 26 18 18 16 13 11 13 13 13 18 17 15 16 14 14 13 12
18 22 26 28 33 35 32 28 27 25 25 25 27 27 30 34 37 37 32 28 28 33 30 29 27 28 20 19 19 17 14 13 13 14 13 16 16 16 15 14 15 13 12
18 22 25 27 33 37 35 31 28 26 25 26 26 24 27 30 35 36 33 31 35 34 30 31 31 27 23 22 19 18 16 13 13 15 15 14 14 15 16 15 13 12 10
19 20 26 30 33 36 36 33 28 27 24 24 26 25 26 29 33 33 38 33 37 32 32 36 34 27 25 25 20 19 17 14 13 15 15 16 15 14 12 14 13 11 10
21 19 24 27 30 34 37 33 29 27 26 24 26 27 28 30 34 35 39 36 38 36 34 36 38 29 26 27 22 19 17 14 14 15 16 16 16 16 14 13 13 12 12
21 17 22 25 28 35 39 37 32 30 27 24 24 27 28 28 33 33 38 35 41 41 39 41 36 30 28 27 24 21 16 14 14 15 16 16 16 16 15 14 12 11 12
20 17 20 24 28 35 38 36 32 29 25 24 25 25 28 29 30 33 34 39 43 44 41 42 40 34 31 31 30 25 17 14 14 17 17 17 18 16 16 16 16 15 12
21 19 19 24 28 32 32 34 27 19 23 24 24 26 27 28 32 32 38 39 45 49 49 46 41 37 38 35 30 28 21 18 20 18 19 19 18 17 16 17 18 17 16
18 19 19 22 27 28 29 29 28 23 19 21 23 25 26 25 28 32 31 37 49 52 50 51 46 42 37 36 30 24 20 18 25 16 18 19 18 19 19 17 18 18 17
16 19 19 23 26 29 28 24 23 18 16 15 17 21 24 27 28 32 31 38 41 53 53 52 50 46 42 38 35 29 22 18 17 14 19 21 19 20 19 20 17 16 17
13 17 18 22 28 33 32 25 22 21 19 20 19 22 26 27 30 32 29 32 42 46 49 50 51 51 47 41 37 30 26 24 20 16 14 20 23 20 19 17 17 16 15

GFSSE_850_spd_117.txt.gz
Wind_Speed
7 10 11 9 6 2 5 8 10 12 12 13 15 17 17 17 17 15 16 17 17 17 16 17 16 16 15 14 13 13 12 13 14 16 18 18 19 18 18 17 16 19 19
13 11 11 8 7 4 2 5 8 11 12 13 16 18 19 19 18 18 19 19 18 18 16 16 16 16 15 13 12 11 14 17 17 18 18 20 21 20 20 21 19 20 19
13 9 7 6 4 3 3 5 6 9 11 13 15 18 20 19 20 21 21 20 19 19 18 17 16 15 15 14 13 14 16 17 17 16 18 18 19 19 18 16 19 18 17
13 9 5 4 4 2 4 6 6 8 10 11 14 18 19 21 23 24 23 22 22 19 18 18 15 16 16 16 15 15 16 17 18 19 18 17 17 16 16 16 15 14 13
13 11 6 8 6 5 6 7 8 9 10 11 13 15 18 19 20 13 18 13 17 20 19 19 18 16 17 15 15 15 16 17 18 17 16 15 15 16 15 13 14 14 13
13 12 11 11 8 7 7 8 9 10 11 11 10 12 15 14 15 18 13 15 18 17 19 16 16 16 15 14 16 16 17 19 16 14 14 16 15 16 16 16 14 13 12
15 15 14 12 10 8 8 9 10 12 12 11 12 14 17 20 12 7 15 20 9 10 14 15 13 12 16 17 17 16 17 16 11 13 16 16 15 16 15 12 12 13 12
16 17 14 13 11 8 7 9 10 12 12 11 12 14 20 19 12 7 18 12 14 14 13 13 12 14 17 19 15 15 18 14 17 14 12 15 18 15 12 11 11 11 12
16 17 16 15 13 10 7 8 10 12 13 14 14 17 19 18 13 15 14 17 18 17 15 12 14 18 20 17 14 17 21 15 13 15 15 14 16 12 8 8 9 11 12
15 17 18 17 15 12 9 9 10 12 15 16 17 18 18 17 14 12 13 19 18 16 16 15 14 20 20 18 15 17 21 15 16 12 14 13 13 9 5 7 10 12 13
16 16 16 17 17 15 12 10 11 13 17 18 19 20 19 19 17 14 20 21 18 17 14 15 17 20 20 19 16 16 16 12 13 12 12 11 10 7 5 8 12 12 15
18 18 18 18 17 18 15 14 13 14 17 20 21 21 22 19 19 20 20 22 21 14 11 15 16 18 21 20 18 18 15 14 11 9 12 9 8 7 9 9 12 15 15
18 18 20 20 19 19 18 17 15 15 14 16 20 20 23 21 21 22 22 24 23 15 14 19 16 19 21 19 20 19 13 13 10 10 9 10 8 8 10 12 14 14 13
18 19 21 22 21 24 20 21 16 18 16 16 18 23 23 23 24 22 20 19 25 20 22 22 22 19 19 19 19 17 13 11 11 11 10 9 9 10 11 13 14 14 14
19 20 22 23 23 24 26 22 20 21 19 19 19 22 25 24 26 26 21 22 23 24 25 22 19 21 20 19 17 16 13 12 13 9 7 14 12 13 12 14 14 13 12
19 21 23 24 25 25 27 29 27 22 22 24 24 23 26 27 28 27 26 24 20 25 30 25 23 25 23 21 20 15 15 13 13 10 10 16 15 15 14 14 12 13 12
22 21 24 25 26 27 29 31 30 23 22 25 25 25 28 28 30 29 27 27 27 28 27 22 27 26 23 21 20 18 16 14 14 15 11 14 17 16 15 14 12 13 12
24 23 24 25 28 30 26 25 24 27 25 24 23 24 27 27 29 30 28 30 27 24 26 28 29 28 24 21 20 22 18 15 15 16 13 14 15 15 17 16 15 14 13
24 23 22 26 28 31 28 25 25 26 27 25 24 23 24 27 27 30 32 32 29 29 28 31 29 27 28 25 23 22 20 16 15 16 16 16 17 15 15 18 17 14 13
23 22 22 25 29 31 30 28 25 26 29 28 26 24 22 24 25 27 31 31 32 32 31 32 28 29 27 25 24 22 22 21 16 17 18 17 14 15 12 12 14 14 14
23 22 21 24 28 32 33 35 39 35 30 29 26 24 24 24 24 27 28 32 32 34 33 32 30 33 30 27 27 26 20 20 19 17 18 18 17 17 15 12 13 11 12
24 23 21 23 27 32 38 41 31 26 25 20 20 20 23 26 29 29 29 32 32 35 34 34 35 40 34 29 32 29 20 19 20 18 19 20 19 19 18 16 14 12 11
25 23 22 23 26 33 40 33 23 22 25 27 26 23 21 22 28 31 32 33 32 32 44 41 39 43 40 36 33 34 23 17 23 20 21 20 21 20 19 18 18 17 16
26 22 22 23 25 35 33 29 29 25 27 24 19 19 22 23 26 30 30 33 33 35 41 39 42 43 40 39 36 32 24 21 29 23 22 21 21 21 20 18 18 18 18
23 21 20 22 25 31 29 28 30 25 18 15 17 18 20 18 22 25 30 34 33 44 48 46 45 44 45 41 43 37 30 18 27 24 26 26 21 21 20 21 17 16 18
13 16 19 21 25 28 31 30 27 26 21 19 18 17 19 20 22 25 27 30 33 36 48 47 46 49 46 42 39 39 30 24 28 23 22 25 26 23 21 19 20 17 13

GFSSE_850_spd_120.txt.gz
Wind_Speed
10 13 10 9 6 2 2 4 6 7 8 9 10 10 10 10 9 8 9 12 14 14 14 15 17 17 16 15 14 13 13 11 9 8 10 15 20 20 20 19 19 20 19
13 12 11 9 7 4 0 2 4 5 6 8 10 11 10 10 10 10 10 14 15 14 14 14 15 13 12 13 13 12 12 12 13 14 16 19 20 21 20 15 20 21 20
13 12 11 9 7 4 2 1 3 4 6 7 9 10 9 9 10 11 13 14 14 14 13 14 13 14 13 12 12 13 15 17 18 19 20 21 21 20 19 18 20 19 19
15 13 9 7 5 3 3 3 2 3 4 6 8 9 9 9 9 10 11 11 13 14 14 14 14 13 13 12 13 17 19 19 21 21 15 21 21 18 17 18 18 16 14
12 12 9 7 4 2 2 4 4 3 5 6 7 7 8 12 16 16 5 10 9 11 13 15 14 13 14 14 14 17 20 21 22 19 16 16 18 17 16 16 15 13 13
12 12 11 10 6 2 0 2 4 4 3 4 4 8 11 15 12 8 16 15 16 4 11 13 14 15 14 13 15 18 20 19 18 17 15 14 18 18 16 15 14 13 14
17 14 13 12 9 4 2 2 4 4 4 3 5 10 13 12 8 5 13 28 11 8 15 11 11 12 13 14 16 19 20 20 16 14 16 15 16 16 17 15 12 12 13
20 18 15 14 11 7 3 3 4 5 5 5 5 9 9 9 11 4 8 12 17 19 16 16 14 13 14 16 18 21 19 16 17 13 14 14 17 17 14 12 11 11 12
21 20 15 15 13 10 6 5 5 6 7 7 8 9 7 8 10 6 10 9 11 14 16 14 14 15 17 19 18 21 18 16 16 14 11 16 17 14 11 10 10 10 10
21 21 16 16 14 12 9 6 6 7 9 10 11 10 9 9 10 9 8 12 17 15 15 12 14 16 19 18 18 22 17 16 15 13 12 14 16 12 9 8 10 10 10
18 17 17 17 17 16 13 10 9 9 10 11 13 13 12 12 12 18 9 14 19 18 14 14 14 16 17 18 17 19 17 12 14 15 15 13 13 10 8 8 9 11 11
21 19 18 17 18 19 17 14 13 11 11 13 15 15 16 16 16 17 12 19 20 18 15 15 15 16 18 18 20 21 19 16 14 13 14 13 11 10 8 7 9 12 12
22 22 21 19 19 19 20 18 16 14 14 15 17 16 18 19 16 15 15 19 19 19 18 15 17 17 20 20 21 22 20 16 14 13 12 11 10 9 8 10 13 13 13
24 25 23 23 22 20 21 21 18 17 15 13 14 16 16 20 20 19 22 22 23 24 19 16 17 18 21 21 21 22 16 16 14 15 10 9 10 10 8 12 13 12 15
25 29 26 26 25 24 23 22 21 20 18 15 15 15 21 22 22 22 23 20 23 27 20 16 18 20 22 21 21 20 19 12 18 15 9 8 12 10 12 15 14 15 14
21 26 25 25 28 28 26 25 23 24 20 22 22 18 19 22 22 22 24 25 23 20 22 18 20 23 23 22 20 19 19 12 11 9 9 11 14 14 14 16 16 15 15
26 25 25 27 27 31 30 28 28 30 28 26 26 21 19 20 22 22 28 29 25 21 22 24 21 19 21 22 22 19 19 16 14 10 12 11 19 15 15 14 16 16 15
31 31 31 31 31 32 33 30 33 33 28 28 24 23 21 20 22 24 26 26 24 25 25 27 29 21 24 23 24 21 19 19 18 12 11 11 20 18 18 17 15 16 16
32 29 35 34 32 31 35 33 27 32 30 29 26 23 23 21 22 25 26 26 27 28 26 25 27 23 29 26 24 25 22 20 22 15 13 9 14 21 20 19 17 17 17
32 29 28 32 35 32 34 33 27 25 28 28 28 24 23 22 23 24 27 27 29 30 29 26 28 28 30 28 24 26 27 21 20 21 19 16 15 14 19 20 19 17 17
23 31 27 21 30 33 35 37 35 32 33 33 29 25 22 21 23 25 27 28 29 32 31 28 28 31 33 29 27 26 26 20 19 23 19 18 15 17 13 15 12 16 16
27 28 28 29 23 32 36 39 37 33 34 30 32 28 25 23 22 25 27 29 30 31 33 31 30 34 29 35 31 33 23 22 24 22 24 21 18 16 17 13 13 17 14
28 26 27 26 24 32 35 34 34 34 29 24 30 28 27 26 25 25 28 29 30 34 34 33 32 36 36 39 32 35 19 14 30 23 25 27 23 24 20 17 10 11 10
33 33 32 24 25 30 36 39 38 36 35 33 32 29 26 24 25 29 29 31 31 31 33 33 36 34 39 45 33 31 32 26 35 24 26 27 25 26 25 23 19 18 16
16 23 26 26 26 30 37 41 35 34 33 26 29 29 29 25 21 23 29 32 31 33 31 34 38 41 41 46 42 36 33 23 33 31 29 30 26 28 28 24 22 24 26
14 25 29 28 26 31 36 34 30 33 30 25 23 23 22 22 23 25 24 30 34 34 32 35 40 37 44 45 49 41 41 31 34 29 32 34 33 28 29 29 23 21 21

GFSSE_850_spd_123.txt.gz
Wind_Speed
16 16 14 10 6 3 3 4 5 6 8 9 10 8 6 6 6 5 5 7 9 10 13 15 16 14 13 12 12 11 10 13 16 20 21 22 21 21 21 22 22 21 21
14 15 13 8 6 4 3 3 3 5 7 9 9 8 7 5 5 5 5 8 10 11 12 13 13 12 12 11 9 9 9 8 16 21 24 22 22 20 19 20 20 21 21
14 15 13 9 7 5 4 4 4 5 6 7 8 7 6 6 7 7 8 8 6 9 11 14 14 13 11 11 10 9 9 14 18 20 20 22 21 20 21 21 21 22 22
16 15 11 9 8 6 4 4 4 5 6 8 8 8 7 9 11 11 12 12 9 7 9 12 13 13 13 12 13 16 18 19 19 20 21 23 23 20 21 21 20 19 16
16 12 11 9 7 6 5 5 4 5 6 8 9 9 9 9 10 8 12 9 16 12 13 9 11 13 14 15 18 20 21 20 18 17 21 22 21 21 20 19 17 15 13
14 13 11 9 6 4 4 4 4 6 6 8 9 10 9 8 4 1 13 18 26 15 12 11 10 13 15 18 19 20 21 20 18 16 18 19 21 20 17 15 15 14 15
16 16 13 12 8 4 3 3 4 5 6 8 8 6 6 7 8 2 8 13 15 12 15 16 13 14 15 17 20 21 20 20 18 15 14 17 19 17 16 16 13 14 14
14 17 16 14 11 7 5 4 4 5 5 7 7 6 7 9 12 7 11 15 6 18 18 17 15 15 15 19 22 22 22 20 16 11 13 17 18 17 17 13 12 12 13
19 16 17 17 14 11 8 6 6 6 6 7 7 8 9 11 12 7 14 18 11 20 21 18 15 13 15 21 24 22 20 19 15 11 12 18 19 17 13 12 12 12 11
24 21 18 18 17 15 11 9 9 8 7 7 8 9 11 13 12 6 16 14 22 18 17 14 12 13 15 20 22 21 17 18 16 14 11 18 18 14 12 11 11 11 11
25 24 21 20 20 18 15 12 12 10 9 8 9 10 12 13 14 10 13 9 17 19 17 14 13 15 17 19 21 18 16 18 19 17 13 16 17 14 12 11 10 11 11
26 24 21 21 22 20 19 16 14 13 11 10 10 11 12 13 13 12 13 10 19 20 16 15 16 18 21 19 20 19 19 17 17 16 17 18 16 14 10 9 10 11 11
26 23 21 21 21 22 22 20 18 16 15 14 13 12 12 14 15 15 16 15 21 22 20 20 18 19 23 23 22 24 20 17 15 15 16 15 14 13 10 10 11 12 12
29 22 21 21 22 22 23 23 21 19 18 17 16 15 14 15 18 17 20 20 24 24 24 20 19 20 23 24 22 24 22 19 19 19 17 14 12 11 11 11 12 12 12
33 28 21 21 22 22 23 23 23 21 20 18 17 16 16 16 18 19 19 21 26 26 25 21 18 21 22 23 23 25 22 21 20 18 16 13 9 12 12 17 16 16 15
37 33 29 25 22 22 24 24 24 23 21 20 18 16 17 18 18 18 19 24 26 25 24 21 19 20 21 22 24 23 22 21 18 17 15 11 10 12 13 19 18 18 16
21 34 36 32 27 25 24 24 25 25 23 22 21 19 19 20 20 17 21 26 27 23 23 21 22 20 20 22 21 24 22 17 20 20 15 9 12 14 16 20 19 19 17
32 30 31 31 32 29 28 26 27 27 26 25 26 24 23 22 22 19 24 29 27 24 22 24 25 25 23 24 23 25 22 19 19 15 12 10 11 18 17 18 18 19 19
35 38 37 38 37 35 32 28 29 29 30 31 30 28 26 25 23 22 26 29 30 28 25 26 28 26 24 24 26 25 22 21 20 16 13 14 14 20 21 19 18 19 20
44 44 43 42 41 39 33 30 29 29 30 32 32 32 29 28 24 24 28 30 33 31 28 28 30 29 25 26 29 26 22 23 21 18 17 14 12 21 22 22 21 20 20
42 45 43 43 44 42 38 34 31 31 32 35 35 28 25 28 27 25 26 30 33 32 30 31 32 30 30 29 33 29 22 24 23 21 19 17 13 15 20 22 22 21 21
39 37 40 36 42 42 39 35 31 29 31 31 33 27 27 29 29 28 27 29 32 32 31 33 33 32 31 34 35 32 26 21 26 25 21 19 13 13 17 21 19 19 19
28 28 27 29 36 39 39 36 34 29 29 31 31 30 30 29 30 28 28 29 32 33 32 35 35 35 37 38 36 31 19 14 32 27 24 21 18 16 18 19 16 15 19
18 22 24 30 33 34 34 38 35 36 36 38 35 36 31 30 28 28 27 28 31 36 36 36 37 36 38 43 40 40 35 28 38 28 30 25 22 23 20 18 17 15 20
29 25 27 30 32 30 32 33 35 35 36 37 33 29 30 32 31 29 29 31 32 37 37 36 38 38 38 43 43 45 38 20 36 32 30 34 32 28 24 23 22 18 17
26 24 29 30 27 29 30 33 35 34 33 32 31 29 30 28 26 29 29 30 31 35 37 39 38 37 38 45 46 45 46 33 39 34 30 36 39 34 31 25 24 20 21

GFSSE_850_spd_129.txt.gz
Wind_Speed
24 22 22 19 17 16 15 13 13 13 13 12 12 11 10 12 13 13 12 11 11 12 14 15 15 14 12 13 14 14 11 13 16 14 16 18 19 19 20 20 20 20 19
25 24 22 19 17 15 13 12 12 12 13 14 14 13 12 12 14 14 13 13 13 13 15 14 12 12 11 13 13 13 14 16 14 14 15 18 21 21 20 20 19 19 19
26 25 21 18 16 13 12 11 11 12 13 14 14 15 14 13 13 12 13 15 14 15 15 15 13 12 12 12 13 13 13 15 17 20 21 20 21 20 19 18 18 19 19
25 23 21 18 16 14 12 11 10 11 12 14 14 14 14 13 12 11 11 13 15 17 18 16 14 13 13 12 12 13 11 14 19 22 22 22 22 20 19 20 20 20 20
24 22 21 20 17 13 11 11 10 11 12 13 13 13 13 12 12 12 12 13 13 12 15 15 13 14 14 13 13 13 15 17 19 21 21 22 22 20 21 21 20 18 15
24 23 22 20 17 13 11 10 10 10 11 12 13 13 12 12 12 12 13 14 15 15 16 18 16 15 15 15 16 16 17 18 18 18 19 22 22 20 20 19 16 13 12
27 26 23 20 16 13 10 9 9 10 10 11 12 13 13 13 12 10 13 16 14 13 15 18 18 15 16 16 17 18 19 19 19 19 18 20 20 19 18 15 13 12 11
30 28 24 20 17 13 10 9 8 9 10 11 11 13 13 14 14 10 14 16 11 14 16 16 19 18 17 18 17 19 19 17 17 18 17 19 19 18 16 15 13 12 11
32 29 26 23 19 15 11 9 8 10 11 12 12 13 14 14 13 10 12 15 18 18 17 15 20 20 19 18 18 18 17 17 18 17 17 18 17 16 15 14 14 13 11
33 30 28 25 22 18 15 12 10 10 12 14 14 14 15 14 14 11 15 17 17 19 17 15 18 20 19 18 17 16 16 16 15 15 16 17 17 18 16 14 13 12 10
34 31 29 27 23 20 17 15 14 11 13 15 15 14 16 17 15 14 15 16 14 22 22 18 18 18 18 18 17 16 18 19 15 12 15 17 17 18 15 13 12 11 10
37 34 30 28 26 24 21 19 17 15 15 16 16 16 16 18 16 15 16 16 14 22 21 19 19 18 18 20 20 18 17 17 17 13 15 16 18 16 14 12 11 11 11
38 34 33 30 27 26 26 23 22 19 18 17 17 16 16 18 19 18 19 19 20 23 22 20 20 20 20 21 23 21 19 19 18 16 15 17 18 16 13 11 11 11 11
35 32 33 31 29 28 28 27 25 24 22 20 19 19 19 18 20 19 22 18 24 24 23 21 22 21 21 22 24 22 21 20 20 19 17 17 18 14 11 11 11 12 13
32 36 35 33 32 31 32 31 29 27 25 23 22 22 22 20 18 20 23 21 21 26 26 24 23 22 22 23 23 24 21 19 21 20 19 17 16 14 12 12 12 14 14
40 38 37 35 32 31 33 33 32 30 28 26 24 24 24 22 19 18 22 23 21 25 27 25 23 22 22 23 23 24 23 21 21 21 16 17 17 14 13 12 12 15 16
31 41 45 41 37 34 33 34 34 32 31 29 28 26 25 24 22 18 19 23 22 22 27 26 24 22 21 21 22 23 22 22 23 22 23 20 18 15 13 13 15 18 18
30 32 48 46 42 36 34 34 33 32 33 32 31 28 27 26 25 23 19 20 22 23 26 26 25 24 21 21 22 22 22 22 22 22 25 21 18 15 14 15 17 19 18
35 32 34 51 46 41 36 35 34 33 34 33 32 31 29 28 26 26 23 19 21 23 26 27 27 25 22 22 21 22 22 24 25 23 25 21 20 16 13 15 19 21 20
36 34 33 37 48 45 43 39 37 36 34 33 33 33 31 29 27 27 26 22 21 24 28 29 29 27 23 23 24 25 25 24 24 22 24 23 21 17 14 15 17 23 22
33 36 37 40 42 48 49 47 44 41 37 34 33 34 32 31 29 28 27 26 24 25 28 30 30 29 26 27 27 24 26 26 26 25 25 26 24 19 15 16 20 22 24
29 31 37 39 44 47 52 50 50 45 41 36 34 34 31 32 31 29 28 29 28 28 29 31 32 31 29 30 32 24 17 27 28 29 28 28 27 23 18 17 22 23 24
42 32 27 29 44 51 50 51 53 48 42 35 34 34 34 34 31 31 31 30 30 30 32 32 33 33 32 33 35 26 11 14 26 30 32 31 29 25 22 19 22 24 23
42 37 32 32 38 47 54 56 54 53 49 46 41 38 36 34 32 30 30 33 32 32 32 31 32 33 35 37 38 39 26 18 17 17 37 36 31 29 27 23 23 25 25
32 23 28 31 38 46 53 54 52 52 52 48 43 39 37 34 34 32 32 34 34 35 34 33 35 36 39 38 41 43 40 31 22 25 25 40 36 32 32 27 22 25 27
25 35 31 31 33 46 50 50 51 52 52 47 42 40 38 36 34 31 33 35 36 34 35 35 33 36 37 38 42 45 45 43 34 31 28 39 46 40 37 31 27 24 27

GFSSE_850_spd_132.txt.gz
Wind_Speed
26 26 26 26 24 22 19 18 17 16 14 13 12 13 17 17 16 14 13 12 13 13 15 15 15 14 13 13 14 16 13 9 12 12 17 17 17 19 17 18 20 19 19
27 26 26 25 22 21 20 18 17 16 15 14 14 15 17 17 16 14 13 12 13 14 15 15 15 14 14 13 15 14 10 14 13 15 12 14 13 19 21 20 19 20 19
25 25 26 24 22 20 19 17 16 15 14 14 14 13 14 15 14 13 12 12 14 15 15 14 14 14 14 14 13 12 15 18 16 15 10 15 15 18 19 18 18 19 19
24 25 25 23 20 18 17 16 16 14 14 13 13 13 13 13 13 12 12 13 14 17 17 16 15 15 15 14 14 16 15 14 15 18 21 21 18 18 18 18 19 18 17
27 25 23 20 18 18 18 16 14 13 13 12 12 12 12 12 12 11 12 14 15 15 16 15 14 14 14 14 14 14 13 15 19 20 21 21 19 17 18 18 18 18 16
27 25 23 21 20 19 17 14 13 12 12 11 11 12 12 12 12 12 14 15 16 17 16 16 16 16 14 14 13 13 16 18 18 19 21 21 19 18 18 18 18 14 13
29 26 24 23 22 19 17 13 12 11 11 11 11 12 13 13 13 13 14 14 15 15 16 16 16 16 15 15 15 15 18 18 16 16 18 19 19 19 19 17 14 12 12
27 27 26 25 22 20 17 14 12 11 11 12 12 12 13 13 13 12 13 14 13 12 13 16 18 17 17 17 17 17 17 16 15 14 16 19 19 19 18 15 12 12 12
30 29 29 27 23 20 17 14 12 11 11 12 12 12 13 13 14 13 15 17 15 12 14 17 19 18 18 18 18 16 15 15 14 14 16 18 19 17 16 14 14 12 11
32 31 30 28 25 22 19 16 13 11 10 11 12 13 14 14 15 13 15 17 14 16 15 17 18 20 20 18 16 15 13 14 15 15 15 16 15 15 15 14 13 12 10
34 34 32 29 26 24 21 19 16 13 12 12 13 14 15 15 16 13 15 15 18 16 16 17 19 20 19 17 14 13 13 14 13 14 15 15 14 15 14 14 13 12 11
33 34 35 32 29 27 25 22 19 17 14 13 14 15 16 16 16 14 17 17 17 18 17 18 19 19 17 18 19 14 13 14 13 13 13 14 15 15 14 13 12 11 9
34 34 36 33 31 29 28 25 23 20 17 16 15 15 16 17 18 16 18 17 14 21 24 21 21 20 19 18 18 19 16 16 16 13 13 14 15 16 14 13 11 10 9
34 35 37 35 33 31 29 28 25 23 21 19 18 17 18 18 20 18 20 17 17 23 24 23 22 20 18 17 19 19 19 20 19 16 15 14 16 17 13 13 11 10 10
37 36 38 36 35 34 33 30 29 27 25 22 21 20 19 18 19 20 20 20 20 24 23 22 21 20 19 19 20 21 19 18 18 18 17 15 15 17 12 11 12 11 11
25 33 37 37 37 36 35 33 31 29 28 26 24 23 22 21 18 19 21 23 21 25 24 23 20 20 19 19 20 21 20 18 16 18 17 15 16 15 13 11 8 10 12
28 29 31 35 37 40 38 37 34 32 30 29 28 26 26 24 21 18 19 23 23 21 26 25 22 20 20 18 18 19 19 19 17 20 22 19 15 17 14 10 8 12 13
34 34 34 35 37 42 43 40 38 37 34 33 31 30 28 27 25 22 20 22 23 22 21 24 24 21 21 19 19 20 20 20 19 22 23 19 21 19 15 12 11 14 15
33 33 37 39 40 39 46 44 40 39 37 35 34 33 31 30 28 27 22 20 23 23 22 24 26 24 23 21 19 20 20 21 20 21 20 23 23 21 16 13 12 16 18
32 31 32 43 40 38 44 47 43 40 39 38 37 36 34 32 31 30 28 23 23 24 24 25 27 26 24 22 20 19 19 21 21 22 20 24 25 24 18 14 15 17 21
37 31 38 38 40 42 43 50 47 44 41 40 38 37 35 34 33 33 31 28 25 26 25 26 28 28 27 24 21 20 21 21 21 21 19 24 32 25 20 17 16 15 22
41 33 33 35 37 41 44 43 50 46 45 42 40 38 37 35 34 34 33 32 30 27 27 28 31 31 29 27 26 22 14 22 24 25 24 24 21 23 23 20 18 18 20
42 35 33 33 33 40 41 44 48 47 45 44 42 39 38 36 36 36 34 33 32 30 29 29 31 33 32 31 29 22 10 13 19 27 29 28 27 26 26 23 20 20 22
39 33 32 29 34 31 40 47 50 52 52 51 48 45 38 36 36 36 35 34 33 32 32 31 31 33 33 32 31 33 27 15 13 10 27 32 30 30 29 26 24 22 24
37 37 31 27 26 27 37 42 52 55 51 50 52 47 42 38 35 35 34 34 32 34 34 32 32 33 34 32 32 32 36 30 22 20 19 26 34 36 35 29 24 25 26
34 37 30 23 16 13 30 36 50 56 53 52 49 49 46 42 35 34 34 33 33 33 35 32 30 30 30 32 34 36 35 38 34 28 27 28 30 39 40 34 28 29 28

GFSSE_850_spd_135.txt.gz
Wind_Speed
26 25 24 23 21 20 19 18 16 15 14 13 16 20 22 20 18 15 13 13 13 13 14 15 14 14 14 13 13 14 13 8 12 14 15 14 12 13 16 18 20 22 22
27 26 24 23 22 21 20 19 18 16 15 14 15 19 22 18 17 15 13 12 13 13 14 15 15 15 14 13 14 15 11 10 12 18 20 11 15 11 13 17 20 22 21
25 23 24 23 24 23 22 20 19 17 16 15 15 18 18 17 15 14 13 12 13 14 14 15 14 14 14 14 14 13 11 15 16 14 14 21 17 14 16 17 19 20 20
25 23 22 23 23 22 21 21 19 18 16 15 15 16 17 16 15 14 12 12 14 14 16 16 16 14 13 14 15 14 16 16 18 16 17 19 19 21 18 18 18 18 17
26 21 21 22 23 22 20 19 19 18 16 15 14 15 16 15 14 13 12 13 14 15 16 15 15 15 14 14 15 16 17 15 15 16 17 18 19 20 17 17 17 17 17
24 22 22 22 22 21 20 19 19 17 16 15 14 14 14 14 14 13 13 14 14 15 15 15 15 15 15 15 15 13 12 13 15 17 17 18 18 17 17 18 17 16 14
26 23 23 21 20 19 18 18 18 16 15 15 15 15 14 14 13 13 14 14 15 15 15 15 14 15 16 15 14 11 14 16 11 14 16 16 16 17 18 18 15 12 12
27 25 24 22 21 19 18 17 17 16 15 15 15 15 14 13 14 14 13 14 13 14 13 15 16 17 16 16 15 18 19 17 19 15 15 16 18 18 18 16 12 10 10
28 27 26 25 24 21 20 17 17 16 16 16 16 15 14 14 14 13 14 14 15 14 13 14 17 17 16 16 17 17 17 17 16 14 15 17 18 18 17 14 11 11 11
29 28 27 26 25 24 22 19 17 17 16 16 16 15 14 14 15 14 13 15 15 14 12 15 19 18 18 18 18 17 17 15 14 15 15 16 16 15 14 13 13 11 9
30 30 29 28 28 27 25 22 20 19 18 17 16 16 16 16 17 15 14 15 15 13 13 15 17 20 20 20 18 18 16 15 14 14 14 15 14 13 12 13 12 11 9
32 31 32 31 30 29 26 24 23 22 22 21 19 18 17 17 17 15 14 15 15 16 14 16 18 18 18 19 20 17 15 15 14 13 14 14 13 14 13 12 12 12 10
33 32 34 33 32 31 28 26 26 25 24 23 21 18 17 18 18 18 16 18 19 18 18 19 18 21 20 19 20 19 16 18 14 14 13 14 14 15 14 13 13 11 11
28 34 35 35 35 33 31 30 29 27 25 24 23 21 18 18 19 18 18 19 18 19 22 20 21 22 21 20 17 18 17 17 16 15 12 13 14 16 16 14 12 11 11
24 31 37 38 38 36 34 33 32 30 28 24 24 23 21 19 19 19 20 19 17 16 22 23 22 23 23 19 19 17 16 14 14 14 12 13 14 15 16 12 13 12 12
21 24 31 37 40 39 37 35 34 33 31 29 25 25 24 21 19 19 21 21 18 19 21 24 22 20 18 18 18 19 18 15 15 16 16 16 15 15 15 13 13 12 11
28 23 25 34 30 40 42 39 37 37 35 33 29 27 27 25 23 21 21 23 22 22 22 23 22 20 19 18 16 18 18 15 16 15 17 19 17 14 15 12 11 9 10
36 31 25 28 38 38 42 40 41 40 38 36 35 31 30 29 27 25 23 22 24 24 24 25 23 21 20 18 18 18 16 16 18 19 18 22 23 20 18 15 12 10 12
34 38 34 30 31 40 41 43 44 44 42 39 38 36 33 32 31 28 26 23 24 26 25 25 26 24 22 20 19 17 17 16 17 18 19 24 23 22 20 17 14 11 14
38 38 40 34 32 32 42 46 49 50 47 42 38 39 37 36 34 32 30 26 25 27 26 25 26 27 24 21 20 18 17 18 18 18 18 21 21 22 22 19 16 13 15
40 39 40 40 35 32 37 46 48 52 51 46 40 40 40 38 37 36 34 31 28 28 28 26 27 28 28 25 22 20 19 18 20 19 20 21 19 25 21 21 18 16 15
46 39 38 39 37 33 36 42 44 46 52 48 42 41 40 39 40 39 38 36 33 30 30 30 30 32 31 29 27 20 12 19 22 22 22 22 19 23 23 28 22 18 16
46 43 43 43 39 34 32 38 40 39 43 49 47 43 40 41 42 40 40 39 37 34 33 32 32 34 34 32 32 18 9 11 17 26 24 24 24 24 24 24 26 20 19
47 44 41 43 40 36 33 37 39 46 47 53 49 43 43 43 41 41 41 39 39 38 36 33 32 34 35 36 33 30 24 12 9 8 16 24 26 27 27 28 28 23 21
43 39 38 40 39 33 34 37 42 46 45 45 49 47 46 45 41 41 41 40 41 40 38 36 33 34 36 35 36 32 31 26 21 17 12 15 19 24 30 31 31 29 24
32 35 35 36 38 31 34 38 40 45 45 45 46 48 48 48 44 43 42 41 41 39 38 36 32 31 34 36 34 33 31 25 24 25 23 20 24 23 26 34 36 35 30

GFSSE_850_spd_138.txt.gz
Wind_Speed
14 18 19 19 20 18 16 15 14 14 14 15 16 17 18 18 15 12 11 11 12 12 13 14 14 15 14 13 12 11 10 8 7 10 11 14 16 13 9 13 16 19 20
16 20 20 20 19 17 16 16 14 14 14 15 17 19 19 18 15 11 11 11 11 11 13 13 14 14 14 12 12 13 11 9 11 12 14 10 6 16 8 11 16 19 19
17 22 21 20 20 18 17 16 15 14 14 15 17 19 20 16 15 13 11 11 10 11 12 13 13 13 12 12 13 13 10 12 13 19 6 9 18 13 16 14 14 18 19
15 22 21 20 19 17 16 16 15 14 13 13 14 18 20 17 15 13 11 10 10 11 13 13 13 12 12 12 13 12 10 14 18 11 11 15 14 17 17 17 17 18 18
15 17 21 20 19 17 16 16 16 15 13 13 14 17 18 17 15 13 11 11 11 12 13 13 12 11 11 13 13 13 14 16 16 7 13 13 16 19 19 18 18 17 16
16 17 20 21 18 17 16 16 15 15 14 14 15 17 18 17 15 14 12 11 11 12 12 13 12 12 13 13 14 14 14 13 10 16 14 12 16 20 19 19 18 16 15
16 17 21 21 18 17 17 16 16 15 14 15 16 17 18 18 16 14 13 12 12 12 13 12 13 13 14 14 14 12 12 13 15 15 14 16 16 17 17 17 16 14 12
21 22 21 21 20 19 17 16 16 15 15 15 16 17 18 17 16 15 14 13 12 11 12 12 14 15 15 16 16 14 17 16 16 13 16 14 16 17 18 17 13 11 11
19 23 23 22 22 21 20 18 17 16 16 16 17 17 17 17 16 15 14 14 14 14 13 13 14 15 15 16 16 15 17 13 11 13 13 13 17 18 18 15 11 10 9
15 24 24 23 24 23 22 20 19 18 18 17 17 17 17 17 17 16 15 15 14 14 13 13 15 16 16 17 15 16 17 16 15 13 14 15 17 17 16 13 11 9 8
12 21 25 25 25 25 25 23 22 21 20 19 19 19 18 18 18 17 16 15 15 15 13 13 15 15 14 16 18 19 18 12 14 13 11 16 17 15 14 12 10 10 8
11 16 23 27 27 27 26 24 23 23 21 21 22 21 21 16 16 15 16 15 15 14 13 12 14 15 17 19 18 18 17 14 13 13 13 16 15 13 12 13 13 11 9
11 14 21 27 30 29 28 27 26 25 24 21 20 21 19 18 17 17 16 17 16 15 14 15 14 18 21 21 19 19 14 16 16 12 13 15 14 13 13 11 11 11 10
12 13 17 24 31 33 31 30 30 29 28 28 27 25 21 19 18 17 15 15 16 15 14 15 18 19 20 18 17 17 14 14 15 14 14 14 12 15 13 11 10 10 11
17 13 15 21 27 35 35 34 34 32 30 29 29 28 24 20 19 19 16 16 16 16 16 17 19 18 20 17 17 16 15 15 15 15 13 12 13 13 14 13 12 11 11
21 20 18 18 25 29 39 39 38 35 32 32 31 31 29 22 21 20 19 18 17 16 17 18 19 18 17 16 19 17 16 16 14 13 12 11 11 12 14 15 13 12 11
25 24 22 21 22 28 31 35 41 38 36 35 34 33 33 28 25 23 21 20 18 16 18 19 19 22 18 16 16 16 17 15 13 13 14 16 15 15 15 15 14 13 12
28 28 26 23 22 25 30 31 32 39 41 38 34 36 35 34 29 27 23 22 20 19 19 19 24 25 24 20 17 19 18 17 16 17 17 15 19 22 20 15 14 14 14
32 32 31 28 27 28 29 31 35 34 41 43 39 38 38 37 35 31 26 24 25 22 21 25 26 27 26 23 21 20 19 18 18 16 19 17 18 24 26 19 17 15 13
39 36 37 35 35 36 33 33 33 35 35 33 35 41 40 40 39 36 28 28 28 26 24 24 29 25 21 25 22 22 21 19 19 19 17 18 20 25 26 23 21 16 17
48 41 41 39 36 35 36 38 38 41 37 37 36 42 40 41 43 41 32 34 32 31 31 30 27 24 20 19 21 21 19 19 19 19 18 19 18 19 25 24 22 19 18
40 44 43 41 38 35 38 40 41 42 46 37 37 44 44 44 43 45 42 38 37 34 33 32 28 23 23 28 20 17 11 18 19 18 18 18 18 19 21 25 24 23 15
40 37 41 43 38 37 37 39 38 37 36 35 39 43 48 45 43 46 46 43 40 38 35 34 32 27 28 31 22 17 11 13 13 17 23 21 20 22 21 27 27 25 19
38 40 39 42 41 37 37 38 40 39 41 40 40 40 48 47 43 46 49 44 43 41 38 37 36 28 26 27 26 25 17 11 13 7 14 24 26 22 24 30 27 30 31
40 40 36 36 39 37 37 41 40 40 40 52 29 37 40 45 46 45 47 48 46 43 43 40 38 34 30 24 29 24 24 18 16 14 9 13 22 26 23 29 30 31 31
39 36 32 31 36 37 35 40 43 43 39 36 49 39 35 48 46 45 46 47 46 45 46 45 40 39 32 29 26 25 27 23 20 17 17 14 14 19 25 26 32 32 32